<?xml version='1.0' encoding='UTF-8'?><gpx version="1.1" creator="JPX - https://github.com/jenetics/jpx" xmlns="http://www.topografix.com/GPX/1/1"><trk><trkseg><trkpt lat="43.4220316" lon="11.1811747"><ele>174.0</ele><time>2026-04-22T14:49:26.929Z</time></trkpt><trkpt lat="43.4220936" lon="11.1811954"><ele>174.0</ele><time>2026-04-22T14:49:33.928Z</time></trkpt><trkpt lat="43.4221506" lon="11.1811361"><ele>174.0</ele><time>2026-04-22T14:49:42.95Z</time></trkpt><trkpt lat="43.4222097" lon="11.1810795"><ele>174.0</ele><time>2026-04-22T14:49:48.938Z</time></trkpt><trkpt lat="43.4222364" lon="11.1809749"><ele>174.0</ele><time>2026-04-22T14:49:58.947Z</time></trkpt><trkpt lat="43.4222235" lon="11.1808893"><ele>174.0</ele><time>2026-04-22T14:50:01.943Z</time></trkpt><trkpt lat="43.4222046" lon="11.1807866"><ele>174.0</ele><time>2026-04-22T14:50:05.932Z</time></trkpt><trkpt lat="43.4221898" lon="11.1806908"><ele>173.71428571428572</ele><time>2026-04-22T14:50:09.939Z</time></trkpt><trkpt lat="43.4221961" lon="11.1805782"><ele>173.42857142857144</ele><time>2026-04-22T14:50:14.949Z</time></trkpt><trkpt lat="43.4221785" lon="11.1804853"><ele>173.14285714285717</ele><time>2026-04-22T14:50:17.937Z</time></trkpt><trkpt lat="43.4222009" lon="11.1803959"><ele>172.85714285714286</ele><time>2026-04-22T14:50:20.939Z</time></trkpt><trkpt lat="43.4222815" lon="11.1803385"><ele>172.57142857142858</ele><time>2026-04-22T14:50:23.933Z</time></trkpt><trkpt lat="43.4223477" lon="11.1803241"><ele>172.2857142857143</ele><time>2026-04-22T14:50:25.949Z</time></trkpt><trkpt lat="43.4224115" lon="11.1802917"><ele>172.0</ele><time>2026-04-22T14:50:27.941Z</time></trkpt><trkpt lat="43.4224724" lon="11.1802677"><ele>172.00000000000003</ele><time>2026-04-22T14:50:29.945Z</time></trkpt><trkpt lat="43.4225366" lon="11.1802538"><ele>172.0</ele><time>2026-04-22T14:50:31.932Z</time></trkpt><trkpt lat="43.4226009" lon="11.1802422"><ele>172.0</ele><time>2026-04-22T14:50:33.934Z</time></trkpt><trkpt lat="43.4226677" lon="11.180249"><ele>172.0</ele><time>2026-04-22T14:50:35.94Z</time></trkpt><trkpt lat="43.4227631" lon="11.1802248"><ele>172.0</ele><time>2026-04-22T14:50:38.955Z</time></trkpt><trkpt lat="43.4228318" lon="11.1802067"><ele>172.00000000000003</ele><time>2026-04-22T14:50:40.934Z</time></trkpt><trkpt lat="43.4229075" lon="11.1801787"><ele>172.0</ele><time>2026-04-22T14:50:42.937Z</time></trkpt><trkpt lat="43.4229817" lon="11.1801575"><ele>171.66666666666669</ele><time>2026-04-22T14:50:44.924Z</time></trkpt><trkpt lat="43.423058" lon="11.1801452"><ele>171.33333333333334</ele><time>2026-04-22T14:50:46.941Z</time></trkpt><trkpt lat="43.4231313" lon="11.1801406"><ele>171.0</ele><time>2026-04-22T14:50:48.935Z</time></trkpt><trkpt lat="43.4232063" lon="11.1801191"><ele>170.66666666666666</ele><time>2026-04-22T14:50:50.948Z</time></trkpt><trkpt lat="43.4232896" lon="11.1800966"><ele>170.33333333333331</ele><time>2026-04-22T14:50:52.952Z</time></trkpt><trkpt lat="43.4233746" lon="11.1800738"><ele>170.0</ele><time>2026-04-22T14:50:54.943Z</time></trkpt><trkpt lat="43.423469" lon="11.1800681"><ele>170.0</ele><time>2026-04-22T14:50:56.936Z</time></trkpt><trkpt lat="43.4235708" lon="11.1800756"><ele>170.0</ele><time>2026-04-22T14:50:58.953Z</time></trkpt><trkpt lat="43.4236733" lon="11.1800694"><ele>170.0</ele><time>2026-04-22T14:51:00.925Z</time></trkpt><trkpt lat="43.4237644" lon="11.1800459"><ele>170.0</ele><time>2026-04-22T14:51:02.931Z</time></trkpt><trkpt lat="43.4238407" lon="11.1799968"><ele>170.0</ele><time>2026-04-22T14:51:04.954Z</time></trkpt><trkpt lat="43.4238818" lon="11.1798919"><ele>170.16666666666666</ele><time>2026-04-22T14:51:06.939Z</time></trkpt><trkpt lat="43.4238859" lon="11.1797812"><ele>170.33333333333331</ele><time>2026-04-22T14:51:08.936Z</time></trkpt><trkpt lat="43.4238758" lon="11.1796849"><ele>170.5</ele><time>2026-04-22T14:51:10.947Z</time></trkpt><trkpt lat="43.423853" lon="11.1795981"><ele>170.66666666666666</ele><time>2026-04-22T14:51:12.944Z</time></trkpt><trkpt lat="43.4238246" lon="11.1794775"><ele>170.83333333333334</ele><time>2026-04-22T14:51:15.948Z</time></trkpt><trkpt lat="43.4238748" lon="11.1794093"><ele>171.0</ele><time>2026-04-22T14:51:19.94Z</time></trkpt><trkpt lat="43.4239645" lon="11.1794064"><ele>170.99999999999997</ele><time>2026-04-22T14:51:22.942Z</time></trkpt><trkpt lat="43.4240331" lon="11.1793782"><ele>171.0</ele><time>2026-04-22T14:51:24.935Z</time></trkpt><trkpt lat="43.4240998" lon="11.1793658"><ele>171.0</ele><time>2026-04-22T14:51:26.93Z</time></trkpt><trkpt lat="43.4241724" lon="11.1793466"><ele>171.0</ele><time>2026-04-22T14:51:28.939Z</time></trkpt><trkpt lat="43.4242435" lon="11.1793342"><ele>171.0</ele><time>2026-04-22T14:51:30.924Z</time></trkpt><trkpt lat="43.4243134" lon="11.1793207"><ele>170.99999999999997</ele><time>2026-04-22T14:51:32.953Z</time></trkpt><trkpt lat="43.4243881" lon="11.1793177"><ele>171.0</ele><time>2026-04-22T14:51:34.955Z</time></trkpt><trkpt lat="43.4244526" lon="11.1793133"><ele>171.0</ele><time>2026-04-22T14:51:36.937Z</time></trkpt><trkpt lat="43.4245298" lon="11.1792986"><ele>171.0</ele><time>2026-04-22T14:51:38.942Z</time></trkpt><trkpt lat="43.4245942" lon="11.1793188"><ele>171.0</ele><time>2026-04-22T14:51:40.937Z</time></trkpt><trkpt lat="43.4246611" lon="11.1793574"><ele>171.0</ele><time>2026-04-22T14:51:42.933Z</time></trkpt><trkpt lat="43.4246986" lon="11.1794382"><ele>171.0</ele><time>2026-04-22T14:51:44.93Z</time></trkpt><trkpt lat="43.4247197" lon="11.1795597"><ele>171.0</ele><time>2026-04-22T14:51:47.935Z</time></trkpt><trkpt lat="43.4247379" lon="11.1796576"><ele>170.16666666666666</ele><time>2026-04-22T14:51:50.935Z</time></trkpt><trkpt lat="43.424716" lon="11.1797428"><ele>169.33333333333334</ele><time>2026-04-22T14:51:53.939Z</time></trkpt><trkpt lat="43.424688" lon="11.1798281"><ele>168.5</ele><time>2026-04-22T14:51:56.939Z</time></trkpt><trkpt lat="43.424697" lon="11.1799187"><ele>167.66666666666669</ele><time>2026-04-22T14:51:59.955Z</time></trkpt><trkpt lat="43.4247246" lon="11.1800438"><ele>166.83333333333334</ele><time>2026-04-22T14:52:01.943Z</time></trkpt><trkpt lat="43.4247554" lon="11.1802038"><ele>166.0</ele><time>2026-04-22T14:52:03.948Z</time></trkpt><trkpt lat="43.4247881" lon="11.1803562"><ele>165.5</ele><time>2026-04-22T14:52:05.944Z</time></trkpt><trkpt lat="43.4248282" lon="11.1805049"><ele>165.0</ele><time>2026-04-22T14:52:07.957Z</time></trkpt><trkpt lat="43.4248792" lon="11.1805906"><ele>164.5</ele><time>2026-04-22T14:52:09.929Z</time></trkpt><trkpt lat="43.4249458" lon="11.1806034"><ele>164.0</ele><time>2026-04-22T14:52:11.935Z</time></trkpt><trkpt lat="43.4250064" lon="11.180571"><ele>163.5</ele><time>2026-04-22T14:52:13.933Z</time></trkpt><trkpt lat="43.4250609" lon="11.1804915"><ele>163.0</ele><time>2026-04-22T14:52:15.93Z</time></trkpt><trkpt lat="43.4251169" lon="11.1804132"><ele>163.0</ele><time>2026-04-22T14:52:17.925Z</time></trkpt><trkpt lat="43.4251654" lon="11.1803314"><ele>163.0</ele><time>2026-04-22T14:52:19.934Z</time></trkpt><trkpt lat="43.4252174" lon="11.1802446"><ele>163.0</ele><time>2026-04-22T14:52:21.935Z</time></trkpt><trkpt lat="43.4252605" lon="11.1801592"><ele>163.0</ele><time>2026-04-22T14:52:23.942Z</time></trkpt><trkpt lat="43.4253078" lon="11.1800735"><ele>163.0</ele><time>2026-04-22T14:52:25.951Z</time></trkpt><trkpt lat="43.4253514" lon="11.1799865"><ele>163.0</ele><time>2026-04-22T14:52:27.934Z</time></trkpt><trkpt lat="43.4254005" lon="11.1799052"><ele>162.66666666666669</ele><time>2026-04-22T14:52:29.939Z</time></trkpt><trkpt lat="43.4254503" lon="11.1798257"><ele>162.33333333333334</ele><time>2026-04-22T14:52:31.936Z</time></trkpt><trkpt lat="43.4255063" lon="11.1797522"><ele>162.0</ele><time>2026-04-22T14:52:33.93Z</time></trkpt><trkpt lat="43.4255661" lon="11.1796693"><ele>161.66666666666666</ele><time>2026-04-22T14:52:35.947Z</time></trkpt><trkpt lat="43.4256175" lon="11.1795881"><ele>161.33333333333331</ele><time>2026-04-22T14:52:37.946Z</time></trkpt><trkpt lat="43.4256626" lon="11.1795037"><ele>161.0</ele><time>2026-04-22T14:52:39.943Z</time></trkpt><trkpt lat="43.4257162" lon="11.179422"><ele>161.0</ele><time>2026-04-22T14:52:41.94Z</time></trkpt><trkpt lat="43.4257751" lon="11.1793503"><ele>161.0</ele><time>2026-04-22T14:52:43.939Z</time></trkpt><trkpt lat="43.4258475" lon="11.1793058"><ele>161.0</ele><time>2026-04-22T14:52:45.943Z</time></trkpt><trkpt lat="43.4259238" lon="11.1792945"><ele>161.0</ele><time>2026-04-22T14:52:47.931Z</time></trkpt><trkpt lat="43.4259965" lon="11.1792638"><ele>161.0</ele><time>2026-04-22T14:52:49.953Z</time></trkpt><trkpt lat="43.4260553" lon="11.1791937"><ele>161.0</ele><time>2026-04-22T14:52:51.941Z</time></trkpt><trkpt lat="43.4260978" lon="11.1791049"><ele>162.0</ele><time>2026-04-22T14:52:53.94Z</time></trkpt><trkpt lat="43.4261174" lon="11.1790101"><ele>163.0</ele><time>2026-04-22T14:52:55.936Z</time></trkpt><trkpt lat="43.4261301" lon="11.1789169"><ele>164.0</ele><time>2026-04-22T14:52:57.938Z</time></trkpt><trkpt lat="43.4261478" lon="11.1788229"><ele>165.0</ele><time>2026-04-22T14:52:59.941Z</time></trkpt><trkpt lat="43.426172" lon="11.1787283"><ele>166.0</ele><time>2026-04-22T14:53:01.936Z</time></trkpt><trkpt lat="43.4262098" lon="11.1786452"><ele>167.0</ele><time>2026-04-22T14:53:03.944Z</time></trkpt><trkpt lat="43.4262562" lon="11.1785666"><ele>168.0</ele><time>2026-04-22T14:53:05.939Z</time></trkpt><trkpt lat="43.4263013" lon="11.1784911"><ele>167.57142857142858</ele><time>2026-04-22T14:53:07.927Z</time></trkpt><trkpt lat="43.4263452" lon="11.1784129"><ele>167.14285714285714</ele><time>2026-04-22T14:53:09.934Z</time></trkpt><trkpt lat="43.4263941" lon="11.1783423"><ele>166.71428571428572</ele><time>2026-04-22T14:53:11.945Z</time></trkpt><trkpt lat="43.4264376" lon="11.1782665"><ele>166.28571428571428</ele><time>2026-04-22T14:53:13.937Z</time></trkpt><trkpt lat="43.4264818" lon="11.1781888"><ele>165.85714285714286</ele><time>2026-04-22T14:53:15.944Z</time></trkpt><trkpt lat="43.4265284" lon="11.1781128"><ele>165.42857142857144</ele><time>2026-04-22T14:53:17.936Z</time></trkpt><trkpt lat="43.4265686" lon="11.1780405"><ele>165.0</ele><time>2026-04-22T14:53:19.949Z</time></trkpt><trkpt lat="43.4266124" lon="11.1779719"><ele>165.0</ele><time>2026-04-22T14:53:21.953Z</time></trkpt><trkpt lat="43.4266555" lon="11.1778875"><ele>165.0</ele><time>2026-04-22T14:53:23.934Z</time></trkpt><trkpt lat="43.4266901" lon="11.1777957"><ele>165.0</ele><time>2026-04-22T14:53:25.926Z</time></trkpt><trkpt lat="43.4267354" lon="11.1776996"><ele>165.0</ele><time>2026-04-22T14:53:27.949Z</time></trkpt><trkpt lat="43.4267881" lon="11.1776128"><ele>165.0</ele><time>2026-04-22T14:53:29.947Z</time></trkpt><trkpt lat="43.4268363" lon="11.1775179"><ele>165.0</ele><time>2026-04-22T14:53:31.925Z</time></trkpt><trkpt lat="43.4268847" lon="11.1774191"><ele>165.0</ele><time>2026-04-22T14:53:33.952Z</time></trkpt><trkpt lat="43.4269369" lon="11.1773198"><ele>165.0</ele><time>2026-04-22T14:53:35.943Z</time></trkpt><trkpt lat="43.4269931" lon="11.1772205"><ele>165.0</ele><time>2026-04-22T14:53:37.93Z</time></trkpt><trkpt lat="43.4270498" lon="11.1771147"><ele>165.0</ele><time>2026-04-22T14:53:39.955Z</time></trkpt><trkpt lat="43.427102" lon="11.1770041"><ele>165.0</ele><time>2026-04-22T14:53:41.939Z</time></trkpt><trkpt lat="43.4271564" lon="11.1768869"><ele>164.4</ele><time>2026-04-22T14:53:43.939Z</time></trkpt><trkpt lat="43.4272017" lon="11.1767664"><ele>163.8</ele><time>2026-04-22T14:53:46.01Z</time></trkpt><trkpt lat="43.4272283" lon="11.1766574"><ele>163.2</ele><time>2026-04-22T14:53:49.93Z</time></trkpt><trkpt lat="43.4273306" lon="11.1765372"><ele>162.6</ele><time>2026-04-22T14:54:18.931Z</time></trkpt><trkpt lat="43.4272696" lon="11.1766039"><ele>162.0</ele><time>2026-04-22T14:54:21.923Z</time></trkpt><trkpt lat="43.4272838" lon="11.1764809"><ele>162.0</ele><time>2026-04-22T14:54:24.951Z</time></trkpt><trkpt lat="43.4272959" lon="11.17638"><ele>162.0</ele><time>2026-04-22T14:54:26.94Z</time></trkpt><trkpt lat="43.4272938" lon="11.176241"><ele>162.0</ele><time>2026-04-22T14:54:29.943Z</time></trkpt><trkpt lat="43.4272992" lon="11.1761186"><ele>162.0</ele><time>2026-04-22T14:54:31.936Z</time></trkpt><trkpt lat="43.4272953" lon="11.1759863"><ele>162.0</ele><time>2026-04-22T14:54:33.95Z</time></trkpt><trkpt lat="43.4272992" lon="11.175861"><ele>162.0</ele><time>2026-04-22T14:54:35.958Z</time></trkpt><trkpt lat="43.4273041" lon="11.1757358"><ele>162.0</ele><time>2026-04-22T14:54:37.933Z</time></trkpt><trkpt lat="43.4273124" lon="11.1756066"><ele>162.0</ele><time>2026-04-22T14:54:39.949Z</time></trkpt><trkpt lat="43.4273543" lon="11.175497"><ele>162.0</ele><time>2026-04-22T14:54:41.943Z</time></trkpt><trkpt lat="43.4274124" lon="11.1754021"><ele>162.0</ele><time>2026-04-22T14:54:43.947Z</time></trkpt><trkpt lat="43.42748" lon="11.1753236"><ele>163.0</ele><time>2026-04-22T14:54:45.925Z</time></trkpt><trkpt lat="43.4275421" lon="11.1752824"><ele>164.0</ele><time>2026-04-22T14:54:47.938Z</time></trkpt><trkpt lat="43.4276185" lon="11.1752549"><ele>165.0</ele><time>2026-04-22T14:54:49.942Z</time></trkpt><trkpt lat="43.4276962" lon="11.1752248"><ele>166.0</ele><time>2026-04-22T14:54:51.957Z</time></trkpt><trkpt lat="43.4277683" lon="11.1751925"><ele>167.0</ele><time>2026-04-22T14:54:53.954Z</time></trkpt><trkpt lat="43.4278385" lon="11.1751668"><ele>168.0</ele><time>2026-04-22T14:54:55.948Z</time></trkpt><trkpt lat="43.4279002" lon="11.1751353"><ele>169.0</ele><time>2026-04-22T14:54:57.937Z</time></trkpt><trkpt lat="43.427967" lon="11.1751096"><ele>168.57142857142858</ele><time>2026-04-22T14:54:59.957Z</time></trkpt><trkpt lat="43.4280321" lon="11.1750872"><ele>168.14285714285714</ele><time>2026-04-22T14:55:01.947Z</time></trkpt><trkpt lat="43.4280958" lon="11.17506"><ele>167.71428571428572</ele><time>2026-04-22T14:55:03.944Z</time></trkpt><trkpt lat="43.4281553" lon="11.1750185"><ele>167.28571428571428</ele><time>2026-04-22T14:55:06.016Z</time></trkpt><trkpt lat="43.4282256" lon="11.1750005"><ele>166.85714285714286</ele><time>2026-04-22T14:55:08.956Z</time></trkpt><trkpt lat="43.4282917" lon="11.1749596"><ele>166.42857142857142</ele><time>2026-04-22T14:55:10.955Z</time></trkpt><trkpt lat="43.4283532" lon="11.1749161"><ele>166.0</ele><time>2026-04-22T14:55:12.955Z</time></trkpt><trkpt lat="43.4284236" lon="11.1748893"><ele>166.0</ele><time>2026-04-22T14:55:14.938Z</time></trkpt><trkpt lat="43.4284886" lon="11.1748557"><ele>166.0</ele><time>2026-04-22T14:55:16.945Z</time></trkpt><trkpt lat="43.4285578" lon="11.1748233"><ele>166.0</ele><time>2026-04-22T14:55:18.953Z</time></trkpt><trkpt lat="43.4286255" lon="11.1747883"><ele>166.0</ele><time>2026-04-22T14:55:20.95Z</time></trkpt><trkpt lat="43.4286931" lon="11.174757"><ele>166.0</ele><time>2026-04-22T14:55:22.951Z</time></trkpt><trkpt lat="43.4287572" lon="11.1747281"><ele>166.0</ele><time>2026-04-22T14:55:24.944Z</time></trkpt><trkpt lat="43.4288192" lon="11.1747074"><ele>166.0</ele><time>2026-04-22T14:55:26.939Z</time></trkpt><trkpt lat="43.4288893" lon="11.1746974"><ele>166.57142857142856</ele><time>2026-04-22T14:55:28.968Z</time></trkpt><trkpt lat="43.4289605" lon="11.1746984"><ele>167.14285714285717</ele><time>2026-04-22T14:55:30.951Z</time></trkpt><trkpt lat="43.4290339" lon="11.1747097"><ele>167.71428571428572</ele><time>2026-04-22T14:55:32.955Z</time></trkpt><trkpt lat="43.4291018" lon="11.1747365"><ele>168.28571428571428</ele><time>2026-04-22T14:55:34.955Z</time></trkpt><trkpt lat="43.4291665" lon="11.1747764"><ele>168.85714285714283</ele><time>2026-04-22T14:55:36.961Z</time></trkpt><trkpt lat="43.4292287" lon="11.1748277"><ele>169.42857142857144</ele><time>2026-04-22T14:55:38.928Z</time></trkpt><trkpt lat="43.4292857" lon="11.1748804"><ele>170.0</ele><time>2026-04-22T14:55:40.953Z</time></trkpt><trkpt lat="43.429347" lon="11.1749506"><ele>170.0</ele><time>2026-04-22T14:55:42.953Z</time></trkpt><trkpt lat="43.4294051" lon="11.1750313"><ele>170.0</ele><time>2026-04-22T14:55:44.953Z</time></trkpt><trkpt lat="43.42947" lon="11.1751099"><ele>170.0</ele><time>2026-04-22T14:55:46.957Z</time></trkpt><trkpt lat="43.429532" lon="11.1751918"><ele>170.0</ele><time>2026-04-22T14:55:48.944Z</time></trkpt><trkpt lat="43.4295988" lon="11.1752826"><ele>170.0</ele><time>2026-04-22T14:55:50.959Z</time></trkpt><trkpt lat="43.4296814" lon="11.1753747"><ele>169.0</ele><time>2026-04-22T14:55:52.947Z</time></trkpt><trkpt lat="43.4297596" lon="11.1754758"><ele>168.0</ele><time>2026-04-22T14:55:54.957Z</time></trkpt><trkpt lat="43.4298435" lon="11.1755633"><ele>167.0</ele><time>2026-04-22T14:55:56.965Z</time></trkpt><trkpt lat="43.4299332" lon="11.1756419"><ele>166.0</ele><time>2026-04-22T14:55:58.962Z</time></trkpt><trkpt lat="43.4300461" lon="11.1756839"><ele>165.0</ele><time>2026-04-22T14:56:00.963Z</time></trkpt><trkpt lat="43.4301647" lon="11.175652"><ele>165.0</ele><time>2026-04-22T14:56:02.944Z</time></trkpt><trkpt lat="43.4302729" lon="11.1755696"><ele>165.0</ele><time>2026-04-22T14:56:04.946Z</time></trkpt><trkpt lat="43.4303557" lon="11.175457"><ele>165.0</ele><time>2026-04-22T14:56:06.953Z</time></trkpt><trkpt lat="43.4304172" lon="11.1753094"><ele>165.0</ele><time>2026-04-22T14:56:08.95Z</time></trkpt><trkpt lat="43.4304471" lon="11.1752316"><ele>165.0</ele><time>2026-04-22T14:56:09.956Z</time></trkpt><trkpt lat="43.4305329" lon="11.1751035"><ele>164.4</ele><time>2026-04-22T14:56:11.952Z</time></trkpt><trkpt lat="43.4306491" lon="11.1750438"><ele>163.8</ele><time>2026-04-22T14:56:13.955Z</time></trkpt><trkpt lat="43.4307131" lon="11.1750299"><ele>163.2</ele><time>2026-04-22T14:56:14.952Z</time></trkpt><trkpt lat="43.4308331" lon="11.1749907"><ele>162.6</ele><time>2026-04-22T14:56:16.951Z</time></trkpt><trkpt lat="43.4309448" lon="11.1749906"><ele>162.0</ele><time>2026-04-22T14:56:18.964Z</time></trkpt><trkpt lat="43.4310512" lon="11.1750586"><ele>162.0</ele><time>2026-04-22T14:56:20.947Z</time></trkpt><trkpt lat="43.4311298" lon="11.175164"><ele>162.0</ele><time>2026-04-22T14:56:22.962Z</time></trkpt><trkpt lat="43.4311785" lon="11.175278"><ele>162.0</ele><time>2026-04-22T14:56:24.95Z</time></trkpt><trkpt lat="43.4312157" lon="11.175415"><ele>162.0</ele><time>2026-04-22T14:56:26.946Z</time></trkpt><trkpt lat="43.4312468" lon="11.1755552"><ele>162.0</ele><time>2026-04-22T14:56:28.953Z</time></trkpt><trkpt lat="43.4312835" lon="11.1756871"><ele>162.2</ele><time>2026-04-22T14:56:30.941Z</time></trkpt><trkpt lat="43.4313275" lon="11.1758009"><ele>162.39999999999998</ele><time>2026-04-22T14:56:32.951Z</time></trkpt><trkpt lat="43.4313755" lon="11.1759069"><ele>162.60000000000002</ele><time>2026-04-22T14:56:34.951Z</time></trkpt><trkpt lat="43.4314232" lon="11.1760088"><ele>162.8</ele><time>2026-04-22T14:56:36.946Z</time></trkpt><trkpt lat="43.4314817" lon="11.1761024"><ele>163.0</ele><time>2026-04-22T14:56:38.941Z</time></trkpt><trkpt lat="43.4315505" lon="11.1761883"><ele>163.0</ele><time>2026-04-22T14:56:40.929Z</time></trkpt><trkpt lat="43.431626" lon="11.1762672"><ele>163.0</ele><time>2026-04-22T14:56:42.961Z</time></trkpt><trkpt lat="43.4317031" lon="11.1763455"><ele>163.0</ele><time>2026-04-22T14:56:44.947Z</time></trkpt><trkpt lat="43.431783" lon="11.1764311"><ele>163.0</ele><time>2026-04-22T14:56:46.965Z</time></trkpt><trkpt lat="43.4318599" lon="11.1765118"><ele>163.0</ele><time>2026-04-22T14:56:48.958Z</time></trkpt><trkpt lat="43.4319371" lon="11.1765874"><ele>162.20000000000002</ele><time>2026-04-22T14:56:50.953Z</time></trkpt><trkpt lat="43.4320151" lon="11.1766742"><ele>161.4</ele><time>2026-04-22T14:56:52.947Z</time></trkpt><trkpt lat="43.4320933" lon="11.1767601"><ele>160.60000000000002</ele><time>2026-04-22T14:56:54.943Z</time></trkpt><trkpt lat="43.4321629" lon="11.1768443"><ele>159.8</ele><time>2026-04-22T14:56:56.951Z</time></trkpt><trkpt lat="43.4322398" lon="11.1769195"><ele>159.0</ele><time>2026-04-22T14:56:58.95Z</time></trkpt><trkpt lat="43.4323289" lon="11.1769808"><ele>159.0</ele><time>2026-04-22T14:57:00.956Z</time></trkpt><trkpt lat="43.432431" lon="11.1770345"><ele>159.0</ele><time>2026-04-22T14:57:02.948Z</time></trkpt><trkpt lat="43.4325278" lon="11.1770697"><ele>159.0</ele><time>2026-04-22T14:57:04.95Z</time></trkpt><trkpt lat="43.4326316" lon="11.1770679"><ele>159.0</ele><time>2026-04-22T14:57:06.963Z</time></trkpt><trkpt lat="43.4327417" lon="11.1770464"><ele>159.0</ele><time>2026-04-22T14:57:08.952Z</time></trkpt><trkpt lat="43.4328494" lon="11.1770128"><ele>159.0</ele><time>2026-04-22T14:57:10.992Z</time></trkpt><trkpt lat="43.4329502" lon="11.1769702"><ele>159.0</ele><time>2026-04-22T14:57:12.951Z</time></trkpt><trkpt lat="43.4330508" lon="11.1769225"><ele>159.0</ele><time>2026-04-22T14:57:14.945Z</time></trkpt><trkpt lat="43.4331528" lon="11.1768642"><ele>159.0</ele><time>2026-04-22T14:57:16.933Z</time></trkpt><trkpt lat="43.4332527" lon="11.1768074"><ele>159.0</ele><time>2026-04-22T14:57:18.951Z</time></trkpt><trkpt lat="43.4333572" lon="11.1767657"><ele>158.5</ele><time>2026-04-22T14:57:20.959Z</time></trkpt><trkpt lat="43.4334686" lon="11.1767171"><ele>158.0</ele><time>2026-04-22T14:57:22.954Z</time></trkpt><trkpt lat="43.433582" lon="11.1766622"><ele>157.5</ele><time>2026-04-22T14:57:24.965Z</time></trkpt><trkpt lat="43.4336944" lon="11.1766107"><ele>157.0</ele><time>2026-04-22T14:57:26.949Z</time></trkpt><trkpt lat="43.4338048" lon="11.1765606"><ele>157.4</ele><time>2026-04-22T14:57:28.962Z</time></trkpt><trkpt lat="43.4339071" lon="11.1765"><ele>157.79999999999998</ele><time>2026-04-22T14:57:30.957Z</time></trkpt><trkpt lat="43.4340012" lon="11.1764414"><ele>158.2</ele><time>2026-04-22T14:57:32.958Z</time></trkpt><trkpt lat="43.4340864" lon="11.1763836"><ele>158.6</ele><time>2026-04-22T14:57:34.944Z</time></trkpt><trkpt lat="43.4341698" lon="11.1763173"><ele>159.0</ele><time>2026-04-22T14:57:36.964Z</time></trkpt><trkpt lat="43.4342579" lon="11.1762483"><ele>159.0</ele><time>2026-04-22T14:57:38.95Z</time></trkpt><trkpt lat="43.434345" lon="11.176184"><ele>159.0</ele><time>2026-04-22T14:57:40.938Z</time></trkpt><trkpt lat="43.4344255" lon="11.176096"><ele>159.0</ele><time>2026-04-22T14:57:42.931Z</time></trkpt><trkpt lat="43.4345153" lon="11.1759956"><ele>159.0</ele><time>2026-04-22T14:57:44.93Z</time></trkpt><trkpt lat="43.4346139" lon="11.1758975"><ele>159.0</ele><time>2026-04-22T14:57:46.959Z</time></trkpt><trkpt lat="43.4347073" lon="11.1757858"><ele>158.57142857142856</ele><time>2026-04-22T14:57:48.954Z</time></trkpt><trkpt lat="43.4347627" lon="11.1757317"><ele>158.14285714285717</ele><time>2026-04-22T14:57:49.931Z</time></trkpt><trkpt lat="43.4348184" lon="11.1756693"><ele>157.71428571428572</ele><time>2026-04-22T14:57:50.947Z</time></trkpt><trkpt lat="43.4348703" lon="11.175603"><ele>157.28571428571428</ele><time>2026-04-22T14:57:51.953Z</time></trkpt><trkpt lat="43.4349208" lon="11.175536"><ele>156.85714285714283</ele><time>2026-04-22T14:57:52.969Z</time></trkpt><trkpt lat="43.4349735" lon="11.1754744"><ele>156.42857142857144</ele><time>2026-04-22T14:57:53.959Z</time></trkpt><trkpt lat="43.4350298" lon="11.1754113"><ele>156.0</ele><time>2026-04-22T14:57:54.961Z</time></trkpt><trkpt lat="43.435088" lon="11.1753471"><ele>155.85714285714286</ele><time>2026-04-22T14:57:55.961Z</time></trkpt><trkpt lat="43.4351438" lon="11.1752798"><ele>155.7142857142857</ele><time>2026-04-22T14:57:56.964Z</time></trkpt><trkpt lat="43.4351961" lon="11.1752095"><ele>155.57142857142856</ele><time>2026-04-22T14:57:57.948Z</time></trkpt><trkpt lat="43.4352467" lon="11.1751368"><ele>155.42857142857144</ele><time>2026-04-22T14:57:58.943Z</time></trkpt><trkpt lat="43.4352998" lon="11.1750649"><ele>155.28571428571428</ele><time>2026-04-22T14:57:59.95Z</time></trkpt><trkpt lat="43.4353518" lon="11.1749925"><ele>155.14285714285714</ele><time>2026-04-22T14:58:00.946Z</time></trkpt><trkpt lat="43.4354041" lon="11.1749226"><ele>155.0</ele><time>2026-04-22T14:58:01.953Z</time></trkpt><trkpt lat="43.4354543" lon="11.1748549"><ele>154.85714285714286</ele><time>2026-04-22T14:58:02.944Z</time></trkpt><trkpt lat="43.435504" lon="11.1747881"><ele>154.71428571428572</ele><time>2026-04-22T14:58:03.951Z</time></trkpt><trkpt lat="43.4355534" lon="11.174723"><ele>154.57142857142856</ele><time>2026-04-22T14:58:04.952Z</time></trkpt><trkpt lat="43.4356008" lon="11.1746605"><ele>154.42857142857144</ele><time>2026-04-22T14:58:05.955Z</time></trkpt><trkpt lat="43.4356494" lon="11.1745964"><ele>154.28571428571428</ele><time>2026-04-22T14:58:06.958Z</time></trkpt><trkpt lat="43.4356963" lon="11.1745308"><ele>154.14285714285714</ele><time>2026-04-22T14:58:07.954Z</time></trkpt><trkpt lat="43.4357444" lon="11.1744636"><ele>154.0</ele><time>2026-04-22T14:58:08.933Z</time></trkpt><trkpt lat="43.4357979" lon="11.174398"><ele>154.0</ele><time>2026-04-22T14:58:09.968Z</time></trkpt><trkpt lat="43.4358514" lon="11.1743338"><ele>154.0</ele><time>2026-04-22T14:58:10.946Z</time></trkpt><trkpt lat="43.435907" lon="11.1742711"><ele>154.0</ele><time>2026-04-22T14:58:11.948Z</time></trkpt><trkpt lat="43.4359614" lon="11.1742052"><ele>154.0</ele><time>2026-04-22T14:58:12.949Z</time></trkpt><trkpt lat="43.4360162" lon="11.1741382"><ele>154.0</ele><time>2026-04-22T14:58:13.955Z</time></trkpt><trkpt lat="43.4360707" lon="11.1740668"><ele>154.0</ele><time>2026-04-22T14:58:14.952Z</time></trkpt><trkpt lat="43.4361238" lon="11.1739933"><ele>154.0</ele><time>2026-04-22T14:58:15.949Z</time></trkpt><trkpt lat="43.4361758" lon="11.1739159"><ele>154.0</ele><time>2026-04-22T14:58:16.97Z</time></trkpt><trkpt lat="43.4362298" lon="11.1738401"><ele>154.0</ele><time>2026-04-22T14:58:17.946Z</time></trkpt><trkpt lat="43.4362894" lon="11.1737659"><ele>154.0</ele><time>2026-04-22T14:58:18.951Z</time></trkpt><trkpt lat="43.4363512" lon="11.1736936"><ele>154.0</ele><time>2026-04-22T14:58:19.951Z</time></trkpt><trkpt lat="43.4364147" lon="11.1736181"><ele>154.0</ele><time>2026-04-22T14:58:20.96Z</time></trkpt><trkpt lat="43.4364782" lon="11.1735402"><ele>154.0</ele><time>2026-04-22T14:58:21.953Z</time></trkpt><trkpt lat="43.4365433" lon="11.1734564"><ele>152.8</ele><time>2026-04-22T14:58:22.961Z</time></trkpt><trkpt lat="43.4366098" lon="11.1733688"><ele>151.60000000000002</ele><time>2026-04-22T14:58:23.946Z</time></trkpt><trkpt lat="43.4366764" lon="11.1732785"><ele>150.4</ele><time>2026-04-22T14:58:24.95Z</time></trkpt><trkpt lat="43.4367422" lon="11.1731886"><ele>149.20000000000002</ele><time>2026-04-22T14:58:25.936Z</time></trkpt><trkpt lat="43.4368067" lon="11.1730999"><ele>148.0</ele><time>2026-04-22T14:58:26.955Z</time></trkpt><trkpt lat="43.4368734" lon="11.1730153"><ele>148.0</ele><time>2026-04-22T14:58:27.935Z</time></trkpt><trkpt lat="43.4369427" lon="11.1729343"><ele>148.0</ele><time>2026-04-22T14:58:28.946Z</time></trkpt><trkpt lat="43.4370124" lon="11.172857"><ele>148.0</ele><time>2026-04-22T14:58:29.952Z</time></trkpt><trkpt lat="43.4370802" lon="11.1727816"><ele>148.0</ele><time>2026-04-22T14:58:30.943Z</time></trkpt><trkpt lat="43.4371434" lon="11.1727048"><ele>148.0</ele><time>2026-04-22T14:58:31.945Z</time></trkpt><trkpt lat="43.4372037" lon="11.1726272"><ele>148.0</ele><time>2026-04-22T14:58:32.948Z</time></trkpt><trkpt lat="43.4372606" lon="11.172549"><ele>147.66666666666669</ele><time>2026-04-22T14:58:33.951Z</time></trkpt><trkpt lat="43.4373126" lon="11.1724721"><ele>147.33333333333334</ele><time>2026-04-22T14:58:34.945Z</time></trkpt><trkpt lat="43.4373607" lon="11.1723921"><ele>147.0</ele><time>2026-04-22T14:58:35.953Z</time></trkpt><trkpt lat="43.4374044" lon="11.172308"><ele>146.66666666666666</ele><time>2026-04-22T14:58:36.956Z</time></trkpt><trkpt lat="43.437448" lon="11.1722225"><ele>146.33333333333331</ele><time>2026-04-22T14:58:37.942Z</time></trkpt><trkpt lat="43.4374913" lon="11.172137"><ele>146.0</ele><time>2026-04-22T14:58:38.941Z</time></trkpt><trkpt lat="43.4375355" lon="11.1720536"><ele>146.0</ele><time>2026-04-22T14:58:39.952Z</time></trkpt><trkpt lat="43.4375736" lon="11.1719698"><ele>146.0</ele><time>2026-04-22T14:58:40.945Z</time></trkpt><trkpt lat="43.4376037" lon="11.1718865"><ele>146.0</ele><time>2026-04-22T14:58:41.949Z</time></trkpt><trkpt lat="43.4376239" lon="11.171797"><ele>146.0</ele><time>2026-04-22T14:58:42.96Z</time></trkpt><trkpt lat="43.4376343" lon="11.1717056"><ele>146.0</ele><time>2026-04-22T14:58:43.958Z</time></trkpt><trkpt lat="43.4376424" lon="11.1716132"><ele>146.0</ele><time>2026-04-22T14:58:44.96Z</time></trkpt><trkpt lat="43.4376522" lon="11.1715222"><ele>146.0</ele><time>2026-04-22T14:58:45.958Z</time></trkpt><trkpt lat="43.4376641" lon="11.1714302"><ele>145.85714285714286</ele><time>2026-04-22T14:58:46.949Z</time></trkpt><trkpt lat="43.4376796" lon="11.171341"><ele>145.71428571428572</ele><time>2026-04-22T14:58:47.945Z</time></trkpt><trkpt lat="43.4376927" lon="11.1712531"><ele>145.57142857142858</ele><time>2026-04-22T14:58:48.951Z</time></trkpt><trkpt lat="43.4377012" lon="11.1711616"><ele>145.42857142857144</ele><time>2026-04-22T14:58:49.945Z</time></trkpt><trkpt lat="43.4377081" lon="11.1710687"><ele>145.2857142857143</ele><time>2026-04-22T14:58:50.956Z</time></trkpt><trkpt lat="43.437718" lon="11.1709764"><ele>145.14285714285714</ele><time>2026-04-22T14:58:51.961Z</time></trkpt><trkpt lat="43.4377302" lon="11.1708832"><ele>145.0</ele><time>2026-04-22T14:58:52.947Z</time></trkpt><trkpt lat="43.4377436" lon="11.1707867"><ele>144.71428571428572</ele><time>2026-04-22T14:58:53.955Z</time></trkpt><trkpt lat="43.4377597" lon="11.1706892"><ele>144.42857142857144</ele><time>2026-04-22T14:58:54.947Z</time></trkpt><trkpt lat="43.4377728" lon="11.1705953"><ele>144.14285714285714</ele><time>2026-04-22T14:58:55.959Z</time></trkpt><trkpt lat="43.4377878" lon="11.1705004"><ele>143.85714285714286</ele><time>2026-04-22T14:58:56.947Z</time></trkpt><trkpt lat="43.4377995" lon="11.1704025"><ele>143.57142857142856</ele><time>2026-04-22T14:58:57.953Z</time></trkpt><trkpt lat="43.4378092" lon="11.1703055"><ele>143.28571428571428</ele><time>2026-04-22T14:58:58.952Z</time></trkpt><trkpt lat="43.4378215" lon="11.1702076"><ele>143.0</ele><time>2026-04-22T14:58:59.941Z</time></trkpt><trkpt lat="43.4378329" lon="11.1701073"><ele>143.0</ele><time>2026-04-22T14:59:00.947Z</time></trkpt><trkpt lat="43.4378471" lon="11.1700098"><ele>143.0</ele><time>2026-04-22T14:59:01.944Z</time></trkpt><trkpt lat="43.4378641" lon="11.1699169"><ele>143.0</ele><time>2026-04-22T14:59:02.947Z</time></trkpt><trkpt lat="43.4378829" lon="11.1698278"><ele>143.0</ele><time>2026-04-22T14:59:03.947Z</time></trkpt><trkpt lat="43.4379057" lon="11.1696698"><ele>143.0</ele><time>2026-04-22T14:59:05.953Z</time></trkpt><trkpt lat="43.4378532" lon="11.1695645"><ele>143.0</ele><time>2026-04-22T14:59:07.948Z</time></trkpt><trkpt lat="43.4377597" lon="11.1695153"><ele>142.0</ele><time>2026-04-22T14:59:09.946Z</time></trkpt><trkpt lat="43.4376739" lon="11.1694972"><ele>141.0</ele><time>2026-04-22T14:59:11.949Z</time></trkpt><trkpt lat="43.437571" lon="11.1694645"><ele>140.0</ele><time>2026-04-22T14:59:13.94Z</time></trkpt><trkpt lat="43.4374742" lon="11.1694238"><ele>139.0</ele><time>2026-04-22T14:59:15.943Z</time></trkpt><trkpt lat="43.4373907" lon="11.1693862"><ele>138.0</ele><time>2026-04-22T14:59:17.961Z</time></trkpt><trkpt lat="43.4373091" lon="11.1693552"><ele>138.0</ele><time>2026-04-22T14:59:19.956Z</time></trkpt><trkpt lat="43.437224" lon="11.1693222"><ele>138.0</ele><time>2026-04-22T14:59:21.958Z</time></trkpt><trkpt lat="43.437141" lon="11.1692873"><ele>138.0</ele><time>2026-04-22T14:59:23.947Z</time></trkpt><trkpt lat="43.4370567" lon="11.169241"><ele>138.0</ele><time>2026-04-22T14:59:25.951Z</time></trkpt><trkpt lat="43.4369692" lon="11.1692077"><ele>138.0</ele><time>2026-04-22T14:59:27.94Z</time></trkpt><trkpt lat="43.4368838" lon="11.1691795"><ele>138.0</ele><time>2026-04-22T14:59:29.948Z</time></trkpt><trkpt lat="43.4368032" lon="11.1691699"><ele>138.5</ele><time>2026-04-22T14:59:31.956Z</time></trkpt><trkpt lat="43.4367136" lon="11.1691693"><ele>139.0</ele><time>2026-04-22T14:59:33.945Z</time></trkpt><trkpt lat="43.4366329" lon="11.1691637"><ele>139.5</ele><time>2026-04-22T14:59:35.948Z</time></trkpt><trkpt lat="43.4365727" lon="11.1691302"><ele>140.0</ele><time>2026-04-22T14:59:37.937Z</time></trkpt><trkpt lat="43.4365379" lon="11.1690516"><ele>140.5</ele><time>2026-04-22T14:59:39.943Z</time></trkpt><trkpt lat="43.4365367" lon="11.1689492"><ele>141.0</ele><time>2026-04-22T14:59:41.959Z</time></trkpt><trkpt lat="43.4365379" lon="11.1688427"><ele>141.0</ele><time>2026-04-22T14:59:43.952Z</time></trkpt><trkpt lat="43.436546" lon="11.1687258"><ele>141.0</ele><time>2026-04-22T14:59:45.947Z</time></trkpt><trkpt lat="43.4365613" lon="11.1686047"><ele>141.0</ele><time>2026-04-22T14:59:47.953Z</time></trkpt><trkpt lat="43.4365656" lon="11.1684833"><ele>141.0</ele><time>2026-04-22T14:59:49.952Z</time></trkpt><trkpt lat="43.4365476" lon="11.1683726"><ele>141.0</ele><time>2026-04-22T14:59:51.945Z</time></trkpt><trkpt lat="43.4365009" lon="11.1682813"><ele>141.0</ele><time>2026-04-22T14:59:53.949Z</time></trkpt><trkpt lat="43.4364339" lon="11.1681977"><ele>140.16666666666666</ele><time>2026-04-22T14:59:55.945Z</time></trkpt><trkpt lat="43.436374" lon="11.1681239"><ele>139.33333333333334</ele><time>2026-04-22T14:59:57.946Z</time></trkpt><trkpt lat="43.4363324" lon="11.1680568"><ele>138.5</ele><time>2026-04-22T14:59:59.953Z</time></trkpt><trkpt lat="43.4362876" lon="11.1679934"><ele>137.66666666666669</ele><time>2026-04-22T15:00:01.956Z</time></trkpt><trkpt lat="43.4362326" lon="11.1679249"><ele>136.83333333333334</ele><time>2026-04-22T15:00:04.947Z</time></trkpt><trkpt lat="43.4361842" lon="11.1678387"><ele>136.0</ele><time>2026-04-22T15:00:07.949Z</time></trkpt><trkpt lat="43.4361148" lon="11.1677521"><ele>137.66666666666669</ele><time>2026-04-22T15:00:10.949Z</time></trkpt><trkpt lat="43.436052" lon="11.1676794"><ele>139.33333333333334</ele><time>2026-04-22T15:00:13.956Z</time></trkpt><trkpt lat="43.4359964" lon="11.1676007"><ele>141.0</ele><time>2026-04-22T15:00:16.959Z</time></trkpt><trkpt lat="43.4359273" lon="11.1675161"><ele>142.66666666666666</ele><time>2026-04-22T15:00:19.95Z</time></trkpt><trkpt lat="43.4358573" lon="11.1674322"><ele>144.33333333333331</ele><time>2026-04-22T15:00:22.944Z</time></trkpt><trkpt lat="43.4357885" lon="11.1673553"><ele>146.0</ele><time>2026-04-22T15:00:25.959Z</time></trkpt><trkpt lat="43.4357293" lon="11.1672792"><ele>146.0</ele><time>2026-04-22T15:00:28.946Z</time></trkpt><trkpt lat="43.4356581" lon="11.1671992"><ele>146.0</ele><time>2026-04-22T15:00:31.946Z</time></trkpt><trkpt lat="43.43559" lon="11.1671222"><ele>146.0</ele><time>2026-04-22T15:00:34.952Z</time></trkpt><trkpt lat="43.4355271" lon="11.1670414"><ele>146.0</ele><time>2026-04-22T15:00:37.945Z</time></trkpt><trkpt lat="43.4354635" lon="11.1669691"><ele>146.0</ele><time>2026-04-22T15:00:40.941Z</time></trkpt><trkpt lat="43.435403" lon="11.1668884"><ele>146.0</ele><time>2026-04-22T15:00:43.944Z</time></trkpt><trkpt lat="43.4353526" lon="11.1668187"><ele>147.71428571428572</ele><time>2026-04-22T15:00:46.953Z</time></trkpt><trkpt lat="43.4353013" lon="11.1667539"><ele>149.42857142857144</ele><time>2026-04-22T15:00:49.946Z</time></trkpt><trkpt lat="43.4352472" lon="11.1666742"><ele>151.14285714285717</ele><time>2026-04-22T15:00:53.942Z</time></trkpt><trkpt lat="43.4352025" lon="11.1666088"><ele>152.85714285714286</ele><time>2026-04-22T15:00:56.949Z</time></trkpt><trkpt lat="43.4351406" lon="11.1665446"><ele>154.57142857142858</ele><time>2026-04-22T15:01:00.954Z</time></trkpt><trkpt lat="43.4350801" lon="11.166494"><ele>156.2857142857143</ele><time>2026-04-22T15:01:04.948Z</time></trkpt><trkpt lat="43.435008" lon="11.1664891"><ele>158.0</ele><time>2026-04-22T15:01:08.952Z</time></trkpt><trkpt lat="43.4349331" lon="11.1665056"><ele>158.14285714285717</ele><time>2026-04-22T15:01:12.946Z</time></trkpt><trkpt lat="43.4348629" lon="11.1665366"><ele>158.28571428571428</ele><time>2026-04-22T15:01:16.951Z</time></trkpt><trkpt lat="43.4347896" lon="11.166578"><ele>158.42857142857144</ele><time>2026-04-22T15:01:21.944Z</time></trkpt><trkpt lat="43.4347305" lon="11.1666127"><ele>158.57142857142858</ele><time>2026-04-22T15:01:25.95Z</time></trkpt><trkpt lat="43.4346659" lon="11.1666454"><ele>158.71428571428572</ele><time>2026-04-22T15:01:29.946Z</time></trkpt><trkpt lat="43.4345938" lon="11.1666925"><ele>158.85714285714286</ele><time>2026-04-22T15:01:33.948Z</time></trkpt><trkpt lat="43.4345227" lon="11.1667259"><ele>159.0</ele><time>2026-04-22T15:01:37.951Z</time></trkpt><trkpt lat="43.4344537" lon="11.166746"><ele>160.14285714285714</ele><time>2026-04-22T15:01:41.94Z</time></trkpt><trkpt lat="43.4343841" lon="11.1667471"><ele>161.2857142857143</ele><time>2026-04-22T15:01:45.952Z</time></trkpt><trkpt lat="43.4343206" lon="11.1667452"><ele>162.42857142857144</ele><time>2026-04-22T15:01:49.953Z</time></trkpt><trkpt lat="43.4342803" lon="11.1666696"><ele>163.57142857142856</ele><time>2026-04-22T15:01:54.935Z</time></trkpt><trkpt lat="43.4342633" lon="11.1665612"><ele>164.71428571428572</ele><time>2026-04-22T15:01:58.946Z</time></trkpt><trkpt lat="43.434244" lon="11.1664638"><ele>165.85714285714286</ele><time>2026-04-22T15:02:00.958Z</time></trkpt><trkpt lat="43.4342227" lon="11.1663637"><ele>167.0</ele><time>2026-04-22T15:02:02.945Z</time></trkpt><trkpt lat="43.4341819" lon="11.166246"><ele>167.0</ele><time>2026-04-22T15:02:04.955Z</time></trkpt><trkpt lat="43.4341354" lon="11.166103"><ele>167.0</ele><time>2026-04-22T15:02:06.953Z</time></trkpt><trkpt lat="43.4340964" lon="11.1659347"><ele>167.0</ele><time>2026-04-22T15:02:08.954Z</time></trkpt><trkpt lat="43.4340776" lon="11.1658427"><ele>167.0</ele><time>2026-04-22T15:02:09.932Z</time></trkpt><trkpt lat="43.4340678" lon="11.1657495"><ele>167.0</ele><time>2026-04-22T15:02:10.949Z</time></trkpt><trkpt lat="43.4340675" lon="11.1656582"><ele>167.0</ele><time>2026-04-22T15:02:11.944Z</time></trkpt><trkpt lat="43.4340699" lon="11.1655675"><ele>166.0</ele><time>2026-04-22T15:02:12.952Z</time></trkpt><trkpt lat="43.4340718" lon="11.1654793"><ele>165.0</ele><time>2026-04-22T15:02:13.945Z</time></trkpt><trkpt lat="43.4340758" lon="11.1653877"><ele>164.0</ele><time>2026-04-22T15:02:14.94Z</time></trkpt><trkpt lat="43.434085" lon="11.165297"><ele>163.0</ele><time>2026-04-22T15:02:15.948Z</time></trkpt><trkpt lat="43.434098" lon="11.1652053"><ele>162.0</ele><time>2026-04-22T15:02:16.955Z</time></trkpt><trkpt lat="43.4341081" lon="11.165112"><ele>161.0</ele><time>2026-04-22T15:02:17.966Z</time></trkpt><trkpt lat="43.4341149" lon="11.165013"><ele>160.0</ele><time>2026-04-22T15:02:18.951Z</time></trkpt><trkpt lat="43.4341175" lon="11.1649129"><ele>159.83333333333334</ele><time>2026-04-22T15:02:19.942Z</time></trkpt><trkpt lat="43.4341174" lon="11.1648092"><ele>159.66666666666669</ele><time>2026-04-22T15:02:20.945Z</time></trkpt><trkpt lat="43.434121" lon="11.1647064"><ele>159.5</ele><time>2026-04-22T15:02:21.955Z</time></trkpt><trkpt lat="43.4341269" lon="11.1646039"><ele>159.33333333333334</ele><time>2026-04-22T15:02:22.944Z</time></trkpt><trkpt lat="43.4341302" lon="11.1644956"><ele>159.16666666666666</ele><time>2026-04-22T15:02:23.956Z</time></trkpt><trkpt lat="43.4341347" lon="11.1643863"><ele>159.0</ele><time>2026-04-22T15:02:24.953Z</time></trkpt><trkpt lat="43.4341417" lon="11.1642769"><ele>159.0</ele><time>2026-04-22T15:02:25.942Z</time></trkpt><trkpt lat="43.4341494" lon="11.1641696"><ele>159.0</ele><time>2026-04-22T15:02:26.947Z</time></trkpt><trkpt lat="43.4341566" lon="11.1640632"><ele>159.0</ele><time>2026-04-22T15:02:27.95Z</time></trkpt><trkpt lat="43.434163" lon="11.16396"><ele>159.0</ele><time>2026-04-22T15:02:28.947Z</time></trkpt><trkpt lat="43.4341706" lon="11.1638563"><ele>159.0</ele><time>2026-04-22T15:02:29.956Z</time></trkpt><trkpt lat="43.4341794" lon="11.1637558"><ele>159.0</ele><time>2026-04-22T15:02:30.948Z</time></trkpt><trkpt lat="43.4341852" lon="11.1636571"><ele>158.83333333333334</ele><time>2026-04-22T15:02:31.958Z</time></trkpt><trkpt lat="43.4341813" lon="11.1635687"><ele>158.66666666666666</ele><time>2026-04-22T15:02:32.939Z</time></trkpt><trkpt lat="43.4341562" lon="11.1634231"><ele>158.5</ele><time>2026-04-22T15:02:34.924Z</time></trkpt><trkpt lat="43.4341034" lon="11.1633019"><ele>158.33333333333331</ele><time>2026-04-22T15:02:36.953Z</time></trkpt><trkpt lat="43.4340363" lon="11.163192"><ele>158.16666666666666</ele><time>2026-04-22T15:02:38.941Z</time></trkpt><trkpt lat="43.4340061" lon="11.1631061"><ele>158.0</ele><time>2026-04-22T15:02:40.943Z</time></trkpt><trkpt lat="43.4340446" lon="11.1629773"><ele>158.0</ele><time>2026-04-22T15:02:42.943Z</time></trkpt><trkpt lat="43.4340961" lon="11.1628224"><ele>158.0</ele><time>2026-04-22T15:02:44.944Z</time></trkpt><trkpt lat="43.434127" lon="11.1627437"><ele>158.0</ele><time>2026-04-22T15:02:45.948Z</time></trkpt><trkpt lat="43.4341562" lon="11.1626656"><ele>158.0</ele><time>2026-04-22T15:02:46.947Z</time></trkpt><trkpt lat="43.4341997" lon="11.1625362"><ele>158.0</ele><time>2026-04-22T15:02:48.946Z</time></trkpt><trkpt lat="43.4342321" lon="11.1624511"><ele>158.0</ele><time>2026-04-22T15:02:50.955Z</time></trkpt><trkpt lat="43.4342657" lon="11.1623669"><ele>159.33333333333331</ele><time>2026-04-22T15:02:52.936Z</time></trkpt><trkpt lat="43.4342799" lon="11.1622703"><ele>160.66666666666666</ele><time>2026-04-22T15:02:54.95Z</time></trkpt><trkpt lat="43.4342569" lon="11.1621343"><ele>162.0</ele><time>2026-04-22T15:02:56.946Z</time></trkpt><trkpt lat="43.4342404" lon="11.1619997"><ele>163.33333333333334</ele><time>2026-04-22T15:02:58.962Z</time></trkpt><trkpt lat="43.4342266" lon="11.161884"><ele>164.66666666666669</ele><time>2026-04-22T15:03:00.948Z</time></trkpt><trkpt lat="43.4341939" lon="11.1618042"><ele>166.0</ele><time>2026-04-22T15:03:02.939Z</time></trkpt><trkpt lat="43.4341437" lon="11.1617388"><ele>166.0</ele><time>2026-04-22T15:03:05.944Z</time></trkpt><trkpt lat="43.4340858" lon="11.161687"><ele>166.0</ele><time>2026-04-22T15:03:09.953Z</time></trkpt><trkpt lat="43.434032" lon="11.16162"><ele>166.0</ele><time>2026-04-22T15:03:14.943Z</time></trkpt><trkpt lat="43.433998" lon="11.1615352"><ele>166.0</ele><time>2026-04-22T15:03:20.953Z</time></trkpt><trkpt lat="43.4339713" lon="11.1614333"><ele>166.0</ele><time>2026-04-22T15:03:26.948Z</time></trkpt><trkpt lat="43.4339472" lon="11.1613478"><ele>166.0</ele><time>2026-04-22T15:03:31.947Z</time></trkpt><trkpt lat="43.4339124" lon="11.1612614"><ele>166.0</ele><time>2026-04-22T15:03:37.953Z</time></trkpt><trkpt lat="43.4338604" lon="11.1611826"><ele>166.28571428571428</ele><time>2026-04-22T15:03:43.953Z</time></trkpt><trkpt lat="43.4338265" lon="11.1611089"><ele>166.57142857142858</ele><time>2026-04-22T15:03:47.944Z</time></trkpt><trkpt lat="43.4337812" lon="11.1610186"><ele>166.85714285714286</ele><time>2026-04-22T15:03:52.936Z</time></trkpt><trkpt lat="43.4337568" lon="11.1609344"><ele>167.14285714285714</ele><time>2026-04-22T15:03:57.941Z</time></trkpt><trkpt lat="43.4337687" lon="11.1608482"><ele>167.42857142857144</ele><time>2026-04-22T15:04:02.951Z</time></trkpt><trkpt lat="43.4338236" lon="11.1607894"><ele>167.71428571428572</ele><time>2026-04-22T15:04:07.939Z</time></trkpt><trkpt lat="43.4338925" lon="11.1607543"><ele>168.0</ele><time>2026-04-22T15:04:12.95Z</time></trkpt><trkpt lat="43.4339489" lon="11.1607156"><ele>168.33333333333334</ele><time>2026-04-22T15:04:16.935Z</time></trkpt><trkpt lat="43.4340191" lon="11.1606675"><ele>168.66666666666666</ele><time>2026-04-22T15:04:20.94Z</time></trkpt><trkpt lat="43.4340694" lon="11.1605801"><ele>169.0</ele><time>2026-04-22T15:04:24.962Z</time></trkpt><trkpt lat="43.434096" lon="11.1604857"><ele>169.33333333333331</ele><time>2026-04-22T15:04:27.95Z</time></trkpt><trkpt lat="43.4341185" lon="11.1603701"><ele>169.66666666666666</ele><time>2026-04-22T15:04:30.94Z</time></trkpt><trkpt lat="43.4341282" lon="11.160246"><ele>170.0</ele><time>2026-04-22T15:04:33.939Z</time></trkpt><trkpt lat="43.4341438" lon="11.1601261"><ele>170.0</ele><time>2026-04-22T15:04:36.939Z</time></trkpt><trkpt lat="43.4341607" lon="11.1600383"><ele>170.0</ele><time>2026-04-22T15:04:38.949Z</time></trkpt><trkpt lat="43.4341959" lon="11.1599202"><ele>170.0</ele><time>2026-04-22T15:04:40.939Z</time></trkpt><trkpt lat="43.4342269" lon="11.1598405"><ele>170.0</ele><time>2026-04-22T15:04:41.94Z</time></trkpt><trkpt lat="43.4342546" lon="11.1597564"><ele>170.0</ele><time>2026-04-22T15:04:42.947Z</time></trkpt><trkpt lat="43.4342834" lon="11.1596769"><ele>170.0</ele><time>2026-04-22T15:04:43.95Z</time></trkpt><trkpt lat="43.4343319" lon="11.1595132"><ele>171.66666666666666</ele><time>2026-04-22T15:04:45.948Z</time></trkpt><trkpt lat="43.4343518" lon="11.1594202"><ele>173.33333333333331</ele><time>2026-04-22T15:04:46.948Z</time></trkpt><trkpt lat="43.4343703" lon="11.159322"><ele>175.0</ele><time>2026-04-22T15:04:47.937Z</time></trkpt><trkpt lat="43.434389" lon="11.1592338"><ele>176.66666666666666</ele><time>2026-04-22T15:04:48.94Z</time></trkpt><trkpt lat="43.4344349" lon="11.1590757"><ele>178.33333333333334</ele><time>2026-04-22T15:04:50.938Z</time></trkpt><trkpt lat="43.4344608" lon="11.1589966"><ele>180.0</ele><time>2026-04-22T15:04:51.95Z</time></trkpt><trkpt lat="43.4345093" lon="11.1588685"><ele>181.5</ele><time>2026-04-22T15:04:53.942Z</time></trkpt><trkpt lat="43.4345577" lon="11.1587284"><ele>183.0</ele><time>2026-04-22T15:04:55.944Z</time></trkpt><trkpt lat="43.4345801" lon="11.1586473"><ele>184.5</ele><time>2026-04-22T15:04:56.944Z</time></trkpt><trkpt lat="43.4346007" lon="11.1585611"><ele>186.0</ele><time>2026-04-22T15:04:57.937Z</time></trkpt><trkpt lat="43.4346224" lon="11.1584756"><ele>187.5</ele><time>2026-04-22T15:04:58.951Z</time></trkpt><trkpt lat="43.4346465" lon="11.1583904"><ele>189.0</ele><time>2026-04-22T15:04:59.945Z</time></trkpt><trkpt lat="43.4347115" lon="11.1582454"><ele>184.33333333333334</ele><time>2026-04-22T15:05:01.942Z</time></trkpt><trkpt lat="43.4347681" lon="11.1580969"><ele>179.66666666666666</ele><time>2026-04-22T15:05:03.949Z</time></trkpt><trkpt lat="43.434789" lon="11.1579361"><ele>175.0</ele><time>2026-04-22T15:05:05.94Z</time></trkpt><trkpt lat="43.4348073" lon="11.1578496"><ele>170.33333333333331</ele><time>2026-04-22T15:05:06.94Z</time></trkpt><trkpt lat="43.4348358" lon="11.1577618"><ele>165.66666666666666</ele><time>2026-04-22T15:05:07.945Z</time></trkpt><trkpt lat="43.4348622" lon="11.1576697"><ele>161.0</ele><time>2026-04-22T15:05:08.92Z</time></trkpt><trkpt lat="43.434886" lon="11.1575731"><ele>161.0</ele><time>2026-04-22T15:05:09.922Z</time></trkpt><trkpt lat="43.434911" lon="11.1574762"><ele>161.0</ele><time>2026-04-22T15:05:10.947Z</time></trkpt><trkpt lat="43.4349399" lon="11.1573822"><ele>161.0</ele><time>2026-04-22T15:05:11.931Z</time></trkpt><trkpt lat="43.4349654" lon="11.1572888"><ele>161.0</ele><time>2026-04-22T15:05:12.913Z</time></trkpt><trkpt lat="43.4349866" lon="11.1571985"><ele>161.0</ele><time>2026-04-22T15:05:13.922Z</time></trkpt><trkpt lat="43.4350037" lon="11.157111"><ele>161.0</ele><time>2026-04-22T15:05:14.935Z</time></trkpt><trkpt lat="43.435034" lon="11.1569541"><ele>163.33333333333331</ele><time>2026-04-22T15:05:17.031Z</time></trkpt><trkpt lat="43.435034" lon="11.1568011"><ele>165.66666666666666</ele><time>2026-04-22T15:05:18.925Z</time></trkpt><trkpt lat="43.4350416" lon="11.156691"><ele>168.0</ele><time>2026-04-22T15:05:21.015Z</time></trkpt><trkpt lat="43.435071" lon="11.1565728"><ele>170.33333333333334</ele><time>2026-04-22T15:05:23.949Z</time></trkpt><trkpt lat="43.4351259" lon="11.1564746"><ele>172.66666666666669</ele><time>2026-04-22T15:05:26.94Z</time></trkpt><trkpt lat="43.4351611" lon="11.1563963"><ele>175.0</ele><time>2026-04-22T15:05:28.93Z</time></trkpt><trkpt lat="43.4352065" lon="11.1563173"><ele>173.66666666666669</ele><time>2026-04-22T15:05:30.922Z</time></trkpt><trkpt lat="43.4352609" lon="11.1562438"><ele>172.33333333333334</ele><time>2026-04-22T15:05:33.009Z</time></trkpt><trkpt lat="43.4352897" lon="11.1561345"><ele>171.0</ele><time>2026-04-22T15:05:34.945Z</time></trkpt><trkpt lat="43.4353321" lon="11.1560153"><ele>169.66666666666666</ele><time>2026-04-22T15:05:36.94Z</time></trkpt><trkpt lat="43.4353858" lon="11.1559122"><ele>168.33333333333331</ele><time>2026-04-22T15:05:38.941Z</time></trkpt><trkpt lat="43.435435" lon="11.1557971"><ele>167.0</ele><time>2026-04-22T15:05:40.936Z</time></trkpt><trkpt lat="43.4354752" lon="11.1556734"><ele>167.0</ele><time>2026-04-22T15:05:42.949Z</time></trkpt><trkpt lat="43.4355266" lon="11.1555345"><ele>167.0</ele><time>2026-04-22T15:05:44.95Z</time></trkpt><trkpt lat="43.4356134" lon="11.15541"><ele>167.0</ele><time>2026-04-22T15:05:46.948Z</time></trkpt><trkpt lat="43.4356617" lon="11.1553385"><ele>167.0</ele><time>2026-04-22T15:05:47.947Z</time></trkpt><trkpt lat="43.435707" lon="11.1552619"><ele>167.0</ele><time>2026-04-22T15:05:48.927Z</time></trkpt><trkpt lat="43.4357459" lon="11.1551798"><ele>167.0</ele><time>2026-04-22T15:05:49.945Z</time></trkpt><trkpt lat="43.4357954" lon="11.1551138"><ele>167.0</ele><time>2026-04-22T15:05:50.946Z</time></trkpt><trkpt lat="43.4358422" lon="11.155049"><ele>167.0</ele><time>2026-04-22T15:05:51.953Z</time></trkpt><trkpt lat="43.435929" lon="11.1549147"><ele>167.0</ele><time>2026-04-22T15:05:53.954Z</time></trkpt><trkpt lat="43.4359732" lon="11.1548489"><ele>167.0</ele><time>2026-04-22T15:05:54.934Z</time></trkpt><trkpt lat="43.4360175" lon="11.1547802"><ele>167.0</ele><time>2026-04-22T15:05:56.012Z</time></trkpt><trkpt lat="43.436056" lon="11.1547102"><ele>167.0</ele><time>2026-04-22T15:05:56.939Z</time></trkpt><trkpt lat="43.4361005" lon="11.1546379"><ele>167.0</ele><time>2026-04-22T15:05:57.951Z</time></trkpt><trkpt lat="43.4361473" lon="11.1545732"><ele>167.0</ele><time>2026-04-22T15:05:58.932Z</time></trkpt><trkpt lat="43.4361954" lon="11.1545041"><ele>167.0</ele><time>2026-04-22T15:05:59.964Z</time></trkpt><trkpt lat="43.4362419" lon="11.1544435"><ele>167.0</ele><time>2026-04-22T15:06:00.938Z</time></trkpt><trkpt lat="43.4362915" lon="11.1543862"><ele>167.0</ele><time>2026-04-22T15:06:01.954Z</time></trkpt><trkpt lat="43.4363968" lon="11.1542961"><ele>167.0</ele><time>2026-04-22T15:06:03.918Z</time></trkpt><trkpt lat="43.4364529" lon="11.1542507"><ele>167.0</ele><time>2026-04-22T15:06:04.948Z</time></trkpt><trkpt lat="43.4365102" lon="11.1542069"><ele>167.0</ele><time>2026-04-22T15:06:05.952Z</time></trkpt><trkpt lat="43.4365692" lon="11.1541684"><ele>167.0</ele><time>2026-04-22T15:06:06.938Z</time></trkpt><trkpt lat="43.4366687" lon="11.1540933"><ele>167.0</ele><time>2026-04-22T15:06:08.922Z</time></trkpt><trkpt lat="43.4367231" lon="11.1540454"><ele>167.0</ele><time>2026-04-22T15:06:09.939Z</time></trkpt><trkpt lat="43.4367766" lon="11.1539908"><ele>167.0</ele><time>2026-04-22T15:06:10.945Z</time></trkpt><trkpt lat="43.4368342" lon="11.1539366"><ele>164.83333333333331</ele><time>2026-04-22T15:06:11.945Z</time></trkpt><trkpt lat="43.4368945" lon="11.1538762"><ele>162.66666666666666</ele><time>2026-04-22T15:06:12.929Z</time></trkpt><trkpt lat="43.4369491" lon="11.1538115"><ele>160.5</ele><time>2026-04-22T15:06:13.935Z</time></trkpt><trkpt lat="43.4370043" lon="11.1537489"><ele>158.33333333333334</ele><time>2026-04-22T15:06:14.937Z</time></trkpt><trkpt lat="43.4370546" lon="11.1536832"><ele>156.16666666666669</ele><time>2026-04-22T15:06:15.94Z</time></trkpt><trkpt lat="43.4371019" lon="11.1536214"><ele>154.0</ele><time>2026-04-22T15:06:16.929Z</time></trkpt><trkpt lat="43.4371925" lon="11.1535005"><ele>154.0</ele><time>2026-04-22T15:06:18.933Z</time></trkpt><trkpt lat="43.4372465" lon="11.1534347"><ele>154.0</ele><time>2026-04-22T15:06:19.942Z</time></trkpt><trkpt lat="43.4373006" lon="11.153367"><ele>154.0</ele><time>2026-04-22T15:06:20.92Z</time></trkpt><trkpt lat="43.4373583" lon="11.1533031"><ele>154.0</ele><time>2026-04-22T15:06:21.938Z</time></trkpt><trkpt lat="43.4374141" lon="11.1532326"><ele>154.0</ele><time>2026-04-22T15:06:22.943Z</time></trkpt><trkpt lat="43.4374672" lon="11.1531647"><ele>154.0</ele><time>2026-04-22T15:06:23.944Z</time></trkpt><trkpt lat="43.4375224" lon="11.1531"><ele>154.0</ele><time>2026-04-22T15:06:24.945Z</time></trkpt><trkpt lat="43.4375873" lon="11.153035"><ele>156.33333333333334</ele><time>2026-04-22T15:06:26.008Z</time></trkpt><trkpt lat="43.4376432" lon="11.1529655"><ele>158.66666666666669</ele><time>2026-04-22T15:06:27.006Z</time></trkpt><trkpt lat="43.4376933" lon="11.1528999"><ele>161.0</ele><time>2026-04-22T15:06:28.006Z</time></trkpt><trkpt lat="43.4377406" lon="11.1528399"><ele>163.33333333333334</ele><time>2026-04-22T15:06:28.943Z</time></trkpt><trkpt lat="43.4378082" lon="11.1527816"><ele>165.66666666666666</ele><time>2026-04-22T15:06:29.932Z</time></trkpt><trkpt lat="43.4378778" lon="11.1527185"><ele>168.0</ele><time>2026-04-22T15:06:30.942Z</time></trkpt><trkpt lat="43.4379416" lon="11.1526525"><ele>164.4</ele><time>2026-04-22T15:06:31.941Z</time></trkpt><trkpt lat="43.4380002" lon="11.1525748"><ele>160.8</ele><time>2026-04-22T15:06:32.954Z</time></trkpt><trkpt lat="43.4380476" lon="11.1525059"><ele>157.2</ele><time>2026-04-22T15:06:34.014Z</time></trkpt><trkpt lat="43.4381194" lon="11.1523777"><ele>153.6</ele><time>2026-04-22T15:06:35.946Z</time></trkpt><trkpt lat="43.4382162" lon="11.1522713"><ele>150.0</ele><time>2026-04-22T15:06:37.946Z</time></trkpt><trkpt lat="43.4382902" lon="11.1521796"><ele>150.0</ele><time>2026-04-22T15:06:39.928Z</time></trkpt><trkpt lat="43.4383368" lon="11.1520751"><ele>150.0</ele><time>2026-04-22T15:06:41.993Z</time></trkpt><trkpt lat="43.4383579" lon="11.1519523"><ele>150.0</ele><time>2026-04-22T15:06:44.004Z</time></trkpt><trkpt lat="43.4383619" lon="11.1518312"><ele>150.0</ele><time>2026-04-22T15:06:45.949Z</time></trkpt><trkpt lat="43.4383633" lon="11.1517109"><ele>150.0</ele><time>2026-04-22T15:06:48.016Z</time></trkpt><trkpt lat="43.4383815" lon="11.1515996"><ele>150.0</ele><time>2026-04-22T15:06:49.953Z</time></trkpt><trkpt lat="43.4383988" lon="11.1514877"><ele>150.83333333333334</ele><time>2026-04-22T15:06:52.017Z</time></trkpt><trkpt lat="43.4384236" lon="11.1513801"><ele>151.66666666666666</ele><time>2026-04-22T15:06:53.944Z</time></trkpt><trkpt lat="43.4384422" lon="11.1512741"><ele>152.5</ele><time>2026-04-22T15:06:56.04Z</time></trkpt><trkpt lat="43.4384483" lon="11.1511727"><ele>153.33333333333331</ele><time>2026-04-22T15:06:57.945Z</time></trkpt><trkpt lat="43.4384573" lon="11.1510776"><ele>154.16666666666666</ele><time>2026-04-22T15:06:59.939Z</time></trkpt><trkpt lat="43.4384625" lon="11.1509877"><ele>155.0</ele><time>2026-04-22T15:07:01.924Z</time></trkpt><trkpt lat="43.4384773" lon="11.150868"><ele>155.0</ele><time>2026-04-22T15:07:04.935Z</time></trkpt><trkpt lat="43.4384776" lon="11.1507461"><ele>155.0</ele><time>2026-04-22T15:07:07.94Z</time></trkpt><trkpt lat="43.4384866" lon="11.1506545"><ele>155.0</ele><time>2026-04-22T15:07:09.942Z</time></trkpt><trkpt lat="43.4384895" lon="11.150552"><ele>155.0</ele><time>2026-04-22T15:07:12.015Z</time></trkpt><trkpt lat="43.4384923" lon="11.1504443"><ele>155.0</ele><time>2026-04-22T15:07:13.925Z</time></trkpt><trkpt lat="43.4385128" lon="11.1503412"><ele>155.0</ele><time>2026-04-22T15:07:15.932Z</time></trkpt><trkpt lat="43.4385339" lon="11.1502445"><ele>155.5</ele><time>2026-04-22T15:07:17.946Z</time></trkpt><trkpt lat="43.4385606" lon="11.1501543"><ele>156.0</ele><time>2026-04-22T15:07:19.951Z</time></trkpt><trkpt lat="43.4386012" lon="11.150063"><ele>156.5</ele><time>2026-04-22T15:07:22.018Z</time></trkpt><trkpt lat="43.438658" lon="11.1499453"><ele>157.0</ele><time>2026-04-22T15:07:24.942Z</time></trkpt><trkpt lat="43.4387084" lon="11.1498655"><ele>157.5</ele><time>2026-04-22T15:07:27.005Z</time></trkpt><trkpt lat="43.438749" lon="11.1497782"><ele>158.0</ele><time>2026-04-22T15:07:28.953Z</time></trkpt><trkpt lat="43.4387894" lon="11.149701"><ele>158.2857142857143</ele><time>2026-04-22T15:07:30.944Z</time></trkpt><trkpt lat="43.4388449" lon="11.1496193"><ele>158.57142857142858</ele><time>2026-04-22T15:07:33.935Z</time></trkpt><trkpt lat="43.438899" lon="11.1495503"><ele>158.85714285714286</ele><time>2026-04-22T15:07:37.017Z</time></trkpt><trkpt lat="43.4389577" lon="11.1495118"><ele>159.14285714285717</ele><time>2026-04-22T15:07:39.943Z</time></trkpt><trkpt lat="43.4390248" lon="11.14951"><ele>159.42857142857144</ele><time>2026-04-22T15:07:43.957Z</time></trkpt><trkpt lat="43.4390847" lon="11.1495455"><ele>159.71428571428572</ele><time>2026-04-22T15:07:46.948Z</time></trkpt><trkpt lat="43.4391465" lon="11.1495696"><ele>160.0</ele><time>2026-04-22T15:07:49.946Z</time></trkpt><trkpt lat="43.4392247" lon="11.1495296"><ele>160.0</ele><time>2026-04-22T15:07:52.952Z</time></trkpt><trkpt lat="43.4392843" lon="11.1494435"><ele>160.0</ele><time>2026-04-22T15:07:55.946Z</time></trkpt><trkpt lat="43.4393243" lon="11.1493539"><ele>160.0</ele><time>2026-04-22T15:07:59.029Z</time></trkpt><trkpt lat="43.4393615" lon="11.1492695"><ele>160.0</ele><time>2026-04-22T15:08:01.944Z</time></trkpt><trkpt lat="43.4394023" lon="11.1491696"><ele>160.0</ele><time>2026-04-22T15:08:04.939Z</time></trkpt><trkpt lat="43.4394434" lon="11.1490846"><ele>160.0</ele><time>2026-04-22T15:08:08.028Z</time></trkpt><trkpt lat="43.4394599" lon="11.1489925"><ele>160.85714285714286</ele><time>2026-04-22T15:09:09.006Z</time></trkpt><trkpt lat="43.4394511" lon="11.1489032"><ele>161.71428571428572</ele><time>2026-04-22T15:09:11.924Z</time></trkpt><trkpt lat="43.4393848" lon="11.1488245"><ele>162.57142857142856</ele><time>2026-04-22T15:09:14.946Z</time></trkpt><trkpt lat="43.4393247" lon="11.1487504"><ele>163.42857142857144</ele><time>2026-04-22T15:09:17.023Z</time></trkpt><trkpt lat="43.4392721" lon="11.1486865"><ele>164.2857142857143</ele><time>2026-04-22T15:09:18.938Z</time></trkpt><trkpt lat="43.4392324" lon="11.1486096"><ele>165.14285714285714</ele><time>2026-04-22T15:09:20.95Z</time></trkpt><trkpt lat="43.4391881" lon="11.1485411"><ele>166.0</ele><time>2026-04-22T15:09:22.944Z</time></trkpt><trkpt lat="43.4391419" lon="11.148481"><ele>166.0</ele><time>2026-04-22T15:09:24.942Z</time></trkpt><trkpt lat="43.4390915" lon="11.1484073"><ele>166.0</ele><time>2026-04-22T15:09:27.027Z</time></trkpt><trkpt lat="43.4390411" lon="11.1483303"><ele>166.0</ele><time>2026-04-22T15:09:28.939Z</time></trkpt><trkpt lat="43.4389967" lon="11.1482525"><ele>166.0</ele><time>2026-04-22T15:09:30.932Z</time></trkpt><trkpt lat="43.4389468" lon="11.1481744"><ele>166.0</ele><time>2026-04-22T15:09:32.938Z</time></trkpt><trkpt lat="43.4388943" lon="11.148101"><ele>166.0</ele><time>2026-04-22T15:09:34.943Z</time></trkpt><trkpt lat="43.4388339" lon="11.1480221"><ele>164.66666666666669</ele><time>2026-04-22T15:09:37.018Z</time></trkpt><trkpt lat="43.4387632" lon="11.1479067"><ele>163.33333333333334</ele><time>2026-04-22T15:09:39.014Z</time></trkpt><trkpt lat="43.4386755" lon="11.1477798"><ele>162.0</ele><time>2026-04-22T15:09:40.946Z</time></trkpt><trkpt lat="43.4386209" lon="11.1477281"><ele>160.66666666666666</ele><time>2026-04-22T15:09:41.947Z</time></trkpt><trkpt lat="43.4385564" lon="11.1476831"><ele>159.33333333333331</ele><time>2026-04-22T15:09:43.012Z</time></trkpt><trkpt lat="43.4385028" lon="11.1476306"><ele>158.0</ele><time>2026-04-22T15:09:44.013Z</time></trkpt><trkpt lat="43.4384298" lon="11.147549"><ele>158.0</ele><time>2026-04-22T15:09:45.929Z</time></trkpt><trkpt lat="43.4383588" lon="11.1474676"><ele>158.0</ele><time>2026-04-22T15:09:48.003Z</time></trkpt><trkpt lat="43.4383627" lon="11.1473787"><ele>158.0</ele><time>2026-04-22T15:09:49.947Z</time></trkpt><trkpt lat="43.4384377" lon="11.1473971"><ele>158.0</ele><time>2026-04-22T15:09:52.014Z</time></trkpt><trkpt lat="43.4384945" lon="11.1474959"><ele>158.0</ele><time>2026-04-22T15:09:54.943Z</time></trkpt><trkpt lat="43.4385601" lon="11.1475798"><ele>158.0</ele><time>2026-04-22T15:09:57.951Z</time></trkpt><trkpt lat="43.4386508" lon="11.1475835"><ele>158.0</ele><time>2026-04-22T15:10:00.954Z</time></trkpt><trkpt lat="43.4387086" lon="11.1475374"><ele>158.0</ele><time>2026-04-22T15:10:02.962Z</time></trkpt><trkpt lat="43.4387792" lon="11.1474718"><ele>158.0</ele><time>2026-04-22T15:10:04.957Z</time></trkpt><trkpt lat="43.438829" lon="11.1474055"><ele>158.0</ele><time>2026-04-22T15:10:06.947Z</time></trkpt><trkpt lat="43.4389049" lon="11.147333"><ele>158.0</ele><time>2026-04-22T15:10:08.965Z</time></trkpt><trkpt lat="43.4389805" lon="11.1472464"><ele>158.0</ele><time>2026-04-22T15:10:10.945Z</time></trkpt><trkpt lat="43.4390617" lon="11.147145"><ele>157.8</ele><time>2026-04-22T15:10:12.94Z</time></trkpt><trkpt lat="43.4391447" lon="11.1470487"><ele>157.60000000000002</ele><time>2026-04-22T15:10:14.948Z</time></trkpt><trkpt lat="43.4392235" lon="11.1469518"><ele>157.39999999999998</ele><time>2026-04-22T15:10:16.96Z</time></trkpt><trkpt lat="43.4392873" lon="11.1468385"><ele>157.2</ele><time>2026-04-22T15:10:18.933Z</time></trkpt><trkpt lat="43.4393417" lon="11.1467243"><ele>157.0</ele><time>2026-04-22T15:10:20.96Z</time></trkpt><trkpt lat="43.4393968" lon="11.1466196"><ele>156.0</ele><time>2026-04-22T15:10:22.947Z</time></trkpt><trkpt lat="43.4394453" lon="11.1465167"><ele>155.0</ele><time>2026-04-22T15:10:24.94Z</time></trkpt><trkpt lat="43.4394904" lon="11.1464112"><ele>154.0</ele><time>2026-04-22T15:10:26.949Z</time></trkpt><trkpt lat="43.4395226" lon="11.1462991"><ele>153.0</ele><time>2026-04-22T15:10:28.944Z</time></trkpt><trkpt lat="43.4395501" lon="11.1461773"><ele>152.0</ele><time>2026-04-22T15:10:30.949Z</time></trkpt><trkpt lat="43.4395783" lon="11.1460599"><ele>151.0</ele><time>2026-04-22T15:10:32.953Z</time></trkpt><trkpt lat="43.4396122" lon="11.1459557"><ele>152.83333333333334</ele><time>2026-04-22T15:10:34.953Z</time></trkpt><trkpt lat="43.4396524" lon="11.1458575"><ele>154.66666666666669</ele><time>2026-04-22T15:10:36.95Z</time></trkpt><trkpt lat="43.4396856" lon="11.1457658"><ele>156.5</ele><time>2026-04-22T15:10:39.019Z</time></trkpt><trkpt lat="43.4397321" lon="11.1456849"><ele>158.33333333333334</ele><time>2026-04-22T15:10:40.937Z</time></trkpt><trkpt lat="43.4397853" lon="11.1456223"><ele>160.16666666666666</ele><time>2026-04-22T15:10:42.937Z</time></trkpt><trkpt lat="43.4398397" lon="11.1455474"><ele>162.0</ele><time>2026-04-22T15:10:44.939Z</time></trkpt><trkpt lat="43.439893" lon="11.1454734"><ele>162.0</ele><time>2026-04-22T15:10:46.939Z</time></trkpt><trkpt lat="43.4399517" lon="11.1454074"><ele>162.0</ele><time>2026-04-22T15:10:48.939Z</time></trkpt><trkpt lat="43.4400108" lon="11.1453385"><ele>162.0</ele><time>2026-04-22T15:10:50.933Z</time></trkpt><trkpt lat="43.4400637" lon="11.1452562"><ele>162.0</ele><time>2026-04-22T15:10:52.94Z</time></trkpt><trkpt lat="43.4401151" lon="11.1451701"><ele>162.0</ele><time>2026-04-22T15:10:54.942Z</time></trkpt><trkpt lat="43.4401663" lon="11.1450881"><ele>162.0</ele><time>2026-04-22T15:10:56.935Z</time></trkpt><trkpt lat="43.4402292" lon="11.1450077"><ele>162.0</ele><time>2026-04-22T15:10:59.033Z</time></trkpt><trkpt lat="43.4402945" lon="11.1449489"><ele>162.0</ele><time>2026-04-22T15:11:00.935Z</time></trkpt><trkpt lat="43.4403591" lon="11.1449135"><ele>162.0</ele><time>2026-04-22T15:11:03.016Z</time></trkpt><trkpt lat="43.4404248" lon="11.1448727"><ele>162.0</ele><time>2026-04-22T15:11:04.937Z</time></trkpt><trkpt lat="43.4404944" lon="11.1448393"><ele>162.0</ele><time>2026-04-22T15:11:06.994Z</time></trkpt><trkpt lat="43.4405565" lon="11.1447992"><ele>162.0</ele><time>2026-04-22T15:11:09.017Z</time></trkpt><trkpt lat="43.4406304" lon="11.1447693"><ele>162.0</ele><time>2026-04-22T15:11:10.941Z</time></trkpt><trkpt lat="43.4407063" lon="11.1447435"><ele>161.5</ele><time>2026-04-22T15:11:13.019Z</time></trkpt><trkpt lat="43.440793" lon="11.1447506"><ele>161.0</ele><time>2026-04-22T15:11:14.939Z</time></trkpt><trkpt lat="43.4408616" lon="11.1447155"><ele>160.5</ele><time>2026-04-22T15:11:16.948Z</time></trkpt><trkpt lat="43.4409324" lon="11.1446915"><ele>160.0</ele><time>2026-04-22T15:11:19.012Z</time></trkpt><trkpt lat="43.4409931" lon="11.1446325"><ele>159.5</ele><time>2026-04-22T15:11:20.938Z</time></trkpt><trkpt lat="43.4410533" lon="11.1445901"><ele>159.0</ele><time>2026-04-22T15:11:22.945Z</time></trkpt><trkpt lat="43.4411387" lon="11.1445529"><ele>159.0</ele><time>2026-04-22T15:11:24.949Z</time></trkpt><trkpt lat="43.4412174" lon="11.1445091"><ele>159.0</ele><time>2026-04-22T15:11:26.958Z</time></trkpt><trkpt lat="43.4413022" lon="11.1444883"><ele>159.0</ele><time>2026-04-22T15:11:28.941Z</time></trkpt><trkpt lat="43.4413878" lon="11.1444576"><ele>159.0</ele><time>2026-04-22T15:11:30.933Z</time></trkpt><trkpt lat="43.4414767" lon="11.1444311"><ele>159.0</ele><time>2026-04-22T15:11:32.95Z</time></trkpt><trkpt lat="43.4415587" lon="11.1444003"><ele>159.0</ele><time>2026-04-22T15:11:34.948Z</time></trkpt><trkpt lat="43.4416413" lon="11.1443901"><ele>159.16666666666666</ele><time>2026-04-22T15:11:37.014Z</time></trkpt><trkpt lat="43.4417325" lon="11.1444099"><ele>159.33333333333334</ele><time>2026-04-22T15:11:38.936Z</time></trkpt><trkpt lat="43.4418155" lon="11.1444151"><ele>159.5</ele><time>2026-04-22T15:11:40.939Z</time></trkpt><trkpt lat="43.4418969" lon="11.14442"><ele>159.66666666666669</ele><time>2026-04-22T15:11:42.946Z</time></trkpt><trkpt lat="43.4419785" lon="11.1444216"><ele>159.83333333333334</ele><time>2026-04-22T15:11:44.942Z</time></trkpt><trkpt lat="43.442056" lon="11.1444245"><ele>160.0</ele><time>2026-04-22T15:11:47.008Z</time></trkpt><trkpt lat="43.4421338" lon="11.1444372"><ele>160.0</ele><time>2026-04-22T15:11:49.003Z</time></trkpt><trkpt lat="43.4422031" lon="11.1444591"><ele>160.0</ele><time>2026-04-22T15:11:50.952Z</time></trkpt><trkpt lat="43.4422776" lon="11.1444609"><ele>160.0</ele><time>2026-04-22T15:11:54.009Z</time></trkpt><trkpt lat="43.4423759" lon="11.1444591"><ele>160.0</ele><time>2026-04-22T15:11:57.01Z</time></trkpt><trkpt lat="43.442452" lon="11.1444911"><ele>160.0</ele><time>2026-04-22T15:11:59.009Z</time></trkpt><trkpt lat="43.4425252" lon="11.1445144"><ele>160.0</ele><time>2026-04-22T15:12:00.917Z</time></trkpt><trkpt lat="43.4426062" lon="11.1445671"><ele>160.0</ele><time>2026-04-22T15:12:03.021Z</time></trkpt><trkpt lat="43.4426815" lon="11.1446658"><ele>160.0</ele><time>2026-04-22T15:12:04.935Z</time></trkpt><trkpt lat="43.4427845" lon="11.1447534"><ele>160.0</ele><time>2026-04-22T15:12:06.936Z</time></trkpt><trkpt lat="43.4428892" lon="11.144838"><ele>160.0</ele><time>2026-04-22T15:12:08.942Z</time></trkpt><trkpt lat="43.4430137" lon="11.144868"><ele>160.2</ele><time>2026-04-22T15:12:10.935Z</time></trkpt><trkpt lat="43.4430769" lon="11.1448465"><ele>160.4</ele><time>2026-04-22T15:12:11.985Z</time></trkpt><trkpt lat="43.4431925" lon="11.1447658"><ele>160.60000000000002</ele><time>2026-04-22T15:12:14.005Z</time></trkpt><trkpt lat="43.4432906" lon="11.1446905"><ele>160.8</ele><time>2026-04-22T15:12:15.941Z</time></trkpt><trkpt lat="43.4433768" lon="11.1446086"><ele>161.0</ele><time>2026-04-22T15:12:17.942Z</time></trkpt><trkpt lat="43.4434375" lon="11.1445243"><ele>161.0</ele><time>2026-04-22T15:12:19.946Z</time></trkpt><trkpt lat="43.4435026" lon="11.1444448"><ele>161.0</ele><time>2026-04-22T15:12:21.939Z</time></trkpt><trkpt lat="43.443569" lon="11.1443821"><ele>161.0</ele><time>2026-04-22T15:12:24Z</time></trkpt><trkpt lat="43.443647" lon="11.1443208"><ele>161.0</ele><time>2026-04-22T15:12:25.941Z</time></trkpt><trkpt lat="43.4437352" lon="11.1442676"><ele>161.0</ele><time>2026-04-22T15:12:27.934Z</time></trkpt><trkpt lat="43.4438331" lon="11.1442363"><ele>159.0</ele><time>2026-04-22T15:12:29.938Z</time></trkpt><trkpt lat="43.4439294" lon="11.1442215"><ele>157.0</ele><time>2026-04-22T15:12:32.007Z</time></trkpt><trkpt lat="43.4440417" lon="11.1441865"><ele>155.0</ele><time>2026-04-22T15:12:34.022Z</time></trkpt><trkpt lat="43.4441396" lon="11.1441515"><ele>153.0</ele><time>2026-04-22T15:12:35.942Z</time></trkpt><trkpt lat="43.4442304" lon="11.1441005"><ele>151.0</ele><time>2026-04-22T15:12:38.006Z</time></trkpt><trkpt lat="43.4443228" lon="11.144031"><ele>151.0</ele><time>2026-04-22T15:12:39.957Z</time></trkpt><trkpt lat="43.4444068" lon="11.1439565"><ele>151.0</ele><time>2026-04-22T15:12:42.004Z</time></trkpt><trkpt lat="43.4444741" lon="11.1438676"><ele>151.0</ele><time>2026-04-22T15:12:43.952Z</time></trkpt><trkpt lat="43.4445521" lon="11.1437531"><ele>151.0</ele><time>2026-04-22T15:12:45.945Z</time></trkpt><trkpt lat="43.4446318" lon="11.1436497"><ele>151.0</ele><time>2026-04-22T15:12:47.938Z</time></trkpt><trkpt lat="43.4446821" lon="11.1435966"><ele>151.16666666666669</ele><time>2026-04-22T15:12:48.923Z</time></trkpt><trkpt lat="43.4447331" lon="11.1435408"><ele>151.33333333333334</ele><time>2026-04-22T15:12:49.94Z</time></trkpt><trkpt lat="43.4448373" lon="11.1434378"><ele>151.5</ele><time>2026-04-22T15:12:52.024Z</time></trkpt><trkpt lat="43.4448989" lon="11.1433717"><ele>151.66666666666666</ele><time>2026-04-22T15:12:52.946Z</time></trkpt><trkpt lat="43.4449431" lon="11.1432866"><ele>151.83333333333331</ele><time>2026-04-22T15:12:53.924Z</time></trkpt><trkpt lat="43.4449758" lon="11.1431993"><ele>152.0</ele><time>2026-04-22T15:12:54.945Z</time></trkpt><trkpt lat="43.445006" lon="11.1431092"><ele>152.0</ele><time>2026-04-22T15:12:55.948Z</time></trkpt><trkpt lat="43.4450068" lon="11.1430186"><ele>152.0</ele><time>2026-04-22T15:12:56.953Z</time></trkpt><trkpt lat="43.4449954" lon="11.1429291"><ele>152.0</ele><time>2026-04-22T15:12:58.007Z</time></trkpt><trkpt lat="43.4449811" lon="11.1428317"><ele>152.0</ele><time>2026-04-22T15:12:59.018Z</time></trkpt><trkpt lat="43.4449651" lon="11.1427379"><ele>152.0</ele><time>2026-04-22T15:12:59.927Z</time></trkpt><trkpt lat="43.4449559" lon="11.1426266"><ele>152.0</ele><time>2026-04-22T15:13:00.963Z</time></trkpt><trkpt lat="43.4449505" lon="11.1425152"><ele>152.0</ele><time>2026-04-22T15:13:01.923Z</time></trkpt><trkpt lat="43.4449388" lon="11.1424059"><ele>150.83333333333331</ele><time>2026-04-22T15:13:02.96Z</time></trkpt><trkpt lat="43.4449215" lon="11.1422968"><ele>149.66666666666666</ele><time>2026-04-22T15:13:03.952Z</time></trkpt><trkpt lat="43.4449094" lon="11.1421852"><ele>148.5</ele><time>2026-04-22T15:13:04.943Z</time></trkpt><trkpt lat="43.444904" lon="11.1420774"><ele>147.33333333333334</ele><time>2026-04-22T15:13:05.924Z</time></trkpt><trkpt lat="43.4449052" lon="11.141983"><ele>146.16666666666669</ele><time>2026-04-22T15:13:07.012Z</time></trkpt><trkpt lat="43.4449211" lon="11.1418897"><ele>145.0</ele><time>2026-04-22T15:13:08.006Z</time></trkpt><trkpt lat="43.4449511" lon="11.1417969"><ele>145.0</ele><time>2026-04-22T15:13:09.007Z</time></trkpt><trkpt lat="43.4449959" lon="11.1417224"><ele>145.0</ele><time>2026-04-22T15:13:09.932Z</time></trkpt><trkpt lat="43.4450358" lon="11.1416466"><ele>145.0</ele><time>2026-04-22T15:13:10.939Z</time></trkpt><trkpt lat="43.4450792" lon="11.1415718"><ele>145.0</ele><time>2026-04-22T15:13:12.004Z</time></trkpt><trkpt lat="43.4451099" lon="11.141488"><ele>145.0</ele><time>2026-04-22T15:13:13.022Z</time></trkpt><trkpt lat="43.445149" lon="11.1414112"><ele>145.0</ele><time>2026-04-22T15:13:14.006Z</time></trkpt><trkpt lat="43.4451853" lon="11.1413286"><ele>145.0</ele><time>2026-04-22T15:13:14.938Z</time></trkpt><trkpt lat="43.4452155" lon="11.1412453"><ele>144.14285714285714</ele><time>2026-04-22T15:13:15.954Z</time></trkpt><trkpt lat="43.4452526" lon="11.141156"><ele>143.2857142857143</ele><time>2026-04-22T15:13:17.004Z</time></trkpt><trkpt lat="43.4452712" lon="11.1410555"><ele>142.42857142857144</ele><time>2026-04-22T15:13:18.005Z</time></trkpt><trkpt lat="43.4452874" lon="11.1409606"><ele>141.57142857142858</ele><time>2026-04-22T15:13:18.934Z</time></trkpt><trkpt lat="43.4453075" lon="11.1408597"><ele>140.71428571428572</ele><time>2026-04-22T15:13:19.947Z</time></trkpt><trkpt lat="43.44532" lon="11.1407639"><ele>139.85714285714286</ele><time>2026-04-22T15:13:20.94Z</time></trkpt><trkpt lat="43.4453273" lon="11.1406622"><ele>139.0</ele><time>2026-04-22T15:13:22.006Z</time></trkpt><trkpt lat="43.4453101" lon="11.1405735"><ele>139.0</ele><time>2026-04-22T15:13:23.008Z</time></trkpt><trkpt lat="43.4453014" lon="11.140484"><ele>139.0</ele><time>2026-04-22T15:13:23.923Z</time></trkpt><trkpt lat="43.445291" lon="11.1403161"><ele>139.0</ele><time>2026-04-22T15:13:25.938Z</time></trkpt><trkpt lat="43.445289" lon="11.1402228"><ele>139.0</ele><time>2026-04-22T15:13:26.95Z</time></trkpt><trkpt lat="43.4452801" lon="11.1401243"><ele>139.0</ele><time>2026-04-22T15:13:28.017Z</time></trkpt><trkpt lat="43.4452816" lon="11.139961"><ele>139.0</ele><time>2026-04-22T15:13:29.933Z</time></trkpt><trkpt lat="43.4452882" lon="11.1397786"><ele>139.0</ele><time>2026-04-22T15:13:31.936Z</time></trkpt><trkpt lat="43.4452745" lon="11.1396719"><ele>139.0</ele><time>2026-04-22T15:13:32.943Z</time></trkpt><trkpt lat="43.4452536" lon="11.1395761"><ele>139.0</ele><time>2026-04-22T15:13:33.938Z</time></trkpt><trkpt lat="43.4452507" lon="11.1394844"><ele>139.0</ele><time>2026-04-22T15:13:34.953Z</time></trkpt><trkpt lat="43.4453285" lon="11.1393773"><ele>139.0</ele><time>2026-04-22T15:13:36.953Z</time></trkpt><trkpt lat="43.4454396" lon="11.1393459"><ele>139.0</ele><time>2026-04-22T15:13:38.939Z</time></trkpt><trkpt lat="43.4455418" lon="11.1393546"><ele>140.4</ele><time>2026-04-22T15:13:40.951Z</time></trkpt><trkpt lat="43.4456407" lon="11.139371"><ele>141.8</ele><time>2026-04-22T15:13:42.947Z</time></trkpt><trkpt lat="43.4457469" lon="11.1393782"><ele>143.2</ele><time>2026-04-22T15:13:44.95Z</time></trkpt><trkpt lat="43.4458494" lon="11.1393768"><ele>144.6</ele><time>2026-04-22T15:13:46.952Z</time></trkpt><trkpt lat="43.4459533" lon="11.1393792"><ele>146.0</ele><time>2026-04-22T15:13:48.95Z</time></trkpt><trkpt lat="43.4460594" lon="11.1393871"><ele>146.0</ele><time>2026-04-22T15:13:50.953Z</time></trkpt><trkpt lat="43.4461695" lon="11.1393958"><ele>146.0</ele><time>2026-04-22T15:13:52.939Z</time></trkpt><trkpt lat="43.4462644" lon="11.1393526"><ele>146.0</ele><time>2026-04-22T15:13:54.916Z</time></trkpt><trkpt lat="43.4463588" lon="11.1392742"><ele>146.0</ele><time>2026-04-22T15:13:56.938Z</time></trkpt><trkpt lat="43.4464044" lon="11.1391726"><ele>146.0</ele><time>2026-04-22T15:13:58.93Z</time></trkpt><trkpt lat="43.4464192" lon="11.1390345"><ele>145.4</ele><time>2026-04-22T15:14:00.949Z</time></trkpt><trkpt lat="43.4464145" lon="11.1388916"><ele>144.8</ele><time>2026-04-22T15:14:02.948Z</time></trkpt><trkpt lat="43.4464044" lon="11.1387503"><ele>144.20000000000002</ele><time>2026-04-22T15:14:04.94Z</time></trkpt><trkpt lat="43.4463905" lon="11.1386105"><ele>143.6</ele><time>2026-04-22T15:14:06.957Z</time></trkpt><trkpt lat="43.4463773" lon="11.1384828"><ele>143.0</ele><time>2026-04-22T15:14:08.92Z</time></trkpt><trkpt lat="43.4463632" lon="11.1383279"><ele>143.20000000000002</ele><time>2026-04-22T15:14:10.943Z</time></trkpt><trkpt lat="43.4463873" lon="11.1381737"><ele>143.4</ele><time>2026-04-22T15:14:12.939Z</time></trkpt><trkpt lat="43.4463829" lon="11.1380431"><ele>143.60000000000002</ele><time>2026-04-22T15:14:14.916Z</time></trkpt><trkpt lat="43.4463825" lon="11.1379157"><ele>143.8</ele><time>2026-04-22T15:14:16.954Z</time></trkpt><trkpt lat="43.4463846" lon="11.1377893"><ele>144.0</ele><time>2026-04-22T15:14:18.944Z</time></trkpt><trkpt lat="43.446392" lon="11.1376504"><ele>144.0</ele><time>2026-04-22T15:14:20.941Z</time></trkpt><trkpt lat="43.4463892" lon="11.1375092"><ele>144.0</ele><time>2026-04-22T15:14:22.947Z</time></trkpt><trkpt lat="43.4464124" lon="11.1373712"><ele>144.0</ele><time>2026-04-22T15:14:24.921Z</time></trkpt><trkpt lat="43.4464723" lon="11.1372439"><ele>144.0</ele><time>2026-04-22T15:14:26.921Z</time></trkpt><trkpt lat="43.4465418" lon="11.1371434"><ele>144.0</ele><time>2026-04-22T15:14:28.963Z</time></trkpt><trkpt lat="43.4466087" lon="11.1370459"><ele>143.8</ele><time>2026-04-22T15:14:30.924Z</time></trkpt><trkpt lat="43.4466896" lon="11.1369694"><ele>143.60000000000002</ele><time>2026-04-22T15:14:32.926Z</time></trkpt><trkpt lat="43.4467804" lon="11.1369019"><ele>143.4</ele><time>2026-04-22T15:14:34.958Z</time></trkpt><trkpt lat="43.4468645" lon="11.1368364"><ele>143.20000000000002</ele><time>2026-04-22T15:14:36.94Z</time></trkpt><trkpt lat="43.4469353" lon="11.1367587"><ele>143.0</ele><time>2026-04-22T15:14:39.006Z</time></trkpt><trkpt lat="43.4470423" lon="11.1367306"><ele>142.8</ele><time>2026-04-22T15:14:40.937Z</time></trkpt><trkpt lat="43.4471519" lon="11.1367177"><ele>142.60000000000002</ele><time>2026-04-22T15:14:43.014Z</time></trkpt><trkpt lat="43.4472662" lon="11.1367235"><ele>142.39999999999998</ele><time>2026-04-22T15:14:44.941Z</time></trkpt><trkpt lat="43.4473292" lon="11.1367352"><ele>142.2</ele><time>2026-04-22T15:14:45.939Z</time></trkpt><trkpt lat="43.4473957" lon="11.13675"><ele>142.0</ele><time>2026-04-22T15:14:46.946Z</time></trkpt><trkpt lat="43.4474933" lon="11.1367796"><ele>142.0</ele><time>2026-04-22T15:14:49.012Z</time></trkpt><trkpt lat="43.4476057" lon="11.1367951"><ele>142.0</ele><time>2026-04-22T15:14:50.953Z</time></trkpt><trkpt lat="43.4476703" lon="11.136796"><ele>142.0</ele><time>2026-04-22T15:14:52.028Z</time></trkpt><trkpt lat="43.4477894" lon="11.1368058"><ele>142.0</ele><time>2026-04-22T15:14:53.946Z</time></trkpt><trkpt lat="43.4478994" lon="11.1368315"><ele>142.0</ele><time>2026-04-22T15:14:55.963Z</time></trkpt><trkpt lat="43.4480056" lon="11.1368588"><ele>141.6</ele><time>2026-04-22T15:14:57.928Z</time></trkpt><trkpt lat="43.4480976" lon="11.1368741"><ele>141.2</ele><time>2026-04-22T15:14:59.936Z</time></trkpt><trkpt lat="43.4482069" lon="11.1368746"><ele>140.8</ele><time>2026-04-22T15:15:01.955Z</time></trkpt><trkpt lat="43.4483167" lon="11.1368856"><ele>140.4</ele><time>2026-04-22T15:15:03.948Z</time></trkpt><trkpt lat="43.4484203" lon="11.1368964"><ele>140.0</ele><time>2026-04-22T15:15:05.955Z</time></trkpt><trkpt lat="43.4485205" lon="11.1369034"><ele>140.0</ele><time>2026-04-22T15:15:07.96Z</time></trkpt><trkpt lat="43.4486187" lon="11.1369087"><ele>140.0</ele><time>2026-04-22T15:15:09.946Z</time></trkpt><trkpt lat="43.4487133" lon="11.1369233"><ele>140.0</ele><time>2026-04-22T15:15:11.946Z</time></trkpt><trkpt lat="43.4488078" lon="11.136938"><ele>140.0</ele><time>2026-04-22T15:15:13.941Z</time></trkpt><trkpt lat="43.448905" lon="11.1369494"><ele>140.0</ele><time>2026-04-22T15:15:15.961Z</time></trkpt><trkpt lat="43.4489992" lon="11.1369594"><ele>140.2</ele><time>2026-04-22T15:15:17.952Z</time></trkpt><trkpt lat="43.4490945" lon="11.1369654"><ele>140.4</ele><time>2026-04-22T15:15:19.929Z</time></trkpt><trkpt lat="43.4491924" lon="11.1369702"><ele>140.6</ele><time>2026-04-22T15:15:22.007Z</time></trkpt><trkpt lat="43.4492954" lon="11.1369878"><ele>140.8</ele><time>2026-04-22T15:15:24.005Z</time></trkpt><trkpt lat="43.4493938" lon="11.136989"><ele>141.0</ele><time>2026-04-22T15:15:25.941Z</time></trkpt><trkpt lat="43.4494899" lon="11.1369978"><ele>141.0</ele><time>2026-04-22T15:15:28.018Z</time></trkpt><trkpt lat="43.4495896" lon="11.1370007"><ele>141.0</ele><time>2026-04-22T15:15:29.932Z</time></trkpt><trkpt lat="43.4496826" lon="11.1370063"><ele>141.0</ele><time>2026-04-22T15:15:32.011Z</time></trkpt><trkpt lat="43.4497846" lon="11.1370175"><ele>141.0</ele><time>2026-04-22T15:15:34.004Z</time></trkpt><trkpt lat="43.4498971" lon="11.1370246"><ele>141.0</ele><time>2026-04-22T15:15:35.928Z</time></trkpt><trkpt lat="43.4500064" lon="11.1370331"><ele>140.25</ele><time>2026-04-22T15:15:37.951Z</time></trkpt><trkpt lat="43.4501244" lon="11.1370336"><ele>139.5</ele><time>2026-04-22T15:15:39.941Z</time></trkpt><trkpt lat="43.4502438" lon="11.1370401"><ele>138.75</ele><time>2026-04-22T15:15:41.943Z</time></trkpt><trkpt lat="43.4503607" lon="11.1370451"><ele>138.0</ele><time>2026-04-22T15:15:43.944Z</time></trkpt><trkpt lat="43.4504677" lon="11.1370812"><ele>137.6</ele><time>2026-04-22T15:15:45.947Z</time></trkpt><trkpt lat="43.4505235" lon="11.1372069"><ele>137.20000000000002</ele><time>2026-04-22T15:15:47.93Z</time></trkpt><trkpt lat="43.4505119" lon="11.1373551"><ele>136.8</ele><time>2026-04-22T15:15:49.948Z</time></trkpt><trkpt lat="43.4505111" lon="11.1374944"><ele>136.4</ele><time>2026-04-22T15:15:51.951Z</time></trkpt><trkpt lat="43.4505054" lon="11.1376262"><ele>136.0</ele><time>2026-04-22T15:15:54.014Z</time></trkpt><trkpt lat="43.4505048" lon="11.1377527"><ele>136.0</ele><time>2026-04-22T15:15:55.937Z</time></trkpt><trkpt lat="43.4504954" lon="11.1378635"><ele>136.0</ele><time>2026-04-22T15:15:57.949Z</time></trkpt><trkpt lat="43.4504827" lon="11.1379816"><ele>136.0</ele><time>2026-04-22T15:15:59.938Z</time></trkpt><trkpt lat="43.4504641" lon="11.1381019"><ele>136.0</ele><time>2026-04-22T15:16:01.939Z</time></trkpt><trkpt lat="43.450457" lon="11.1382361"><ele>136.0</ele><time>2026-04-22T15:16:04.015Z</time></trkpt><trkpt lat="43.4504545" lon="11.1384043"><ele>136.6</ele><time>2026-04-22T15:16:05.936Z</time></trkpt><trkpt lat="43.4504529" lon="11.138554"><ele>137.2</ele><time>2026-04-22T15:16:07.937Z</time></trkpt><trkpt lat="43.450433" lon="11.1386986"><ele>137.8</ele><time>2026-04-22T15:16:09.928Z</time></trkpt><trkpt lat="43.4504211" lon="11.1388244"><ele>138.4</ele><time>2026-04-22T15:16:12.022Z</time></trkpt><trkpt lat="43.450421" lon="11.1389486"><ele>139.0</ele><time>2026-04-22T15:16:14.016Z</time></trkpt><trkpt lat="43.4504156" lon="11.1390721"><ele>139.0</ele><time>2026-04-22T15:16:15.949Z</time></trkpt><trkpt lat="43.4504143" lon="11.1392021"><ele>139.0</ele><time>2026-04-22T15:16:18.009Z</time></trkpt><trkpt lat="43.4503902" lon="11.1394352"><ele>139.0</ele><time>2026-04-22T15:16:21.938Z</time></trkpt><trkpt lat="43.4503849" lon="11.1395673"><ele>139.0</ele><time>2026-04-22T15:16:23.928Z</time></trkpt><trkpt lat="43.4503844" lon="11.1396942"><ele>139.0</ele><time>2026-04-22T15:16:25.949Z</time></trkpt><trkpt lat="43.4503799" lon="11.1398054"><ele>139.0</ele><time>2026-04-22T15:16:27.94Z</time></trkpt><trkpt lat="43.4503746" lon="11.1399209"><ele>139.0</ele><time>2026-04-22T15:16:29.94Z</time></trkpt><trkpt lat="43.4503658" lon="11.1400262"><ele>139.0</ele><time>2026-04-22T15:16:31.949Z</time></trkpt><trkpt lat="43.45036" lon="11.140127"><ele>139.0</ele><time>2026-04-22T15:16:33.95Z</time></trkpt><trkpt lat="43.4503546" lon="11.1402298"><ele>139.0</ele><time>2026-04-22T15:16:35.957Z</time></trkpt><trkpt lat="43.4503529" lon="11.1403243"><ele>139.4</ele><time>2026-04-22T15:16:37.944Z</time></trkpt><trkpt lat="43.4503536" lon="11.1404434"><ele>139.8</ele><time>2026-04-22T15:16:40.941Z</time></trkpt><trkpt lat="43.4503326" lon="11.1405628"><ele>140.2</ele><time>2026-04-22T15:16:44.004Z</time></trkpt><trkpt lat="43.4503078" lon="11.1407129"><ele>140.6</ele><time>2026-04-22T15:16:49.017Z</time></trkpt><trkpt lat="43.4503312" lon="11.140843"><ele>141.0</ele><time>2026-04-22T15:16:52.024Z</time></trkpt><trkpt lat="43.4503483" lon="11.1409801"><ele>141.6</ele><time>2026-04-22T15:16:54.926Z</time></trkpt><trkpt lat="43.4503784" lon="11.1410938"><ele>142.2</ele><time>2026-04-22T15:16:58.011Z</time></trkpt><trkpt lat="43.4504398" lon="11.1411949"><ele>142.8</ele><time>2026-04-22T15:17:00.947Z</time></trkpt><trkpt lat="43.4505257" lon="11.141255"><ele>143.4</ele><time>2026-04-22T15:17:02.944Z</time></trkpt><trkpt lat="43.4506158" lon="11.1413282"><ele>144.0</ele><time>2026-04-22T15:17:04.94Z</time></trkpt><trkpt lat="43.4506817" lon="11.1414066"><ele>144.00000000000003</ele><time>2026-04-22T15:17:06.941Z</time></trkpt><trkpt lat="43.4507357" lon="11.1414987"><ele>144.0</ele><time>2026-04-22T15:17:08.948Z</time></trkpt><trkpt lat="43.450788" lon="11.1415728"><ele>144.0</ele><time>2026-04-22T15:17:10.949Z</time></trkpt><trkpt lat="43.4508439" lon="11.1416222"><ele>144.0</ele><time>2026-04-22T15:17:12.932Z</time></trkpt><trkpt lat="43.4509013" lon="11.1416644"><ele>144.0</ele><time>2026-04-22T15:17:14.937Z</time></trkpt><trkpt lat="43.4509662" lon="11.1417131"><ele>144.00000000000003</ele><time>2026-04-22T15:17:16.937Z</time></trkpt><trkpt lat="43.4510265" lon="11.1417531"><ele>144.0</ele><time>2026-04-22T15:17:18.922Z</time></trkpt><trkpt lat="43.4511001" lon="11.1417999"><ele>144.2857142857143</ele><time>2026-04-22T15:17:21.938Z</time></trkpt><trkpt lat="43.4511605" lon="11.1418397"><ele>144.57142857142858</ele><time>2026-04-22T15:17:24.929Z</time></trkpt><trkpt lat="43.4512348" lon="11.1418689"><ele>144.85714285714286</ele><time>2026-04-22T15:17:29.005Z</time></trkpt><trkpt lat="43.4512992" lon="11.1419191"><ele>145.14285714285717</ele><time>2026-04-22T15:17:33.008Z</time></trkpt><trkpt lat="43.4513669" lon="11.1419516"><ele>145.42857142857144</ele><time>2026-04-22T15:17:37.012Z</time></trkpt><trkpt lat="43.4514333" lon="11.1420134"><ele>145.71428571428572</ele><time>2026-04-22T15:17:40.945Z</time></trkpt><trkpt lat="43.4514931" lon="11.1420593"><ele>146.0</ele><time>2026-04-22T15:17:44.927Z</time></trkpt><trkpt lat="43.4515541" lon="11.1421188"><ele>146.0</ele><time>2026-04-22T15:17:48.937Z</time></trkpt><trkpt lat="43.4516203" lon="11.1421507"><ele>146.0</ele><time>2026-04-22T15:17:53.012Z</time></trkpt><trkpt lat="43.4516742" lon="11.1422204"><ele>146.0</ele><time>2026-04-22T15:17:55.952Z</time></trkpt><trkpt lat="43.4517559" lon="11.1422437"><ele>146.0</ele><time>2026-04-22T15:17:59.941Z</time></trkpt><trkpt lat="43.4518372" lon="11.1422564"><ele>146.0</ele><time>2026-04-22T15:18:03.017Z</time></trkpt><trkpt lat="43.4519072" lon="11.1423013"><ele>146.0</ele><time>2026-04-22T15:18:05.944Z</time></trkpt><trkpt lat="43.4519774" lon="11.1423164"><ele>146.0</ele><time>2026-04-22T15:18:09.947Z</time></trkpt><trkpt lat="43.4520508" lon="11.1423159"><ele>146.0</ele><time>2026-04-22T15:18:14.005Z</time></trkpt><trkpt lat="43.4521104" lon="11.1423575"><ele>146.0</ele><time>2026-04-22T15:18:17.007Z</time></trkpt><trkpt lat="43.4521711" lon="11.1424004"><ele>146.0</ele><time>2026-04-22T15:18:19.926Z</time></trkpt><trkpt lat="43.4522271" lon="11.1424589"><ele>146.0</ele><time>2026-04-22T15:18:23.045Z</time></trkpt><trkpt lat="43.4523029" lon="11.1424586"><ele>146.0</ele><time>2026-04-22T15:18:25.938Z</time></trkpt><trkpt lat="43.4523774" lon="11.1424713"><ele>146.0</ele><time>2026-04-22T15:18:28.942Z</time></trkpt><trkpt lat="43.4524558" lon="11.1424925"><ele>147.42857142857142</ele><time>2026-04-22T15:18:31.937Z</time></trkpt><trkpt lat="43.4525182" lon="11.1425137"><ele>148.85714285714286</ele><time>2026-04-22T15:18:34.933Z</time></trkpt><trkpt lat="43.4525959" lon="11.1425421"><ele>150.28571428571428</ele><time>2026-04-22T15:18:39.007Z</time></trkpt><trkpt lat="43.4526546" lon="11.1425797"><ele>151.71428571428572</ele><time>2026-04-22T15:18:42.936Z</time></trkpt><trkpt lat="43.4527184" lon="11.1425964"><ele>153.14285714285714</ele><time>2026-04-22T15:18:46.922Z</time></trkpt><trkpt lat="43.4527912" lon="11.1426332"><ele>154.57142857142858</ele><time>2026-04-22T15:18:52.004Z</time></trkpt><trkpt lat="43.4528629" lon="11.1426459"><ele>156.0</ele><time>2026-04-22T15:18:55.941Z</time></trkpt><trkpt lat="43.4529309" lon="11.1426584"><ele>156.42857142857144</ele><time>2026-04-22T15:18:59.932Z</time></trkpt><trkpt lat="43.452994" lon="11.1426836"><ele>156.85714285714283</ele><time>2026-04-22T15:19:04.009Z</time></trkpt><trkpt lat="43.4530531" lon="11.1427268"><ele>157.28571428571428</ele><time>2026-04-22T15:19:08.015Z</time></trkpt><trkpt lat="43.4530866" lon="11.1428143"><ele>157.71428571428572</ele><time>2026-04-22T15:19:11.929Z</time></trkpt><trkpt lat="43.4531042" lon="11.1428991"><ele>158.14285714285717</ele><time>2026-04-22T15:19:19.95Z</time></trkpt><trkpt lat="43.453132" lon="11.1429913"><ele>158.57142857142856</ele><time>2026-04-22T15:19:25.945Z</time></trkpt><trkpt lat="43.4531628" lon="11.1430791"><ele>159.0</ele><time>2026-04-22T15:19:32.956Z</time></trkpt><trkpt lat="43.4531759" lon="11.1431695"><ele>161.14285714285714</ele><time>2026-04-22T15:19:35.961Z</time></trkpt><trkpt lat="43.4531985" lon="11.1432548"><ele>163.2857142857143</ele><time>2026-04-22T15:19:44.017Z</time></trkpt><trkpt lat="43.453243" lon="11.1433484"><ele>165.42857142857144</ele><time>2026-04-22T15:19:50.976Z</time></trkpt><trkpt lat="43.4532913" lon="11.143412"><ele>167.57142857142856</ele><time>2026-04-22T15:19:52.954Z</time></trkpt><trkpt lat="43.4533548" lon="11.1434536"><ele>169.71428571428572</ele><time>2026-04-22T15:19:59.963Z</time></trkpt><trkpt lat="43.4534103" lon="11.1435046"><ele>171.85714285714286</ele><time>2026-04-22T15:20:05.943Z</time></trkpt><trkpt lat="43.4534733" lon="11.1435759"><ele>174.0</ele><time>2026-04-22T15:20:21.926Z</time></trkpt><trkpt lat="43.4535213" lon="11.143642"><ele>174.0</ele><time>2026-04-22T15:20:24.936Z</time></trkpt><trkpt lat="43.4535706" lon="11.1437154"><ele>174.0</ele><time>2026-04-22T15:20:28.943Z</time></trkpt><trkpt lat="43.453599" lon="11.143808"><ele>174.0</ele><time>2026-04-22T15:20:33.006Z</time></trkpt><trkpt lat="43.4536507" lon="11.1438662"><ele>174.0</ele><time>2026-04-22T15:20:37.948Z</time></trkpt><trkpt lat="43.4537007" lon="11.1439368"><ele>174.0</ele><time>2026-04-22T15:20:42.943Z</time></trkpt><trkpt lat="43.4537481" lon="11.1440096"><ele>174.0</ele><time>2026-04-22T15:20:49.94Z</time></trkpt><trkpt lat="43.4537824" lon="11.1440998"><ele>174.0</ele><time>2026-04-22T15:20:54.955Z</time></trkpt><trkpt lat="43.4538079" lon="11.1441983"><ele>173.33333333333334</ele><time>2026-04-22T15:20:59.942Z</time></trkpt><trkpt lat="43.4538392" lon="11.1442974"><ele>172.66666666666666</ele><time>2026-04-22T15:21:04.936Z</time></trkpt><trkpt lat="43.4538664" lon="11.1443985"><ele>172.0</ele><time>2026-04-22T15:21:09.95Z</time></trkpt><trkpt lat="43.4538681" lon="11.1444978"><ele>171.33333333333331</ele><time>2026-04-22T15:21:14.947Z</time></trkpt><trkpt lat="43.4538481" lon="11.1445866"><ele>170.66666666666666</ele><time>2026-04-22T15:21:19.937Z</time></trkpt><trkpt lat="43.4538244" lon="11.1446868"><ele>170.0</ele><time>2026-04-22T15:21:24.941Z</time></trkpt><trkpt lat="43.4537978" lon="11.1447864"><ele>172.57142857142858</ele><time>2026-04-22T15:21:28.952Z</time></trkpt><trkpt lat="43.4537749" lon="11.1448758"><ele>175.14285714285714</ele><time>2026-04-22T15:21:33.952Z</time></trkpt><trkpt lat="43.4537504" lon="11.1449691"><ele>177.71428571428572</ele><time>2026-04-22T15:21:38.951Z</time></trkpt><trkpt lat="43.4537341" lon="11.1450588"><ele>180.28571428571428</ele><time>2026-04-22T15:21:43.921Z</time></trkpt><trkpt lat="43.453723" lon="11.145153"><ele>182.85714285714283</ele><time>2026-04-22T15:21:49.939Z</time></trkpt><trkpt lat="43.4537102" lon="11.1452473"><ele>185.42857142857142</ele><time>2026-04-22T15:21:54.939Z</time></trkpt><trkpt lat="43.4536994" lon="11.1453565"><ele>188.0</ele><time>2026-04-22T15:21:59.953Z</time></trkpt><trkpt lat="43.4536984" lon="11.145453"><ele>190.14285714285714</ele><time>2026-04-22T15:22:03.94Z</time></trkpt><trkpt lat="43.4536948" lon="11.1455449"><ele>192.28571428571428</ele><time>2026-04-22T15:22:07.953Z</time></trkpt><trkpt lat="43.4537074" lon="11.1456326"><ele>194.42857142857144</ele><time>2026-04-22T15:22:10.931Z</time></trkpt><trkpt lat="43.4537238" lon="11.1457275"><ele>196.57142857142856</ele><time>2026-04-22T15:22:13.935Z</time></trkpt><trkpt lat="43.4537351" lon="11.1458286"><ele>198.71428571428572</ele><time>2026-04-22T15:22:16.934Z</time></trkpt><trkpt lat="43.4537414" lon="11.1459416"><ele>200.85714285714286</ele><time>2026-04-22T15:22:19.937Z</time></trkpt><trkpt lat="43.4537433" lon="11.1460286"><ele>203.0</ele><time>2026-04-22T15:22:21.938Z</time></trkpt><trkpt lat="43.4537596" lon="11.1461272"><ele>203.33333333333334</ele><time>2026-04-22T15:22:23.954Z</time></trkpt><trkpt lat="43.4537735" lon="11.1462229"><ele>203.66666666666669</ele><time>2026-04-22T15:22:25.941Z</time></trkpt><trkpt lat="43.4537961" lon="11.1463231"><ele>204.0</ele><time>2026-04-22T15:22:27.95Z</time></trkpt><trkpt lat="43.453818" lon="11.1464256"><ele>204.33333333333331</ele><time>2026-04-22T15:22:29.937Z</time></trkpt><trkpt lat="43.4538396" lon="11.1465264"><ele>204.66666666666666</ele><time>2026-04-22T15:22:31.954Z</time></trkpt><trkpt lat="43.4538719" lon="11.1466299"><ele>205.0</ele><time>2026-04-22T15:22:33.938Z</time></trkpt><trkpt lat="43.4539096" lon="11.146743"><ele>201.16666666666666</ele><time>2026-04-22T15:22:35.958Z</time></trkpt><trkpt lat="43.4539492" lon="11.1468565"><ele>197.33333333333331</ele><time>2026-04-22T15:22:37.947Z</time></trkpt><trkpt lat="43.4539964" lon="11.1469587"><ele>193.5</ele><time>2026-04-22T15:22:39.951Z</time></trkpt><trkpt lat="43.4540576" lon="11.1470545"><ele>189.66666666666666</ele><time>2026-04-22T15:22:41.944Z</time></trkpt><trkpt lat="43.4541166" lon="11.1471511"><ele>185.83333333333331</ele><time>2026-04-22T15:22:43.95Z</time></trkpt><trkpt lat="43.4541596" lon="11.1472533"><ele>182.0</ele><time>2026-04-22T15:22:45.959Z</time></trkpt><trkpt lat="43.4542044" lon="11.1473525"><ele>182.33333333333331</ele><time>2026-04-22T15:22:47.927Z</time></trkpt><trkpt lat="43.4542508" lon="11.1474466"><ele>182.66666666666666</ele><time>2026-04-22T15:22:49.952Z</time></trkpt><trkpt lat="43.4542986" lon="11.1475365"><ele>183.0</ele><time>2026-04-22T15:22:51.95Z</time></trkpt><trkpt lat="43.4543504" lon="11.1476194"><ele>183.33333333333334</ele><time>2026-04-22T15:22:53.955Z</time></trkpt><trkpt lat="43.4544083" lon="11.1476991"><ele>183.66666666666669</ele><time>2026-04-22T15:22:55.939Z</time></trkpt><trkpt lat="43.4544653" lon="11.1477668"><ele>184.0</ele><time>2026-04-22T15:22:57.941Z</time></trkpt><trkpt lat="43.4545254" lon="11.1478276"><ele>184.0</ele><time>2026-04-22T15:22:59.957Z</time></trkpt><trkpt lat="43.4545879" lon="11.1478779"><ele>184.0</ele><time>2026-04-22T15:23:01.944Z</time></trkpt><trkpt lat="43.4546455" lon="11.1479416"><ele>184.0</ele><time>2026-04-22T15:23:03.95Z</time></trkpt><trkpt lat="43.454703" lon="11.1480027"><ele>184.0</ele><time>2026-04-22T15:23:05.959Z</time></trkpt><trkpt lat="43.4547597" lon="11.148057"><ele>184.0</ele><time>2026-04-22T15:23:07.944Z</time></trkpt><trkpt lat="43.4548147" lon="11.1481106"><ele>184.0</ele><time>2026-04-22T15:23:09.951Z</time></trkpt><trkpt lat="43.4548663" lon="11.1481622"><ele>184.0</ele><time>2026-04-22T15:23:11.949Z</time></trkpt><trkpt lat="43.4549387" lon="11.1482369"><ele>185.2857142857143</ele><time>2026-04-22T15:23:14.942Z</time></trkpt><trkpt lat="43.4549887" lon="11.1482905"><ele>186.57142857142856</ele><time>2026-04-22T15:23:16.923Z</time></trkpt><trkpt lat="43.4550429" lon="11.1483455"><ele>187.85714285714286</ele><time>2026-04-22T15:23:18.922Z</time></trkpt><trkpt lat="43.4550947" lon="11.1484064"><ele>189.14285714285717</ele><time>2026-04-22T15:23:20.946Z</time></trkpt><trkpt lat="43.4551609" lon="11.1484754"><ele>190.42857142857144</ele><time>2026-04-22T15:23:23.951Z</time></trkpt><trkpt lat="43.4552324" lon="11.1485581"><ele>191.71428571428572</ele><time>2026-04-22T15:23:26.946Z</time></trkpt><trkpt lat="43.4552825" lon="11.1486151"><ele>193.0</ele><time>2026-04-22T15:23:28.94Z</time></trkpt><trkpt lat="43.4553319" lon="11.1486697"><ele>193.00000000000003</ele><time>2026-04-22T15:23:30.934Z</time></trkpt><trkpt lat="43.4554" lon="11.1487515"><ele>193.0</ele><time>2026-04-22T15:23:33.942Z</time></trkpt><trkpt lat="43.4554526" lon="11.1488064"><ele>193.0</ele><time>2026-04-22T15:23:35.932Z</time></trkpt><trkpt lat="43.4555116" lon="11.1488489"><ele>193.0</ele><time>2026-04-22T15:23:37.939Z</time></trkpt><trkpt lat="43.4555766" lon="11.1488735"><ele>193.0</ele><time>2026-04-22T15:23:39.943Z</time></trkpt><trkpt lat="43.4556376" lon="11.1489048"><ele>193.00000000000003</ele><time>2026-04-22T15:23:41.948Z</time></trkpt><trkpt lat="43.4557023" lon="11.1489394"><ele>193.0</ele><time>2026-04-22T15:23:43.95Z</time></trkpt><trkpt lat="43.4557657" lon="11.1489765"><ele>193.49999999999997</ele><time>2026-04-22T15:23:45.952Z</time></trkpt><trkpt lat="43.4558365" lon="11.149025"><ele>194.0</ele><time>2026-04-22T15:23:48.943Z</time></trkpt><trkpt lat="43.4559118" lon="11.149055"><ele>194.5</ele><time>2026-04-22T15:23:51.942Z</time></trkpt><trkpt lat="43.4559893" lon="11.149119"><ele>195.0</ele><time>2026-04-22T15:23:54.936Z</time></trkpt><trkpt lat="43.4560442" lon="11.1491666"><ele>195.49999999999997</ele><time>2026-04-22T15:23:56.925Z</time></trkpt><trkpt lat="43.4561105" lon="11.149201"><ele>196.0</ele><time>2026-04-22T15:23:58.92Z</time></trkpt><trkpt lat="43.4561803" lon="11.1492304"><ele>196.0</ele><time>2026-04-22T15:24:00.944Z</time></trkpt><trkpt lat="43.4562483" lon="11.1492447"><ele>196.0</ele><time>2026-04-22T15:24:02.959Z</time></trkpt><trkpt lat="43.4563341" lon="11.1492324"><ele>196.0</ele><time>2026-04-22T15:24:04.942Z</time></trkpt><trkpt lat="43.4564252" lon="11.1491888"><ele>196.0</ele><time>2026-04-22T15:24:06.951Z</time></trkpt><trkpt lat="43.4565221" lon="11.1491359"><ele>196.0</ele><time>2026-04-22T15:24:08.95Z</time></trkpt><trkpt lat="43.4566185" lon="11.1490696"><ele>196.60000000000002</ele><time>2026-04-22T15:24:10.961Z</time></trkpt><trkpt lat="43.4567196" lon="11.1489885"><ele>197.2</ele><time>2026-04-22T15:24:12.949Z</time></trkpt><trkpt lat="43.4568274" lon="11.1489044"><ele>197.8</ele><time>2026-04-22T15:24:14.947Z</time></trkpt><trkpt lat="43.4568856" lon="11.1488644"><ele>198.39999999999998</ele><time>2026-04-22T15:24:15.944Z</time></trkpt><trkpt lat="43.4569463" lon="11.1488258"><ele>199.0</ele><time>2026-04-22T15:24:16.941Z</time></trkpt><trkpt lat="43.4570612" lon="11.1487629"><ele>197.39999999999998</ele><time>2026-04-22T15:24:18.953Z</time></trkpt><trkpt lat="43.4571215" lon="11.1487259"><ele>195.8</ele><time>2026-04-22T15:24:19.953Z</time></trkpt><trkpt lat="43.4572309" lon="11.1486835"><ele>194.2</ele><time>2026-04-22T15:24:21.95Z</time></trkpt><trkpt lat="43.4573176" lon="11.1486729"><ele>192.60000000000002</ele><time>2026-04-22T15:24:23.957Z</time></trkpt><trkpt lat="43.4573939" lon="11.1487283"><ele>191.0</ele><time>2026-04-22T15:24:25.947Z</time></trkpt><trkpt lat="43.4574842" lon="11.1488132"><ele>191.0</ele><time>2026-04-22T15:24:27.94Z</time></trkpt><trkpt lat="43.4575773" lon="11.1489155"><ele>191.0</ele><time>2026-04-22T15:24:29.941Z</time></trkpt><trkpt lat="43.4576692" lon="11.1490259"><ele>191.0</ele><time>2026-04-22T15:24:31.942Z</time></trkpt><trkpt lat="43.4577583" lon="11.1491238"><ele>191.0</ele><time>2026-04-22T15:24:33.942Z</time></trkpt><trkpt lat="43.4578402" lon="11.1491919"><ele>189.66666666666666</ele><time>2026-04-22T15:24:35.953Z</time></trkpt><trkpt lat="43.4579341" lon="11.149195"><ele>188.33333333333331</ele><time>2026-04-22T15:24:37.955Z</time></trkpt><trkpt lat="43.4580142" lon="11.1490952"><ele>187.0</ele><time>2026-04-22T15:24:39.951Z</time></trkpt><trkpt lat="43.4580599" lon="11.1490284"><ele>185.66666666666666</ele><time>2026-04-22T15:24:40.955Z</time></trkpt><trkpt lat="43.4581094" lon="11.1489599"><ele>184.33333333333334</ele><time>2026-04-22T15:24:41.937Z</time></trkpt><trkpt lat="43.458161" lon="11.148888"><ele>183.0</ele><time>2026-04-22T15:24:42.944Z</time></trkpt><trkpt lat="43.4582136" lon="11.1488136"><ele>182.33333333333334</ele><time>2026-04-22T15:24:43.94Z</time></trkpt><trkpt lat="43.4582649" lon="11.1487445"><ele>181.66666666666666</ele><time>2026-04-22T15:24:44.947Z</time></trkpt><trkpt lat="43.4583135" lon="11.1486859"><ele>181.0</ele><time>2026-04-22T15:24:45.951Z</time></trkpt><trkpt lat="43.4583898" lon="11.1485737"><ele>180.33333333333331</ele><time>2026-04-22T15:24:47.94Z</time></trkpt><trkpt lat="43.4584672" lon="11.1484713"><ele>179.66666666666666</ele><time>2026-04-22T15:24:49.941Z</time></trkpt><trkpt lat="43.4585297" lon="11.1483819"><ele>179.0</ele><time>2026-04-22T15:24:51.943Z</time></trkpt><trkpt lat="43.4585777" lon="11.1483099"><ele>179.0</ele><time>2026-04-22T15:24:53.945Z</time></trkpt><trkpt lat="43.4586406" lon="11.1482817"><ele>179.0</ele><time>2026-04-22T15:24:55.955Z</time></trkpt><trkpt lat="43.4587261" lon="11.1483117"><ele>179.0</ele><time>2026-04-22T15:24:57.937Z</time></trkpt><trkpt lat="43.4587976" lon="11.1483903"><ele>179.0</ele><time>2026-04-22T15:24:59.941Z</time></trkpt><trkpt lat="43.4588121" lon="11.1485108"><ele>179.0</ele><time>2026-04-22T15:25:01.944Z</time></trkpt><trkpt lat="43.458784" lon="11.1486436"><ele>179.0</ele><time>2026-04-22T15:25:03.952Z</time></trkpt><trkpt lat="43.4587217" lon="11.1487314"><ele>179.0</ele><time>2026-04-22T15:25:05.944Z</time></trkpt><trkpt lat="43.4586658" lon="11.1488215"><ele>179.0</ele><time>2026-04-22T15:25:07.952Z</time></trkpt><trkpt lat="43.4586141" lon="11.1489092"><ele>179.0</ele><time>2026-04-22T15:25:09.945Z</time></trkpt><trkpt lat="43.4585646" lon="11.1489854"><ele>179.0</ele><time>2026-04-22T15:25:11.942Z</time></trkpt><trkpt lat="43.4585035" lon="11.1490691"><ele>179.0</ele><time>2026-04-22T15:25:13.948Z</time></trkpt><trkpt lat="43.4584489" lon="11.1491534"><ele>179.0</ele><time>2026-04-22T15:25:15.941Z</time></trkpt><trkpt lat="43.4583986" lon="11.1492335"><ele>178.57142857142858</ele><time>2026-04-22T15:25:17.946Z</time></trkpt><trkpt lat="43.4583553" lon="11.149308"><ele>178.14285714285714</ele><time>2026-04-22T15:25:19.955Z</time></trkpt><trkpt lat="43.4583074" lon="11.1493826"><ele>177.71428571428572</ele><time>2026-04-22T15:25:21.945Z</time></trkpt><trkpt lat="43.4582549" lon="11.1494612"><ele>177.28571428571428</ele><time>2026-04-22T15:25:23.951Z</time></trkpt><trkpt lat="43.4582" lon="11.1495393"><ele>176.85714285714286</ele><time>2026-04-22T15:25:25.951Z</time></trkpt><trkpt lat="43.458163" lon="11.1496373"><ele>176.42857142857144</ele><time>2026-04-22T15:25:28.948Z</time></trkpt><trkpt lat="43.4581419" lon="11.1497209"><ele>176.0</ele><time>2026-04-22T15:25:37.936Z</time></trkpt><trkpt lat="43.4581679" lon="11.1498102"><ele>176.14285714285714</ele><time>2026-04-22T15:25:39.955Z</time></trkpt><trkpt lat="43.4581994" lon="11.1498923"><ele>176.28571428571428</ele><time>2026-04-22T15:25:41.941Z</time></trkpt><trkpt lat="43.4582517" lon="11.1499813"><ele>176.42857142857144</ele><time>2026-04-22T15:25:44.956Z</time></trkpt><trkpt lat="43.4582998" lon="11.1500549"><ele>176.57142857142856</ele><time>2026-04-22T15:25:47.955Z</time></trkpt><trkpt lat="43.4583518" lon="11.1501419"><ele>176.7142857142857</ele><time>2026-04-22T15:25:51.924Z</time></trkpt><trkpt lat="43.4583875" lon="11.1502145"><ele>176.85714285714286</ele><time>2026-04-22T15:25:54.968Z</time></trkpt><trkpt lat="43.4584164" lon="11.1502953"><ele>177.0</ele><time>2026-04-22T15:25:59.029Z</time></trkpt><trkpt lat="43.4584994" lon="11.1503273"><ele>177.0</ele><time>2026-04-22T15:26:07.95Z</time></trkpt><trkpt lat="43.4585639" lon="11.1502882"><ele>177.0</ele><time>2026-04-22T15:26:11.924Z</time></trkpt><trkpt lat="43.458632" lon="11.1502294"><ele>177.0</ele><time>2026-04-22T15:26:14.952Z</time></trkpt><trkpt lat="43.4587007" lon="11.1502"><ele>177.0</ele><time>2026-04-22T15:26:16.941Z</time></trkpt><trkpt lat="43.4587512" lon="11.1501409"><ele>177.0</ele><time>2026-04-22T15:26:19.014Z</time></trkpt><trkpt lat="43.4588429" lon="11.1501098"><ele>177.0</ele><time>2026-04-22T15:26:22.014Z</time></trkpt><trkpt lat="43.4589455" lon="11.1500495"><ele>177.16666666666666</ele><time>2026-04-22T15:26:24.008Z</time></trkpt><trkpt lat="43.4590444" lon="11.1499841"><ele>177.33333333333334</ele><time>2026-04-22T15:26:25.942Z</time></trkpt><trkpt lat="43.4591395" lon="11.1499301"><ele>177.5</ele><time>2026-04-22T15:26:28.01Z</time></trkpt><trkpt lat="43.4591933" lon="11.1498615"><ele>177.66666666666669</ele><time>2026-04-22T15:26:28.937Z</time></trkpt><trkpt lat="43.4592515" lon="11.1497752"><ele>177.83333333333334</ele><time>2026-04-22T15:26:29.947Z</time></trkpt><trkpt lat="43.4593259" lon="11.1497493"><ele>178.0</ele><time>2026-04-22T15:26:32.018Z</time></trkpt><trkpt lat="43.4593876" lon="11.1496822"><ele>176.83333333333334</ele><time>2026-04-22T15:26:34.008Z</time></trkpt><trkpt lat="43.4594788" lon="11.1496249"><ele>175.66666666666669</ele><time>2026-04-22T15:26:35.941Z</time></trkpt><trkpt lat="43.4595407" lon="11.1495528"><ele>174.5</ele><time>2026-04-22T15:26:38.018Z</time></trkpt><trkpt lat="43.4595889" lon="11.1494791"><ele>173.33333333333334</ele><time>2026-04-22T15:26:39.948Z</time></trkpt><trkpt lat="43.4596481" lon="11.1493933"><ele>172.16666666666666</ele><time>2026-04-22T15:26:41.943Z</time></trkpt><trkpt lat="43.4597095" lon="11.149309"><ele>171.0</ele><time>2026-04-22T15:26:43.945Z</time></trkpt><trkpt lat="43.4597656" lon="11.149226"><ele>171.0</ele><time>2026-04-22T15:26:45.924Z</time></trkpt><trkpt lat="43.4598239" lon="11.1491633"><ele>171.0</ele><time>2026-04-22T15:26:47.944Z</time></trkpt><trkpt lat="43.4598876" lon="11.1491663"><ele>171.0</ele><time>2026-04-22T15:26:49.926Z</time></trkpt><trkpt lat="43.4599662" lon="11.1492572"><ele>171.0</ele><time>2026-04-22T15:26:52.938Z</time></trkpt><trkpt lat="43.4600267" lon="11.1493258"><ele>171.0</ele><time>2026-04-22T15:26:54.941Z</time></trkpt><trkpt lat="43.460079" lon="11.1494057"><ele>171.0</ele><time>2026-04-22T15:26:57.017Z</time></trkpt><trkpt lat="43.460138" lon="11.1494768"><ele>170.99999999999997</ele><time>2026-04-22T15:26:58.943Z</time></trkpt><trkpt lat="43.4601916" lon="11.1495539"><ele>171.0</ele><time>2026-04-22T15:27:00.941Z</time></trkpt><trkpt lat="43.4602586" lon="11.1496199"><ele>171.0</ele><time>2026-04-22T15:27:02.924Z</time></trkpt><trkpt lat="43.4603137" lon="11.1496622"><ele>171.0</ele><time>2026-04-22T15:27:04.924Z</time></trkpt><trkpt lat="43.4603797" lon="11.1496632"><ele>171.0</ele><time>2026-04-22T15:27:06.927Z</time></trkpt><trkpt lat="43.4604499" lon="11.1496229"><ele>170.99999999999997</ele><time>2026-04-22T15:27:08.996Z</time></trkpt><trkpt lat="43.4605036" lon="11.1495625"><ele>171.0</ele><time>2026-04-22T15:27:10.94Z</time></trkpt><trkpt lat="43.460529" lon="11.1494584"><ele>172.33333333333334</ele><time>2026-04-22T15:27:13.012Z</time></trkpt><trkpt lat="43.4605381" lon="11.1493488"><ele>173.66666666666666</ele><time>2026-04-22T15:27:14.92Z</time></trkpt><trkpt lat="43.4605339" lon="11.1492338"><ele>175.0</ele><time>2026-04-22T15:27:16.942Z</time></trkpt><trkpt lat="43.4605251" lon="11.1491346"><ele>176.33333333333331</ele><time>2026-04-22T15:27:19.021Z</time></trkpt><trkpt lat="43.4605188" lon="11.1490334"><ele>177.66666666666666</ele><time>2026-04-22T15:27:20.939Z</time></trkpt><trkpt lat="43.4605093" lon="11.1489077"><ele>179.0</ele><time>2026-04-22T15:27:24.015Z</time></trkpt><trkpt lat="43.4605008" lon="11.1488145"><ele>179.0</ele><time>2026-04-22T15:27:25.937Z</time></trkpt><trkpt lat="43.4605108" lon="11.1487035"><ele>179.0</ele><time>2026-04-22T15:27:28.937Z</time></trkpt><trkpt lat="43.4605276" lon="11.1486107"><ele>179.0</ele><time>2026-04-22T15:27:30.933Z</time></trkpt><trkpt lat="43.4605665" lon="11.148496"><ele>179.0</ele><time>2026-04-22T15:27:34.017Z</time></trkpt><trkpt lat="43.4606104" lon="11.1483905"><ele>179.0</ele><time>2026-04-22T15:27:36.942Z</time></trkpt><trkpt lat="43.4606773" lon="11.1482912"><ele>179.0</ele><time>2026-04-22T15:27:39.938Z</time></trkpt><trkpt lat="43.4607401" lon="11.1482029"><ele>176.33333333333331</ele><time>2026-04-22T15:27:42.954Z</time></trkpt><trkpt lat="43.460801" lon="11.1481521"><ele>173.66666666666666</ele><time>2026-04-22T15:27:44.942Z</time></trkpt><trkpt lat="43.4608601" lon="11.1481129"><ele>171.0</ele><time>2026-04-22T15:27:46.952Z</time></trkpt><trkpt lat="43.4609398" lon="11.1480736"><ele>168.33333333333334</ele><time>2026-04-22T15:27:49.005Z</time></trkpt><trkpt lat="43.461007" lon="11.1480478"><ele>165.66666666666669</ele><time>2026-04-22T15:27:50.954Z</time></trkpt><trkpt lat="43.4610791" lon="11.1479952"><ele>163.0</ele><time>2026-04-22T15:27:53.006Z</time></trkpt><trkpt lat="43.4611542" lon="11.1479382"><ele>163.0</ele><time>2026-04-22T15:27:54.942Z</time></trkpt><trkpt lat="43.461229" lon="11.1478879"><ele>163.0</ele><time>2026-04-22T15:27:57.018Z</time></trkpt><trkpt lat="43.4613084" lon="11.1478313"><ele>163.0</ele><time>2026-04-22T15:27:58.938Z</time></trkpt><trkpt lat="43.4613849" lon="11.1477842"><ele>163.0</ele><time>2026-04-22T15:28:00.944Z</time></trkpt><trkpt lat="43.4614576" lon="11.1477559"><ele>163.0</ele><time>2026-04-22T15:28:03.021Z</time></trkpt><trkpt lat="43.4615298" lon="11.1477198"><ele>163.0</ele><time>2026-04-22T15:28:04.922Z</time></trkpt><trkpt lat="43.4615936" lon="11.1477004"><ele>164.16666666666669</ele><time>2026-04-22T15:28:07.01Z</time></trkpt><trkpt lat="43.4616778" lon="11.147734"><ele>165.33333333333334</ele><time>2026-04-22T15:28:09.957Z</time></trkpt><trkpt lat="43.4617588" lon="11.1478124"><ele>166.5</ele><time>2026-04-22T15:28:12.935Z</time></trkpt><trkpt lat="43.461839" lon="11.1478671"><ele>167.66666666666666</ele><time>2026-04-22T15:28:15.993Z</time></trkpt><trkpt lat="43.4618868" lon="11.1479437"><ele>168.83333333333331</ele><time>2026-04-22T15:28:19.955Z</time></trkpt><trkpt lat="43.4619304" lon="11.1480432"><ele>170.0</ele><time>2026-04-22T15:28:23.934Z</time></trkpt><trkpt lat="43.4619485" lon="11.1481491"><ele>169.16666666666666</ele><time>2026-04-22T15:28:27.95Z</time></trkpt><trkpt lat="43.4619903" lon="11.1482468"><ele>168.33333333333331</ele><time>2026-04-22T15:28:32.018Z</time></trkpt><trkpt lat="43.462005" lon="11.1483429"><ele>167.5</ele><time>2026-04-22T15:28:34.949Z</time></trkpt><trkpt lat="43.4620406" lon="11.1484478"><ele>166.66666666666666</ele><time>2026-04-22T15:28:38.005Z</time></trkpt><trkpt lat="43.4620827" lon="11.148556"><ele>165.83333333333334</ele><time>2026-04-22T15:28:40.936Z</time></trkpt><trkpt lat="43.4621265" lon="11.1486339"><ele>165.0</ele><time>2026-04-22T15:28:43.01Z</time></trkpt><trkpt lat="43.4621762" lon="11.1487066"><ele>165.0</ele><time>2026-04-22T15:28:44.937Z</time></trkpt><trkpt lat="43.4622523" lon="11.1487714"><ele>165.0</ele><time>2026-04-22T15:28:48.007Z</time></trkpt><trkpt lat="43.4623253" lon="11.1487386"><ele>165.0</ele><time>2026-04-22T15:28:50.937Z</time></trkpt><trkpt lat="43.4623988" lon="11.1486697"><ele>165.0</ele><time>2026-04-22T15:28:53.944Z</time></trkpt><trkpt lat="43.4624681" lon="11.1485999"><ele>165.0</ele><time>2026-04-22T15:28:56.953Z</time></trkpt><trkpt lat="43.462521" lon="11.1485308"><ele>165.0</ele><time>2026-04-22T15:28:59.917Z</time></trkpt><trkpt lat="43.4625802" lon="11.1484421"><ele>165.0</ele><time>2026-04-22T15:29:02.952Z</time></trkpt><trkpt lat="43.4626459" lon="11.1483823"><ele>165.0</ele><time>2026-04-22T15:29:04.935Z</time></trkpt><trkpt lat="43.462714" lon="11.1483111"><ele>165.0</ele><time>2026-04-22T15:29:08.004Z</time></trkpt><trkpt lat="43.4627815" lon="11.1482393"><ele>165.0</ele><time>2026-04-22T15:29:10.947Z</time></trkpt><trkpt lat="43.46285" lon="11.1481576"><ele>165.0</ele><time>2026-04-22T15:29:13.937Z</time></trkpt><trkpt lat="43.4629194" lon="11.1480999"><ele>165.0</ele><time>2026-04-22T15:29:16.934Z</time></trkpt><trkpt lat="43.4629891" lon="11.1480322"><ele>163.2857142857143</ele><time>2026-04-22T15:29:19.938Z</time></trkpt><trkpt lat="43.46304" lon="11.1479809"><ele>161.57142857142858</ele><time>2026-04-22T15:29:22.002Z</time></trkpt><trkpt lat="43.4631016" lon="11.1479393"><ele>159.85714285714286</ele><time>2026-04-22T15:29:24.034Z</time></trkpt><trkpt lat="43.4631609" lon="11.1478934"><ele>158.14285714285717</ele><time>2026-04-22T15:29:25.945Z</time></trkpt><trkpt lat="43.4632356" lon="11.147829"><ele>156.42857142857144</ele><time>2026-04-22T15:29:29.009Z</time></trkpt><trkpt lat="43.4632989" lon="11.147794"><ele>154.71428571428572</ele><time>2026-04-22T15:29:30.952Z</time></trkpt><trkpt lat="43.4633703" lon="11.1477435"><ele>153.0</ele><time>2026-04-22T15:29:33.016Z</time></trkpt><trkpt lat="43.4634313" lon="11.1477093"><ele>153.0</ele><time>2026-04-22T15:29:34.942Z</time></trkpt><trkpt lat="43.4634961" lon="11.1476681"><ele>153.0</ele><time>2026-04-22T15:29:37.007Z</time></trkpt><trkpt lat="43.4635604" lon="11.1476208"><ele>153.0</ele><time>2026-04-22T15:29:38.939Z</time></trkpt><trkpt lat="43.4636229" lon="11.1475509"><ele>153.0</ele><time>2026-04-22T15:29:40.936Z</time></trkpt><trkpt lat="43.4636746" lon="11.1474973"><ele>153.0</ele><time>2026-04-22T15:29:42.943Z</time></trkpt><trkpt lat="43.4637336" lon="11.147453"><ele>153.0</ele><time>2026-04-22T15:29:44.93Z</time></trkpt><trkpt lat="43.4637966" lon="11.147419"><ele>153.0</ele><time>2026-04-22T15:29:46.99Z</time></trkpt><trkpt lat="43.4638662" lon="11.1473882"><ele>150.28571428571428</ele><time>2026-04-22T15:29:48.942Z</time></trkpt><trkpt lat="43.4639465" lon="11.1473545"><ele>147.57142857142858</ele><time>2026-04-22T15:29:50.943Z</time></trkpt><trkpt lat="43.4640211" lon="11.1473403"><ele>144.85714285714286</ele><time>2026-04-22T15:29:52.932Z</time></trkpt><trkpt lat="43.4640961" lon="11.1473186"><ele>142.14285714285714</ele><time>2026-04-22T15:29:54.948Z</time></trkpt><trkpt lat="43.4641712" lon="11.1473099"><ele>139.42857142857142</ele><time>2026-04-22T15:29:56.945Z</time></trkpt><trkpt lat="43.4642378" lon="11.147308"><ele>136.71428571428572</ele><time>2026-04-22T15:29:58.984Z</time></trkpt><trkpt lat="43.4643082" lon="11.1473012"><ele>134.0</ele><time>2026-04-22T15:30:00.943Z</time></trkpt><trkpt lat="43.4643762" lon="11.1472959"><ele>134.0</ele><time>2026-04-22T15:30:03.017Z</time></trkpt><trkpt lat="43.4644486" lon="11.1472891"><ele>134.0</ele><time>2026-04-22T15:30:04.95Z</time></trkpt><trkpt lat="43.4645316" lon="11.1472919"><ele>134.0</ele><time>2026-04-22T15:30:08.018Z</time></trkpt><trkpt lat="43.4646006" lon="11.1472903"><ele>134.0</ele><time>2026-04-22T15:30:10.946Z</time></trkpt><trkpt lat="43.4646671" lon="11.1472735"><ele>134.0</ele><time>2026-04-22T15:30:13.934Z</time></trkpt><trkpt lat="43.4647412" lon="11.1472668"><ele>134.0</ele><time>2026-04-22T15:30:17.946Z</time></trkpt><trkpt lat="43.4648043" lon="11.1472707"><ele>134.0</ele><time>2026-04-22T15:30:23.014Z</time></trkpt><trkpt lat="43.4648769" lon="11.1472726"><ele>133.57142857142858</ele><time>2026-04-22T15:30:27.941Z</time></trkpt><trkpt lat="43.464944" lon="11.1473004"><ele>133.14285714285714</ele><time>2026-04-22T15:30:33.005Z</time></trkpt><trkpt lat="43.4650092" lon="11.1473096"><ele>132.71428571428572</ele><time>2026-04-22T15:30:37.943Z</time></trkpt><trkpt lat="43.4650913" lon="11.147269"><ele>132.28571428571428</ele><time>2026-04-22T15:30:40.939Z</time></trkpt><trkpt lat="43.4651703" lon="11.1472614"><ele>131.85714285714286</ele><time>2026-04-22T15:30:45.942Z</time></trkpt><trkpt lat="43.4652341" lon="11.1472519"><ele>131.42857142857144</ele><time>2026-04-22T15:30:49.019Z</time></trkpt><trkpt lat="43.4652978" lon="11.1472284"><ele>131.0</ele><time>2026-04-22T15:30:53.012Z</time></trkpt><trkpt lat="43.4653517" lon="11.1471756"><ele>131.0</ele><time>2026-04-22T15:30:57.008Z</time></trkpt><trkpt lat="43.4654291" lon="11.1471744"><ele>131.0</ele><time>2026-04-22T15:31:01.944Z</time></trkpt><trkpt lat="43.4654663" lon="11.1470902"><ele>131.0</ele><time>2026-04-22T15:31:30.958Z</time></trkpt><trkpt lat="43.4655328" lon="11.1470954"><ele>131.0</ele><time>2026-04-22T15:31:34.933Z</time></trkpt><trkpt lat="43.465618" lon="11.1470485"><ele>131.0</ele><time>2026-04-22T15:31:40.936Z</time></trkpt><trkpt lat="43.4656749" lon="11.147118"><ele>131.0</ele><time>2026-04-22T15:31:46.953Z</time></trkpt><trkpt lat="43.4657363" lon="11.1471707"><ele>130.14285714285714</ele><time>2026-04-22T15:31:51.93Z</time></trkpt><trkpt lat="43.465798" lon="11.1472249"><ele>129.2857142857143</ele><time>2026-04-22T15:31:59.945Z</time></trkpt><trkpt lat="43.4658533" lon="11.1472669"><ele>128.42857142857144</ele><time>2026-04-22T15:32:04.933Z</time></trkpt><trkpt lat="43.4659205" lon="11.1472964"><ele>127.57142857142858</ele><time>2026-04-22T15:32:08.948Z</time></trkpt><trkpt lat="43.4659819" lon="11.1473322"><ele>126.71428571428572</ele><time>2026-04-22T15:32:13.932Z</time></trkpt><trkpt lat="43.4660652" lon="11.1473849"><ele>125.85714285714286</ele><time>2026-04-22T15:32:17.941Z</time></trkpt><trkpt lat="43.4661314" lon="11.1474251"><ele>125.0</ele><time>2026-04-22T15:32:20.942Z</time></trkpt><trkpt lat="43.4662002" lon="11.1474722"><ele>124.83333333333333</ele><time>2026-04-22T15:32:24.954Z</time></trkpt><trkpt lat="43.4661844" lon="11.1475611"><ele>124.66666666666666</ele><time>2026-04-22T15:32:28.947Z</time></trkpt><trkpt lat="43.466149" lon="11.1476435"><ele>124.5</ele><time>2026-04-22T15:32:31.945Z</time></trkpt><trkpt lat="43.4661113" lon="11.1477299"><ele>124.33333333333334</ele><time>2026-04-22T15:32:34.944Z</time></trkpt><trkpt lat="43.4660848" lon="11.1478446"><ele>124.16666666666667</ele><time>2026-04-22T15:32:37.935Z</time></trkpt><trkpt lat="43.4660546" lon="11.1479393"><ele>124.0</ele><time>2026-04-22T15:32:39.955Z</time></trkpt><trkpt lat="43.4660137" lon="11.1480479"><ele>124.00000000000001</ele><time>2026-04-22T15:32:41.939Z</time></trkpt><trkpt lat="43.4659696" lon="11.1481746"><ele>124.0</ele><time>2026-04-22T15:32:43.947Z</time></trkpt><trkpt lat="43.4659287" lon="11.1482983"><ele>124.0</ele><time>2026-04-22T15:32:45.936Z</time></trkpt><trkpt lat="43.4658875" lon="11.148402"><ele>124.0</ele><time>2026-04-22T15:32:47.943Z</time></trkpt><trkpt lat="43.4658455" lon="11.1484825"><ele>124.00000000000001</ele><time>2026-04-22T15:32:49.941Z</time></trkpt><trkpt lat="43.4658031" lon="11.1485866"><ele>124.0</ele><time>2026-04-22T15:32:51.939Z</time></trkpt><trkpt lat="43.4657547" lon="11.148711"><ele>123.00000000000001</ele><time>2026-04-22T15:32:53.926Z</time></trkpt><trkpt lat="43.4657159" lon="11.1488593"><ele>122.0</ele><time>2026-04-22T15:32:55.947Z</time></trkpt><trkpt lat="43.4656933" lon="11.1489481"><ele>121.0</ele><time>2026-04-22T15:32:56.948Z</time></trkpt><trkpt lat="43.4656671" lon="11.1490367"><ele>120.0</ele><time>2026-04-22T15:32:57.943Z</time></trkpt><trkpt lat="43.4656416" lon="11.1491294"><ele>119.00000000000001</ele><time>2026-04-22T15:32:58.953Z</time></trkpt><trkpt lat="43.4656182" lon="11.1492228"><ele>118.0</ele><time>2026-04-22T15:32:59.953Z</time></trkpt><trkpt lat="43.4655934" lon="11.1493121"><ele>118.0</ele><time>2026-04-22T15:33:00.937Z</time></trkpt><trkpt lat="43.4655706" lon="11.1493987"><ele>118.0</ele><time>2026-04-22T15:33:01.942Z</time></trkpt><trkpt lat="43.4655483" lon="11.149485"><ele>118.0</ele><time>2026-04-22T15:33:02.945Z</time></trkpt><trkpt lat="43.465522" lon="11.1495684"><ele>118.0</ele><time>2026-04-22T15:33:03.95Z</time></trkpt><trkpt lat="43.4654944" lon="11.149654"><ele>118.0</ele><time>2026-04-22T15:33:04.953Z</time></trkpt><trkpt lat="43.4654666" lon="11.1497403"><ele>118.0</ele><time>2026-04-22T15:33:05.949Z</time></trkpt><trkpt lat="43.4654385" lon="11.1498253"><ele>118.0</ele><time>2026-04-22T15:33:06.943Z</time></trkpt><trkpt lat="43.4654124" lon="11.1499114"><ele>118.00000000000001</ele><time>2026-04-22T15:33:07.943Z</time></trkpt><trkpt lat="43.4653888" lon="11.149996"><ele>118.0</ele><time>2026-04-22T15:33:08.923Z</time></trkpt><trkpt lat="43.4653639" lon="11.1500808"><ele>118.0</ele><time>2026-04-22T15:33:09.946Z</time></trkpt><trkpt lat="43.46534" lon="11.1501616"><ele>118.0</ele><time>2026-04-22T15:33:10.936Z</time></trkpt><trkpt lat="43.4653183" lon="11.1502449"><ele>118.00000000000001</ele><time>2026-04-22T15:33:11.942Z</time></trkpt><trkpt lat="43.4652716" lon="11.1504004"><ele>118.0</ele><time>2026-04-22T15:33:13.953Z</time></trkpt><trkpt lat="43.4652226" lon="11.1505572"><ele>118.0</ele><time>2026-04-22T15:33:15.944Z</time></trkpt><trkpt lat="43.4651785" lon="11.1506983"><ele>118.00000000000001</ele><time>2026-04-22T15:33:17.941Z</time></trkpt><trkpt lat="43.4651401" lon="11.1508326"><ele>118.00000000000001</ele><time>2026-04-22T15:33:19.945Z</time></trkpt><trkpt lat="43.4651014" lon="11.1509686"><ele>118.0</ele><time>2026-04-22T15:33:21.956Z</time></trkpt><trkpt lat="43.4650528" lon="11.1510931"><ele>118.0</ele><time>2026-04-22T15:33:23.945Z</time></trkpt><trkpt lat="43.4650279" lon="11.1511985"><ele>117.0</ele><time>2026-04-22T15:33:25.942Z</time></trkpt><trkpt lat="43.4650395" lon="11.1512872"><ele>116.0</ele><time>2026-04-22T15:33:27.945Z</time></trkpt><trkpt lat="43.465032" lon="11.1513932"><ele>115.0</ele><time>2026-04-22T15:33:30.942Z</time></trkpt><trkpt lat="43.465009" lon="11.1514965"><ele>114.0</ele><time>2026-04-22T15:33:33.946Z</time></trkpt><trkpt lat="43.4649743" lon="11.1515915"><ele>113.0</ele><time>2026-04-22T15:33:36.947Z</time></trkpt><trkpt lat="43.464988" lon="11.1516832"><ele>112.0</ele><time>2026-04-22T15:33:40.919Z</time></trkpt><trkpt lat="43.4649765" lon="11.1517758"><ele>111.0</ele><time>2026-04-22T15:33:44.939Z</time></trkpt><trkpt lat="43.4650241" lon="11.1518365"><ele>110.25</ele><time>2026-04-22T15:33:47.952Z</time></trkpt><trkpt lat="43.4650452" lon="11.1519304"><ele>109.5</ele><time>2026-04-22T15:35:00.945Z</time></trkpt><trkpt lat="43.4652035" lon="11.1520497"><ele>108.75</ele><time>2026-04-22T15:36:13.008Z</time></trkpt><trkpt lat="43.465096" lon="11.1519737"><ele>108.0</ele><time>2026-04-22T15:36:14.002Z</time></trkpt><trkpt lat="43.4650187" lon="11.1519768"><ele>108.0</ele><time>2026-04-22T15:37:25.911Z</time></trkpt><trkpt lat="43.4650767" lon="11.1519198"><ele>108.0</ele><time>2026-04-22T15:38:18.014Z</time></trkpt><trkpt lat="43.4650567" lon="11.1518095"><ele>108.0</ele><time>2026-04-22T15:40:06.912Z</time></trkpt><trkpt lat="43.4650622" lon="11.1519005"><ele>108.0</ele><time>2026-04-22T15:40:50.939Z</time></trkpt><trkpt lat="43.4650198" lon="11.1519726"><ele>108.0</ele><time>2026-04-22T15:43:17.929Z</time></trkpt><trkpt lat="43.4650431" lon="11.1518918"><ele>108.0</ele><time>2026-04-22T15:43:25.952Z</time></trkpt><trkpt lat="43.4649668" lon="11.1518456"><ele>108.0</ele><time>2026-04-22T15:43:35.938Z</time></trkpt><trkpt lat="43.4649755" lon="11.151753"><ele>108.0</ele><time>2026-04-22T15:43:41.953Z</time></trkpt><trkpt lat="43.4650086" lon="11.1516612"><ele>108.0</ele><time>2026-04-22T15:43:45.92Z</time></trkpt><trkpt lat="43.4650551" lon="11.1515821"><ele>108.0</ele><time>2026-04-22T15:43:49.939Z</time></trkpt><trkpt lat="43.4651067" lon="11.1514835"><ele>108.0</ele><time>2026-04-22T15:43:54.02Z</time></trkpt><trkpt lat="43.4651385" lon="11.1513938"><ele>108.0</ele><time>2026-04-22T15:43:56.917Z</time></trkpt><trkpt lat="43.4651531" lon="11.1513001"><ele>108.0</ele><time>2026-04-22T15:44:00.012Z</time></trkpt><trkpt lat="43.4651367" lon="11.1512106"><ele>108.0</ele><time>2026-04-22T15:44:03.948Z</time></trkpt><trkpt lat="43.4650703" lon="11.1512113"><ele>108.5</ele><time>2026-04-22T15:44:06.943Z</time></trkpt><trkpt lat="43.4650026" lon="11.1512826"><ele>109.0</ele><time>2026-04-22T15:44:09.952Z</time></trkpt><trkpt lat="43.4649296" lon="11.1512951"><ele>109.5</ele><time>2026-04-22T15:44:13.931Z</time></trkpt><trkpt lat="43.4648502" lon="11.1513334"><ele>110.0</ele><time>2026-04-22T15:44:16.935Z</time></trkpt><trkpt lat="43.4647845" lon="11.1513161"><ele>110.5</ele><time>2026-04-22T15:44:19.023Z</time></trkpt><trkpt lat="43.4647335" lon="11.1512495"><ele>111.0</ele><time>2026-04-22T15:44:20.921Z</time></trkpt><trkpt lat="43.4646764" lon="11.1511785"><ele>110.66666666666667</ele><time>2026-04-22T15:44:23.016Z</time></trkpt><trkpt lat="43.4645906" lon="11.1512321"><ele>110.33333333333334</ele><time>2026-04-22T15:44:25.922Z</time></trkpt><trkpt lat="43.4645402" lon="11.1513089"><ele>110.0</ele><time>2026-04-22T15:44:27.938Z</time></trkpt><trkpt lat="43.4645042" lon="11.1513958"><ele>109.66666666666667</ele><time>2026-04-22T15:44:30.012Z</time></trkpt><trkpt lat="43.4644376" lon="11.1514654"><ele>109.33333333333334</ele><time>2026-04-22T15:44:31.925Z</time></trkpt><trkpt lat="43.4643848" lon="11.1515697"><ele>109.0</ele><time>2026-04-22T15:44:34.947Z</time></trkpt><trkpt lat="43.464328" lon="11.1516685"><ele>109.00000000000001</ele><time>2026-04-22T15:44:37.941Z</time></trkpt><trkpt lat="43.4642715" lon="11.1517737"><ele>109.0</ele><time>2026-04-22T15:44:40.945Z</time></trkpt><trkpt lat="43.4642181" lon="11.1518803"><ele>109.0</ele><time>2026-04-22T15:44:44.006Z</time></trkpt><trkpt lat="43.4641722" lon="11.1519891"><ele>109.0</ele><time>2026-04-22T15:44:46.941Z</time></trkpt><trkpt lat="43.4641328" lon="11.1520663"><ele>109.00000000000001</ele><time>2026-04-22T15:44:48.917Z</time></trkpt><trkpt lat="43.4640931" lon="11.1521383"><ele>109.0</ele><time>2026-04-22T15:44:50.941Z</time></trkpt><trkpt lat="43.4640364" lon="11.1522237"><ele>109.0</ele><time>2026-04-22T15:44:53.932Z</time></trkpt><trkpt lat="43.4639842" lon="11.1522989"><ele>109.0</ele><time>2026-04-22T15:44:55.945Z</time></trkpt><trkpt lat="43.4639325" lon="11.1523654"><ele>109.0</ele><time>2026-04-22T15:44:58.012Z</time></trkpt><trkpt lat="43.463897" lon="11.1524538"><ele>109.0</ele><time>2026-04-22T15:45:00.008Z</time></trkpt><trkpt lat="43.4638574" lon="11.1525382"><ele>109.0</ele><time>2026-04-22T15:45:01.948Z</time></trkpt><trkpt lat="43.4638195" lon="11.15262"><ele>109.0</ele><time>2026-04-22T15:45:03.937Z</time></trkpt><trkpt lat="43.4637725" lon="11.152704"><ele>109.0</ele><time>2026-04-22T15:45:05.941Z</time></trkpt><trkpt lat="43.4637163" lon="11.152781"><ele>110.66666666666667</ele><time>2026-04-22T15:45:08.002Z</time></trkpt><trkpt lat="43.4635695" lon="11.1530713"><ele>112.33333333333334</ele><time>2026-04-22T15:45:12.925Z</time></trkpt><trkpt lat="43.4634929" lon="11.1531692"><ele>114.0</ele><time>2026-04-22T15:45:14.95Z</time></trkpt><trkpt lat="43.4634531" lon="11.1532824"><ele>114.0</ele><time>2026-04-22T15:45:18.943Z</time></trkpt><trkpt lat="43.4634088" lon="11.1533723"><ele>114.0</ele><time>2026-04-22T15:45:20.944Z</time></trkpt><trkpt lat="43.4633647" lon="11.1534677"><ele>114.0</ele><time>2026-04-22T15:45:22.947Z</time></trkpt><trkpt lat="43.4633302" lon="11.1535659"><ele>114.0</ele><time>2026-04-22T15:45:24.95Z</time></trkpt><trkpt lat="43.4632897" lon="11.1536587"><ele>114.0</ele><time>2026-04-22T15:45:26.951Z</time></trkpt><trkpt lat="43.4632509" lon="11.1537561"><ele>114.0</ele><time>2026-04-22T15:45:28.944Z</time></trkpt><trkpt lat="43.4632125" lon="11.1538519"><ele>114.0</ele><time>2026-04-22T15:45:30.944Z</time></trkpt><trkpt lat="43.4631706" lon="11.153949"><ele>114.0</ele><time>2026-04-22T15:45:32.938Z</time></trkpt><trkpt lat="43.4631406" lon="11.1540549"><ele>114.0</ele><time>2026-04-22T15:45:34.937Z</time></trkpt><trkpt lat="43.4631145" lon="11.1541565"><ele>114.0</ele><time>2026-04-22T15:45:36.933Z</time></trkpt><trkpt lat="43.4630892" lon="11.1542518"><ele>114.0</ele><time>2026-04-22T15:45:38.945Z</time></trkpt><trkpt lat="43.4630595" lon="11.1543539"><ele>114.0</ele><time>2026-04-22T15:45:40.95Z</time></trkpt><trkpt lat="43.463029" lon="11.1544569"><ele>114.0</ele><time>2026-04-22T15:45:42.935Z</time></trkpt><trkpt lat="43.462999" lon="11.1545743"><ele>114.0</ele><time>2026-04-22T15:45:45.016Z</time></trkpt><trkpt lat="43.4629502" lon="11.1546327"><ele>114.0</ele><time>2026-04-22T15:45:46.931Z</time></trkpt><trkpt lat="43.4629121" lon="11.1547282"><ele>114.0</ele><time>2026-04-22T15:45:48.937Z</time></trkpt><trkpt lat="43.4628642" lon="11.1548153"><ele>114.0</ele><time>2026-04-22T15:45:50.942Z</time></trkpt><trkpt lat="43.462837" lon="11.154908"><ele>114.0</ele><time>2026-04-22T15:45:52.941Z</time></trkpt><trkpt lat="43.4628223" lon="11.1549944"><ele>114.0</ele><time>2026-04-22T15:45:54.932Z</time></trkpt><trkpt lat="43.4627777" lon="11.1551418"><ele>114.0</ele><time>2026-04-22T15:45:57.955Z</time></trkpt><trkpt lat="43.4627078" lon="11.1553136"><ele>114.0</ele><time>2026-04-22T15:46:01.965Z</time></trkpt><trkpt lat="43.4626829" lon="11.1553952"><ele>114.0</ele><time>2026-04-22T15:46:03.939Z</time></trkpt><trkpt lat="43.4626549" lon="11.1554825"><ele>114.0</ele><time>2026-04-22T15:46:05.956Z</time></trkpt><trkpt lat="43.4626299" lon="11.1556005"><ele>114.0</ele><time>2026-04-22T15:46:07.941Z</time></trkpt><trkpt lat="43.4626015" lon="11.1556902"><ele>113.99999999999999</ele><time>2026-04-22T15:46:09.946Z</time></trkpt><trkpt lat="43.4625711" lon="11.1557751"><ele>114.0</ele><time>2026-04-22T15:46:11.954Z</time></trkpt><trkpt lat="43.4625426" lon="11.1558637"><ele>114.0</ele><time>2026-04-22T15:46:13.934Z</time></trkpt><trkpt lat="43.4625098" lon="11.1559925"><ele>113.99999999999999</ele><time>2026-04-22T15:46:15.928Z</time></trkpt><trkpt lat="43.462483" lon="11.1560783"><ele>114.0</ele><time>2026-04-22T15:46:17.932Z</time></trkpt><trkpt lat="43.4624617" lon="11.1561636"><ele>114.0</ele><time>2026-04-22T15:46:19.927Z</time></trkpt><trkpt lat="43.462436" lon="11.1562451"><ele>113.71428571428571</ele><time>2026-04-22T15:46:21.922Z</time></trkpt><trkpt lat="43.4624119" lon="11.1563309"><ele>113.42857142857142</ele><time>2026-04-22T15:46:23.934Z</time></trkpt><trkpt lat="43.4623668" lon="11.15645"><ele>113.14285714285714</ele><time>2026-04-22T15:46:26.935Z</time></trkpt><trkpt lat="43.4623289" lon="11.1565447"><ele>112.85714285714286</ele><time>2026-04-22T15:46:28.936Z</time></trkpt><trkpt lat="43.4622996" lon="11.1566306"><ele>112.57142857142857</ele><time>2026-04-22T15:46:30.935Z</time></trkpt><trkpt lat="43.4622739" lon="11.1567161"><ele>112.28571428571428</ele><time>2026-04-22T15:46:32.931Z</time></trkpt><trkpt lat="43.4622458" lon="11.1567942"><ele>112.0</ele><time>2026-04-22T15:46:34.932Z</time></trkpt><trkpt lat="43.4622162" lon="11.1568764"><ele>112.0</ele><time>2026-04-22T15:46:36.94Z</time></trkpt><trkpt lat="43.4621907" lon="11.1569646"><ele>112.0</ele><time>2026-04-22T15:46:38.932Z</time></trkpt><trkpt lat="43.4621658" lon="11.1570525"><ele>112.0</ele><time>2026-04-22T15:46:40.929Z</time></trkpt><trkpt lat="43.4621376" lon="11.1571501"><ele>112.0</ele><time>2026-04-22T15:46:42.927Z</time></trkpt><trkpt lat="43.4621121" lon="11.157241"><ele>112.0</ele><time>2026-04-22T15:46:44.942Z</time></trkpt><trkpt lat="43.4620828" lon="11.1573246"><ele>112.0</ele><time>2026-04-22T15:46:46.939Z</time></trkpt><trkpt lat="43.4620478" lon="11.1574168"><ele>112.0</ele><time>2026-04-22T15:46:48.933Z</time></trkpt><trkpt lat="43.4620107" lon="11.1575198"><ele>112.16666666666667</ele><time>2026-04-22T15:46:50.931Z</time></trkpt><trkpt lat="43.4619804" lon="11.1576252"><ele>112.33333333333334</ele><time>2026-04-22T15:46:52.932Z</time></trkpt><trkpt lat="43.461938" lon="11.15773"><ele>112.5</ele><time>2026-04-22T15:46:54.938Z</time></trkpt><trkpt lat="43.4619" lon="11.157827"><ele>112.66666666666666</ele><time>2026-04-22T15:46:56.931Z</time></trkpt><trkpt lat="43.4618595" lon="11.1579069"><ele>112.83333333333333</ele><time>2026-04-22T15:46:58.933Z</time></trkpt><trkpt lat="43.4618221" lon="11.1579871"><ele>113.0</ele><time>2026-04-22T15:47:00.94Z</time></trkpt><trkpt lat="43.4617718" lon="11.1580734"><ele>112.99999999999999</ele><time>2026-04-22T15:47:02.937Z</time></trkpt><trkpt lat="43.4617214" lon="11.1581488"><ele>113.0</ele><time>2026-04-22T15:47:04.932Z</time></trkpt><trkpt lat="43.4616699" lon="11.1582277"><ele>113.0</ele><time>2026-04-22T15:47:06.922Z</time></trkpt><trkpt lat="43.4616141" lon="11.1582969"><ele>113.0</ele><time>2026-04-22T15:47:08.933Z</time></trkpt><trkpt lat="43.4615389" lon="11.1583513"><ele>112.99999999999999</ele><time>2026-04-22T15:47:10.926Z</time></trkpt><trkpt lat="43.4614678" lon="11.1583931"><ele>113.0</ele><time>2026-04-22T15:47:12.935Z</time></trkpt><trkpt lat="43.4614082" lon="11.1584425"><ele>113.16666666666666</ele><time>2026-04-22T15:47:14.93Z</time></trkpt><trkpt lat="43.4613484" lon="11.1584923"><ele>113.33333333333333</ele><time>2026-04-22T15:47:16.933Z</time></trkpt><trkpt lat="43.4612803" lon="11.1585426"><ele>113.5</ele><time>2026-04-22T15:47:18.931Z</time></trkpt><trkpt lat="43.4611971" lon="11.1586056"><ele>113.66666666666666</ele><time>2026-04-22T15:47:21.934Z</time></trkpt><trkpt lat="43.4611301" lon="11.1586417"><ele>113.83333333333333</ele><time>2026-04-22T15:47:23.934Z</time></trkpt><trkpt lat="43.461045" lon="11.1586816"><ele>114.0</ele><time>2026-04-22T15:47:25.936Z</time></trkpt><trkpt lat="43.4609545" lon="11.1586968"><ele>115.0</ele><time>2026-04-22T15:47:27.942Z</time></trkpt><trkpt lat="43.4608773" lon="11.1587032"><ele>116.0</ele><time>2026-04-22T15:47:29.926Z</time></trkpt><trkpt lat="43.4607995" lon="11.1587161"><ele>117.0</ele><time>2026-04-22T15:47:31.944Z</time></trkpt><trkpt lat="43.4607235" lon="11.1587176"><ele>118.0</ele><time>2026-04-22T15:47:33.936Z</time></trkpt><trkpt lat="43.4606544" lon="11.1587183"><ele>119.0</ele><time>2026-04-22T15:47:35.941Z</time></trkpt><trkpt lat="43.4605708" lon="11.1587204"><ele>120.0</ele><time>2026-04-22T15:47:37.926Z</time></trkpt><trkpt lat="43.4604958" lon="11.1587279"><ele>120.66666666666667</ele><time>2026-04-22T15:47:39.93Z</time></trkpt><trkpt lat="43.4604176" lon="11.1587336"><ele>121.33333333333334</ele><time>2026-04-22T15:47:41.931Z</time></trkpt><trkpt lat="43.4603353" lon="11.1587285"><ele>122.0</ele><time>2026-04-22T15:47:43.929Z</time></trkpt><trkpt lat="43.4602589" lon="11.1587258"><ele>122.66666666666667</ele><time>2026-04-22T15:47:45.938Z</time></trkpt><trkpt lat="43.4601843" lon="11.1587208"><ele>123.33333333333334</ele><time>2026-04-22T15:47:47.93Z</time></trkpt><trkpt lat="43.4601183" lon="11.1587057"><ele>124.0</ele><time>2026-04-22T15:47:49.929Z</time></trkpt><trkpt lat="43.4600458" lon="11.1586936"><ele>124.0</ele><time>2026-04-22T15:47:51.927Z</time></trkpt><trkpt lat="43.4599773" lon="11.1586844"><ele>124.00000000000001</ele><time>2026-04-22T15:47:53.935Z</time></trkpt><trkpt lat="43.4599111" lon="11.1586676"><ele>124.0</ele><time>2026-04-22T15:47:55.954Z</time></trkpt><trkpt lat="43.4598433" lon="11.1586327"><ele>124.0</ele><time>2026-04-22T15:47:57.928Z</time></trkpt><trkpt lat="43.4597733" lon="11.1585855"><ele>124.00000000000001</ele><time>2026-04-22T15:47:59.944Z</time></trkpt><trkpt lat="43.4597121" lon="11.1585489"><ele>124.0</ele><time>2026-04-22T15:48:01.921Z</time></trkpt><trkpt lat="43.4596507" lon="11.1585146"><ele>124.0</ele><time>2026-04-22T15:48:03.928Z</time></trkpt><trkpt lat="43.4595959" lon="11.1584653"><ele>123.71428571428572</ele><time>2026-04-22T15:48:05.935Z</time></trkpt><trkpt lat="43.4595438" lon="11.1584124"><ele>123.42857142857144</ele><time>2026-04-22T15:48:07.944Z</time></trkpt><trkpt lat="43.4594838" lon="11.1583622"><ele>123.14285714285714</ele><time>2026-04-22T15:48:09.935Z</time></trkpt><trkpt lat="43.4594246" lon="11.1583091"><ele>122.85714285714286</ele><time>2026-04-22T15:48:11.942Z</time></trkpt><trkpt lat="43.4593663" lon="11.1582472"><ele>122.57142857142857</ele><time>2026-04-22T15:48:13.938Z</time></trkpt><trkpt lat="43.4592934" lon="11.1581857"><ele>122.28571428571428</ele><time>2026-04-22T15:48:16.936Z</time></trkpt><trkpt lat="43.459234" lon="11.1582165"><ele>121.99999999999999</ele><time>2026-04-22T15:48:24.93Z</time></trkpt><trkpt lat="43.4591632" lon="11.1581637"><ele>121.83333333333333</ele><time>2026-04-22T15:48:27.953Z</time></trkpt><trkpt lat="43.4591105" lon="11.1581132"><ele>121.66666666666666</ele><time>2026-04-22T15:48:29.939Z</time></trkpt><trkpt lat="43.4590361" lon="11.1580985"><ele>121.5</ele><time>2026-04-22T15:48:32.944Z</time></trkpt><trkpt lat="43.4589562" lon="11.1581362"><ele>121.33333333333334</ele><time>2026-04-22T15:48:35.945Z</time></trkpt><trkpt lat="43.458873" lon="11.1580758"><ele>121.16666666666667</ele><time>2026-04-22T15:48:38.931Z</time></trkpt><trkpt lat="43.4588131" lon="11.1580265"><ele>121.0</ele><time>2026-04-22T15:48:40.926Z</time></trkpt><trkpt lat="43.4587401" lon="11.1579606"><ele>121.0</ele><time>2026-04-22T15:48:42.946Z</time></trkpt><trkpt lat="43.4586763" lon="11.1579027"><ele>120.99999999999999</ele><time>2026-04-22T15:48:44.922Z</time></trkpt><trkpt lat="43.4586126" lon="11.1578461"><ele>121.0</ele><time>2026-04-22T15:48:46.926Z</time></trkpt><trkpt lat="43.4585507" lon="11.1578002"><ele>121.0</ele><time>2026-04-22T15:48:48.929Z</time></trkpt><trkpt lat="43.4584986" lon="11.157748"><ele>120.99999999999999</ele><time>2026-04-22T15:48:50.94Z</time></trkpt><trkpt lat="43.4584394" lon="11.1577023"><ele>121.0</ele><time>2026-04-22T15:48:52.926Z</time></trkpt><trkpt lat="43.4583848" lon="11.1576406"><ele>121.0</ele><time>2026-04-22T15:48:54.931Z</time></trkpt><trkpt lat="43.4583184" lon="11.1575713"><ele>121.00000000000001</ele><time>2026-04-22T15:48:56.921Z</time></trkpt><trkpt lat="43.4582369" lon="11.157497"><ele>121.0</ele><time>2026-04-22T15:48:58.929Z</time></trkpt><trkpt lat="43.4581676" lon="11.1574368"><ele>121.0</ele><time>2026-04-22T15:49:00.923Z</time></trkpt><trkpt lat="43.4581069" lon="11.1573655"><ele>121.0</ele><time>2026-04-22T15:49:02.923Z</time></trkpt><trkpt lat="43.4580415" lon="11.1573045"><ele>121.00000000000001</ele><time>2026-04-22T15:49:04.927Z</time></trkpt><trkpt lat="43.4579727" lon="11.1572489"><ele>121.0</ele><time>2026-04-22T15:49:06.933Z</time></trkpt><trkpt lat="43.4578986" lon="11.1571915"><ele>120.50000000000001</ele><time>2026-04-22T15:49:08.941Z</time></trkpt><trkpt lat="43.4578439" lon="11.1571408"><ele>120.0</ele><time>2026-04-22T15:49:10.935Z</time></trkpt><trkpt lat="43.4577794" lon="11.1570771"><ele>119.5</ele><time>2026-04-22T15:49:13.942Z</time></trkpt><trkpt lat="43.457703" lon="11.1570776"><ele>119.0</ele><time>2026-04-22T15:49:16.932Z</time></trkpt><trkpt lat="43.4576643" lon="11.1571724"><ele>118.50000000000001</ele><time>2026-04-22T15:49:18.93Z</time></trkpt><trkpt lat="43.4576364" lon="11.1572892"><ele>118.0</ele><time>2026-04-22T15:49:20.954Z</time></trkpt><trkpt lat="43.4575931" lon="11.1574182"><ele>117.16666666666667</ele><time>2026-04-22T15:49:22.928Z</time></trkpt><trkpt lat="43.4575622" lon="11.1575691"><ele>116.33333333333334</ele><time>2026-04-22T15:49:24.931Z</time></trkpt><trkpt lat="43.4575824" lon="11.1577442"><ele>115.5</ele><time>2026-04-22T15:49:26.928Z</time></trkpt><trkpt lat="43.4576105" lon="11.1578247"><ele>114.66666666666666</ele><time>2026-04-22T15:49:27.926Z</time></trkpt><trkpt lat="43.4576429" lon="11.157909"><ele>113.83333333333333</ele><time>2026-04-22T15:49:28.932Z</time></trkpt><trkpt lat="43.4576729" lon="11.157992"><ele>113.0</ele><time>2026-04-22T15:49:29.936Z</time></trkpt><trkpt lat="43.4577077" lon="11.1581179"><ele>111.80000000000001</ele><time>2026-04-22T15:49:31.929Z</time></trkpt><trkpt lat="43.4577418" lon="11.1582411"><ele>110.60000000000001</ele><time>2026-04-22T15:49:33.942Z</time></trkpt><trkpt lat="43.4577725" lon="11.1583754"><ele>109.39999999999999</ele><time>2026-04-22T15:49:35.939Z</time></trkpt><trkpt lat="43.4577591" lon="11.1585243"><ele>108.19999999999999</ele><time>2026-04-22T15:49:37.932Z</time></trkpt><trkpt lat="43.4576914" lon="11.1586226"><ele>107.0</ele><time>2026-04-22T15:49:39.936Z</time></trkpt><trkpt lat="43.4576078" lon="11.1586938"><ele>107.0</ele><time>2026-04-22T15:49:41.943Z</time></trkpt><trkpt lat="43.4575311" lon="11.1587499"><ele>106.99999999999999</ele><time>2026-04-22T15:49:43.94Z</time></trkpt><trkpt lat="43.4574371" lon="11.1587557"><ele>106.99999999999999</ele><time>2026-04-22T15:49:45.925Z</time></trkpt><trkpt lat="43.4573284" lon="11.1587238"><ele>107.0</ele><time>2026-04-22T15:49:47.931Z</time></trkpt><trkpt lat="43.4572172" lon="11.1586993"><ele>107.0</ele><time>2026-04-22T15:49:49.932Z</time></trkpt><trkpt lat="43.4571126" lon="11.1586815"><ele>106.8</ele><time>2026-04-22T15:49:51.925Z</time></trkpt><trkpt lat="43.4570137" lon="11.158662"><ele>106.6</ele><time>2026-04-22T15:49:53.936Z</time></trkpt><trkpt lat="43.4569064" lon="11.158634"><ele>106.39999999999999</ele><time>2026-04-22T15:49:55.932Z</time></trkpt><trkpt lat="43.4568127" lon="11.1586323"><ele>106.19999999999999</ele><time>2026-04-22T15:49:57.931Z</time></trkpt><trkpt lat="43.4567462" lon="11.1586512"><ele>106.0</ele><time>2026-04-22T15:49:59.928Z</time></trkpt><trkpt lat="43.456703" lon="11.1585596"><ele>106.00000000000001</ele><time>2026-04-22T15:50:02.926Z</time></trkpt><trkpt lat="43.4566657" lon="11.1584602"><ele>106.0</ele><time>2026-04-22T15:50:04.949Z</time></trkpt><trkpt lat="43.4565774" lon="11.1583474"><ele>106.0</ele><time>2026-04-22T15:50:06.949Z</time></trkpt><trkpt lat="43.4565213" lon="11.1582958"><ele>106.0</ele><time>2026-04-22T15:50:07.933Z</time></trkpt><trkpt lat="43.4564667" lon="11.1582507"><ele>106.00000000000001</ele><time>2026-04-22T15:50:08.952Z</time></trkpt><trkpt lat="43.4564081" lon="11.1582104"><ele>106.0</ele><time>2026-04-22T15:50:09.94Z</time></trkpt><trkpt lat="43.4563468" lon="11.1581667"><ele>106.19999999999999</ele><time>2026-04-22T15:50:10.94Z</time></trkpt><trkpt lat="43.4562828" lon="11.1581252"><ele>106.39999999999999</ele><time>2026-04-22T15:50:11.936Z</time></trkpt><trkpt lat="43.4562225" lon="11.1580922"><ele>106.6</ele><time>2026-04-22T15:50:12.93Z</time></trkpt><trkpt lat="43.4561042" lon="11.1580519"><ele>106.8</ele><time>2026-04-22T15:50:14.926Z</time></trkpt><trkpt lat="43.4559961" lon="11.1580318"><ele>107.0</ele><time>2026-04-22T15:50:16.935Z</time></trkpt><trkpt lat="43.4558819" lon="11.1580156"><ele>106.99999999999999</ele><time>2026-04-22T15:50:18.936Z</time></trkpt><trkpt lat="43.4557841" lon="11.1579951"><ele>107.0</ele><time>2026-04-22T15:50:20.936Z</time></trkpt><trkpt lat="43.4556931" lon="11.1580018"><ele>107.0</ele><time>2026-04-22T15:50:22.927Z</time></trkpt><trkpt lat="43.4556133" lon="11.1580183"><ele>107.0</ele><time>2026-04-22T15:50:24.938Z</time></trkpt><trkpt lat="43.4555376" lon="11.158028"><ele>106.99999999999999</ele><time>2026-04-22T15:50:26.941Z</time></trkpt><trkpt lat="43.4554731" lon="11.1580194"><ele>107.0</ele><time>2026-04-22T15:50:28.943Z</time></trkpt><trkpt lat="43.4553975" lon="11.1579982"><ele>107.16666666666666</ele><time>2026-04-22T15:50:30.944Z</time></trkpt><trkpt lat="43.4553144" lon="11.157982"><ele>107.33333333333333</ele><time>2026-04-22T15:50:32.937Z</time></trkpt><trkpt lat="43.4552402" lon="11.1579225"><ele>107.5</ele><time>2026-04-22T15:50:34.93Z</time></trkpt><trkpt lat="43.455178" lon="11.1578451"><ele>107.66666666666666</ele><time>2026-04-22T15:50:36.923Z</time></trkpt><trkpt lat="43.4551138" lon="11.1577637"><ele>107.83333333333333</ele><time>2026-04-22T15:50:38.927Z</time></trkpt><trkpt lat="43.455047" lon="11.1576606"><ele>108.0</ele><time>2026-04-22T15:50:40.93Z</time></trkpt><trkpt lat="43.4549777" lon="11.1575522"><ele>108.0</ele><time>2026-04-22T15:50:42.933Z</time></trkpt><trkpt lat="43.454901" lon="11.157454"><ele>108.00000000000001</ele><time>2026-04-22T15:50:44.927Z</time></trkpt><trkpt lat="43.4548297" lon="11.1573427"><ele>108.00000000000001</ele><time>2026-04-22T15:50:46.93Z</time></trkpt><trkpt lat="43.4547572" lon="11.1572332"><ele>108.0</ele><time>2026-04-22T15:50:48.932Z</time></trkpt><trkpt lat="43.4546796" lon="11.1571256"><ele>108.0</ele><time>2026-04-22T15:50:50.93Z</time></trkpt><trkpt lat="43.4546069" lon="11.1570209"><ele>108.4</ele><time>2026-04-22T15:50:52.934Z</time></trkpt><trkpt lat="43.4545409" lon="11.1569162"><ele>108.80000000000001</ele><time>2026-04-22T15:50:54.941Z</time></trkpt><trkpt lat="43.4544711" lon="11.1568119"><ele>109.2</ele><time>2026-04-22T15:50:56.937Z</time></trkpt><trkpt lat="43.4544019" lon="11.1567219"><ele>109.6</ele><time>2026-04-22T15:50:58.944Z</time></trkpt><trkpt lat="43.4543356" lon="11.1566373"><ele>110.0</ele><time>2026-04-22T15:51:00.949Z</time></trkpt><trkpt lat="43.4542721" lon="11.1565502"><ele>109.4</ele><time>2026-04-22T15:51:02.938Z</time></trkpt><trkpt lat="43.4542088" lon="11.1564542"><ele>108.8</ele><time>2026-04-22T15:51:04.931Z</time></trkpt><trkpt lat="43.4541424" lon="11.1563669"><ele>108.19999999999999</ele><time>2026-04-22T15:51:06.927Z</time></trkpt><trkpt lat="43.4540798" lon="11.1562637"><ele>107.6</ele><time>2026-04-22T15:51:08.941Z</time></trkpt><trkpt lat="43.4540146" lon="11.1561693"><ele>107.0</ele><time>2026-04-22T15:51:10.924Z</time></trkpt><trkpt lat="43.4539519" lon="11.1560835"><ele>107.0</ele><time>2026-04-22T15:51:12.943Z</time></trkpt><trkpt lat="43.4538974" lon="11.1559807"><ele>106.99999999999999</ele><time>2026-04-22T15:51:14.935Z</time></trkpt><trkpt lat="43.4538413" lon="11.1558862"><ele>106.99999999999999</ele><time>2026-04-22T15:51:16.932Z</time></trkpt><trkpt lat="43.4537668" lon="11.1558101"><ele>107.0</ele><time>2026-04-22T15:51:18.928Z</time></trkpt><trkpt lat="43.453694" lon="11.1557302"><ele>107.0</ele><time>2026-04-22T15:51:20.934Z</time></trkpt><trkpt lat="43.453668" lon="11.1556113"><ele>107.39999999999999</ele><time>2026-04-22T15:51:22.925Z</time></trkpt><trkpt lat="43.453693" lon="11.1554975"><ele>107.79999999999998</ele><time>2026-04-22T15:51:24.931Z</time></trkpt><trkpt lat="43.4536961" lon="11.1553763"><ele>108.2</ele><time>2026-04-22T15:51:26.92Z</time></trkpt><trkpt lat="43.4536211" lon="11.1552953"><ele>108.6</ele><time>2026-04-22T15:51:28.933Z</time></trkpt><trkpt lat="43.4535245" lon="11.1552546"><ele>109.0</ele><time>2026-04-22T15:51:30.932Z</time></trkpt><trkpt lat="43.4534504" lon="11.1552056"><ele>109.00000000000001</ele><time>2026-04-22T15:51:32.931Z</time></trkpt><trkpt lat="43.4533778" lon="11.1551527"><ele>109.0</ele><time>2026-04-22T15:51:34.93Z</time></trkpt><trkpt lat="43.4533083" lon="11.1551096"><ele>109.0</ele><time>2026-04-22T15:51:36.929Z</time></trkpt><trkpt lat="43.4532444" lon="11.1550643"><ele>109.0</ele><time>2026-04-22T15:51:38.96Z</time></trkpt><trkpt lat="43.4531712" lon="11.1549761"><ele>109.00000000000001</ele><time>2026-04-22T15:51:40.924Z</time></trkpt><trkpt lat="43.45308" lon="11.1548863"><ele>109.0</ele><time>2026-04-22T15:51:42.932Z</time></trkpt><trkpt lat="43.4529896" lon="11.1548001"><ele>108.80000000000001</ele><time>2026-04-22T15:51:44.95Z</time></trkpt><trkpt lat="43.4529074" lon="11.1547211"><ele>108.60000000000001</ele><time>2026-04-22T15:51:46.924Z</time></trkpt><trkpt lat="43.4528191" lon="11.1546387"><ele>108.4</ele><time>2026-04-22T15:51:48.933Z</time></trkpt><trkpt lat="43.452735" lon="11.154549"><ele>108.2</ele><time>2026-04-22T15:51:50.925Z</time></trkpt><trkpt lat="43.4526622" lon="11.154462"><ele>108.0</ele><time>2026-04-22T15:51:52.936Z</time></trkpt><trkpt lat="43.452616" lon="11.1543598"><ele>108.0</ele><time>2026-04-22T15:51:54.925Z</time></trkpt><trkpt lat="43.4525893" lon="11.1542494"><ele>108.0</ele><time>2026-04-22T15:51:56.939Z</time></trkpt><trkpt lat="43.4525683" lon="11.1541374"><ele>108.0</ele><time>2026-04-22T15:51:58.931Z</time></trkpt><trkpt lat="43.4525455" lon="11.1540201"><ele>108.0</ele><time>2026-04-22T15:52:00.936Z</time></trkpt><trkpt lat="43.4525201" lon="11.1538985"><ele>108.0</ele><time>2026-04-22T15:52:02.937Z</time></trkpt><trkpt lat="43.4525015" lon="11.153784"><ele>108.0</ele><time>2026-04-22T15:52:04.924Z</time></trkpt><trkpt lat="43.4524933" lon="11.1536662"><ele>108.0</ele><time>2026-04-22T15:52:06.925Z</time></trkpt><trkpt lat="43.4524721" lon="11.1535444"><ele>108.0</ele><time>2026-04-22T15:52:08.931Z</time></trkpt><trkpt lat="43.4524551" lon="11.1534221"><ele>108.0</ele><time>2026-04-22T15:52:10.943Z</time></trkpt><trkpt lat="43.4524313" lon="11.1533083"><ele>108.0</ele><time>2026-04-22T15:52:12.94Z</time></trkpt><trkpt lat="43.4523971" lon="11.1531996"><ele>108.0</ele><time>2026-04-22T15:52:14.922Z</time></trkpt><trkpt lat="43.4523609" lon="11.1530769"><ele>108.0</ele><time>2026-04-22T15:52:16.93Z</time></trkpt><trkpt lat="43.4523225" lon="11.1529565"><ele>108.5</ele><time>2026-04-22T15:52:18.937Z</time></trkpt><trkpt lat="43.4523345" lon="11.1528406"><ele>109.0</ele><time>2026-04-22T15:52:20.94Z</time></trkpt><trkpt lat="43.4523395" lon="11.152734"><ele>109.5</ele><time>2026-04-22T15:52:22.948Z</time></trkpt><trkpt lat="43.4522775" lon="11.1526598"><ele>110.0</ele><time>2026-04-22T15:52:25.926Z</time></trkpt><trkpt lat="43.4522229" lon="11.1526106"><ele>110.5</ele><time>2026-04-22T15:52:27.928Z</time></trkpt><trkpt lat="43.4521456" lon="11.152562"><ele>111.0</ele><time>2026-04-22T15:52:30.939Z</time></trkpt><trkpt lat="43.4520908" lon="11.1525178"><ele>111.33333333333333</ele><time>2026-04-22T15:52:32.925Z</time></trkpt><trkpt lat="43.4520319" lon="11.1524458"><ele>111.66666666666666</ele><time>2026-04-22T15:52:34.925Z</time></trkpt><trkpt lat="43.451991" lon="11.152371"><ele>112.0</ele><time>2026-04-22T15:52:36.92Z</time></trkpt><trkpt lat="43.451976" lon="11.152263"><ele>112.33333333333333</ele><time>2026-04-22T15:52:39.946Z</time></trkpt><trkpt lat="43.4519746" lon="11.1521568"><ele>112.66666666666666</ele><time>2026-04-22T15:52:41.954Z</time></trkpt><trkpt lat="43.4519514" lon="11.1520293"><ele>113.0</ele><time>2026-04-22T15:52:43.94Z</time></trkpt><trkpt lat="43.4518846" lon="11.1519101"><ele>113.16666666666666</ele><time>2026-04-22T15:52:45.951Z</time></trkpt><trkpt lat="43.4518117" lon="11.1518213"><ele>113.33333333333333</ele><time>2026-04-22T15:52:47.955Z</time></trkpt><trkpt lat="43.4517372" lon="11.151752"><ele>113.5</ele><time>2026-04-22T15:52:49.926Z</time></trkpt><trkpt lat="43.451662" lon="11.1516894"><ele>113.66666666666666</ele><time>2026-04-22T15:52:51.932Z</time></trkpt><trkpt lat="43.4515948" lon="11.1516305"><ele>113.83333333333333</ele><time>2026-04-22T15:52:53.925Z</time></trkpt><trkpt lat="43.4515264" lon="11.1515679"><ele>114.0</ele><time>2026-04-22T15:52:55.947Z</time></trkpt><trkpt lat="43.4514548" lon="11.1514964"><ele>113.66666666666667</ele><time>2026-04-22T15:52:57.938Z</time></trkpt><trkpt lat="43.4513992" lon="11.1514294"><ele>113.33333333333334</ele><time>2026-04-22T15:52:59.931Z</time></trkpt><trkpt lat="43.4513429" lon="11.1513703"><ele>113.0</ele><time>2026-04-22T15:53:01.937Z</time></trkpt><trkpt lat="43.4512619" lon="11.151318"><ele>112.66666666666667</ele><time>2026-04-22T15:53:04.939Z</time></trkpt><trkpt lat="43.4511972" lon="11.1512934"><ele>112.33333333333334</ele><time>2026-04-22T15:53:06.944Z</time></trkpt><trkpt lat="43.4511259" lon="11.1512551"><ele>112.0</ele><time>2026-04-22T15:53:08.936Z</time></trkpt><trkpt lat="43.4510626" lon="11.1511963"><ele>111.66666666666667</ele><time>2026-04-22T15:53:10.93Z</time></trkpt><trkpt lat="43.4509981" lon="11.1510948"><ele>111.33333333333334</ele><time>2026-04-22T15:53:12.962Z</time></trkpt><trkpt lat="43.4509152" lon="11.1509602"><ele>111.0</ele><time>2026-04-22T15:53:14.938Z</time></trkpt><trkpt lat="43.4508589" lon="11.150903"><ele>110.66666666666666</ele><time>2026-04-22T15:53:15.936Z</time></trkpt><trkpt lat="43.4508016" lon="11.1508492"><ele>110.33333333333333</ele><time>2026-04-22T15:53:16.93Z</time></trkpt><trkpt lat="43.4507426" lon="11.1508008"><ele>110.0</ele><time>2026-04-22T15:53:17.93Z</time></trkpt><trkpt lat="43.4506814" lon="11.1507626"><ele>110.2</ele><time>2026-04-22T15:53:18.919Z</time></trkpt><trkpt lat="43.4505668" lon="11.1507064"><ele>110.4</ele><time>2026-04-22T15:53:20.927Z</time></trkpt><trkpt lat="43.4504521" lon="11.150668"><ele>110.6</ele><time>2026-04-22T15:53:22.933Z</time></trkpt><trkpt lat="43.4503437" lon="11.1506421"><ele>110.8</ele><time>2026-04-22T15:53:24.92Z</time></trkpt><trkpt lat="43.4502497" lon="11.1506564"><ele>111.0</ele><time>2026-04-22T15:53:26.932Z</time></trkpt><trkpt lat="43.4501645" lon="11.1507034"><ele>111.0</ele><time>2026-04-22T15:53:28.948Z</time></trkpt><trkpt lat="43.4500661" lon="11.1507453"><ele>111.0</ele><time>2026-04-22T15:53:30.942Z</time></trkpt><trkpt lat="43.4499712" lon="11.1508118"><ele>111.0</ele><time>2026-04-22T15:53:32.935Z</time></trkpt><trkpt lat="43.4498894" lon="11.1509216"><ele>111.0</ele><time>2026-04-22T15:53:34.927Z</time></trkpt><trkpt lat="43.4498111" lon="11.1510255"><ele>111.0</ele><time>2026-04-22T15:53:36.934Z</time></trkpt><trkpt lat="43.4497344" lon="11.1510966"><ele>111.0</ele><time>2026-04-22T15:53:38.948Z</time></trkpt><trkpt lat="43.4496685" lon="11.1511461"><ele>111.0</ele><time>2026-04-22T15:53:40.95Z</time></trkpt><trkpt lat="43.4495816" lon="11.1511916"><ele>111.0</ele><time>2026-04-22T15:53:42.926Z</time></trkpt><trkpt lat="43.4494831" lon="11.1512578"><ele>111.0</ele><time>2026-04-22T15:53:44.923Z</time></trkpt><trkpt lat="43.4493976" lon="11.1513526"><ele>111.0</ele><time>2026-04-22T15:53:46.934Z</time></trkpt><trkpt lat="43.4493184" lon="11.1514589"><ele>111.4</ele><time>2026-04-22T15:53:48.934Z</time></trkpt><trkpt lat="43.4492351" lon="11.1515659"><ele>111.8</ele><time>2026-04-22T15:53:50.924Z</time></trkpt><trkpt lat="43.4491629" lon="11.1516649"><ele>112.20000000000002</ele><time>2026-04-22T15:53:52.942Z</time></trkpt><trkpt lat="43.4490798" lon="11.1517718"><ele>112.60000000000001</ele><time>2026-04-22T15:53:54.921Z</time></trkpt><trkpt lat="43.4490021" lon="11.1518719"><ele>113.0</ele><time>2026-04-22T15:53:56.931Z</time></trkpt><trkpt lat="43.4489198" lon="11.1519505"><ele>113.0</ele><time>2026-04-22T15:53:58.934Z</time></trkpt><trkpt lat="43.4488301" lon="11.1520183"><ele>113.00000000000001</ele><time>2026-04-22T15:54:00.947Z</time></trkpt><trkpt lat="43.4487449" lon="11.1520952"><ele>113.00000000000001</ele><time>2026-04-22T15:54:02.922Z</time></trkpt><trkpt lat="43.4486477" lon="11.1521501"><ele>113.0</ele><time>2026-04-22T15:54:04.939Z</time></trkpt><trkpt lat="43.4485536" lon="11.1521926"><ele>113.0</ele><time>2026-04-22T15:54:06.926Z</time></trkpt><trkpt lat="43.4484616" lon="11.1522317"><ele>113.2</ele><time>2026-04-22T15:54:08.926Z</time></trkpt><trkpt lat="43.4483601" lon="11.1522476"><ele>113.4</ele><time>2026-04-22T15:54:10.934Z</time></trkpt><trkpt lat="43.4482624" lon="11.1522615"><ele>113.60000000000001</ele><time>2026-04-22T15:54:12.942Z</time></trkpt><trkpt lat="43.4481915" lon="11.1522581"><ele>113.80000000000001</ele><time>2026-04-22T15:54:14.924Z</time></trkpt><trkpt lat="43.4480983" lon="11.1522693"><ele>114.0</ele><time>2026-04-22T15:54:16.931Z</time></trkpt><trkpt lat="43.4479913" lon="11.1522901"><ele>114.0</ele><time>2026-04-22T15:54:18.927Z</time></trkpt><trkpt lat="43.4479239" lon="11.1523021"><ele>114.0</ele><time>2026-04-22T15:54:19.935Z</time></trkpt><trkpt lat="43.4477958" lon="11.1523336"><ele>114.0</ele><time>2026-04-22T15:54:21.923Z</time></trkpt><trkpt lat="43.4477333" lon="11.1523479"><ele>114.0</ele><time>2026-04-22T15:54:22.932Z</time></trkpt><trkpt lat="43.4476669" lon="11.1523661"><ele>114.0</ele><time>2026-04-22T15:54:23.941Z</time></trkpt><trkpt lat="43.4476" lon="11.1523863"><ele>114.0</ele><time>2026-04-22T15:54:24.929Z</time></trkpt><trkpt lat="43.4475368" lon="11.1524154"><ele>114.0</ele><time>2026-04-22T15:54:25.927Z</time></trkpt><trkpt lat="43.4474177" lon="11.1524639"><ele>114.0</ele><time>2026-04-22T15:54:27.931Z</time></trkpt><trkpt lat="43.447302" lon="11.1524941"><ele>114.0</ele><time>2026-04-22T15:54:29.933Z</time></trkpt><trkpt lat="43.4471879" lon="11.1525169"><ele>114.0</ele><time>2026-04-22T15:54:31.94Z</time></trkpt><trkpt lat="43.4470814" lon="11.1525406"><ele>113.5</ele><time>2026-04-22T15:54:33.933Z</time></trkpt><trkpt lat="43.4469714" lon="11.1525653"><ele>113.0</ele><time>2026-04-22T15:54:35.938Z</time></trkpt><trkpt lat="43.4468554" lon="11.1526004"><ele>112.5</ele><time>2026-04-22T15:54:37.933Z</time></trkpt><trkpt lat="43.4467436" lon="11.1526313"><ele>112.0</ele><time>2026-04-22T15:54:39.932Z</time></trkpt><trkpt lat="43.4466337" lon="11.1526532"><ele>112.0</ele><time>2026-04-22T15:54:41.934Z</time></trkpt><trkpt lat="43.4465196" lon="11.1526772"><ele>112.0</ele><time>2026-04-22T15:54:43.935Z</time></trkpt><trkpt lat="43.4464047" lon="11.1526901"><ele>112.0</ele><time>2026-04-22T15:54:45.948Z</time></trkpt><trkpt lat="43.4462905" lon="11.1526836"><ele>112.0</ele><time>2026-04-22T15:54:47.934Z</time></trkpt><trkpt lat="43.4461772" lon="11.1526371"><ele>112.0</ele><time>2026-04-22T15:54:49.938Z</time></trkpt><trkpt lat="43.4460722" lon="11.1525681"><ele>112.0</ele><time>2026-04-22T15:54:51.937Z</time></trkpt><trkpt lat="43.4459747" lon="11.1524769"><ele>112.0</ele><time>2026-04-22T15:54:53.936Z</time></trkpt><trkpt lat="43.4458875" lon="11.1523578"><ele>112.0</ele><time>2026-04-22T15:54:55.938Z</time></trkpt><trkpt lat="43.4458026" lon="11.1522432"><ele>112.0</ele><time>2026-04-22T15:54:57.93Z</time></trkpt><trkpt lat="43.445715" lon="11.1521382"><ele>111.99999999999999</ele><time>2026-04-22T15:54:59.926Z</time></trkpt><trkpt lat="43.4456103" lon="11.1520701"><ele>111.99999999999999</ele><time>2026-04-22T15:55:01.933Z</time></trkpt><trkpt lat="43.4454862" lon="11.1520662"><ele>112.0</ele><time>2026-04-22T15:55:03.926Z</time></trkpt><trkpt lat="43.4454217" lon="11.15207"><ele>112.0</ele><time>2026-04-22T15:55:04.935Z</time></trkpt><trkpt lat="43.4453023" lon="11.1520743"><ele>112.0</ele><time>2026-04-22T15:55:06.94Z</time></trkpt><trkpt lat="43.4451857" lon="11.1520747"><ele>112.0</ele><time>2026-04-22T15:55:08.941Z</time></trkpt><trkpt lat="43.4450726" lon="11.152083"><ele>112.0</ele><time>2026-04-22T15:55:10.92Z</time></trkpt><trkpt lat="43.44496" lon="11.1520866"><ele>112.0</ele><time>2026-04-22T15:55:12.95Z</time></trkpt><trkpt lat="43.4448459" lon="11.1520897"><ele>112.0</ele><time>2026-04-22T15:55:14.921Z</time></trkpt><trkpt lat="43.4447363" lon="11.1520987"><ele>112.0</ele><time>2026-04-22T15:55:16.938Z</time></trkpt><trkpt lat="43.4446195" lon="11.1520942"><ele>112.0</ele><time>2026-04-22T15:55:18.952Z</time></trkpt><trkpt lat="43.4444974" lon="11.1520811"><ele>112.0</ele><time>2026-04-22T15:55:20.926Z</time></trkpt><trkpt lat="43.4443752" lon="11.1520977"><ele>111.8</ele><time>2026-04-22T15:55:22.936Z</time></trkpt><trkpt lat="43.4442526" lon="11.1521304"><ele>111.6</ele><time>2026-04-22T15:55:24.948Z</time></trkpt><trkpt lat="43.4441957" lon="11.1521683"><ele>111.39999999999999</ele><time>2026-04-22T15:55:25.933Z</time></trkpt><trkpt lat="43.4440995" lon="11.1522685"><ele>111.19999999999999</ele><time>2026-04-22T15:55:27.933Z</time></trkpt><trkpt lat="43.4440217" lon="11.1523865"><ele>111.0</ele><time>2026-04-22T15:55:29.933Z</time></trkpt><trkpt lat="43.4439361" lon="11.1524741"><ele>111.0</ele><time>2026-04-22T15:55:31.938Z</time></trkpt><trkpt lat="43.4438297" lon="11.1525174"><ele>111.0</ele><time>2026-04-22T15:55:33.927Z</time></trkpt><trkpt lat="43.4437227" lon="11.1525385"><ele>111.0</ele><time>2026-04-22T15:55:35.921Z</time></trkpt><trkpt lat="43.4436046" lon="11.1525356"><ele>111.0</ele><time>2026-04-22T15:55:37.925Z</time></trkpt><trkpt lat="43.4434833" lon="11.1525141"><ele>111.0</ele><time>2026-04-22T15:55:39.928Z</time></trkpt><trkpt lat="43.4433671" lon="11.1524963"><ele>111.0</ele><time>2026-04-22T15:55:41.936Z</time></trkpt><trkpt lat="43.4432543" lon="11.1525139"><ele>111.0</ele><time>2026-04-22T15:55:43.93Z</time></trkpt><trkpt lat="43.4431481" lon="11.1525722"><ele>111.0</ele><time>2026-04-22T15:55:45.943Z</time></trkpt><trkpt lat="43.4430433" lon="11.1526446"><ele>111.5</ele><time>2026-04-22T15:55:47.938Z</time></trkpt><trkpt lat="43.4429526" lon="11.1527371"><ele>112.0</ele><time>2026-04-22T15:55:49.946Z</time></trkpt><trkpt lat="43.4428709" lon="11.15284"><ele>112.5</ele><time>2026-04-22T15:55:51.926Z</time></trkpt><trkpt lat="43.4427909" lon="11.1529568"><ele>113.0</ele><time>2026-04-22T15:55:53.939Z</time></trkpt><trkpt lat="43.4427251" lon="11.1530875"><ele>113.4</ele><time>2026-04-22T15:55:55.935Z</time></trkpt><trkpt lat="43.4426661" lon="11.1532208"><ele>113.80000000000001</ele><time>2026-04-22T15:55:57.934Z</time></trkpt><trkpt lat="43.4425935" lon="11.1533338"><ele>114.2</ele><time>2026-04-22T15:55:59.937Z</time></trkpt><trkpt lat="43.4425018" lon="11.1534071"><ele>114.6</ele><time>2026-04-22T15:56:01.929Z</time></trkpt><trkpt lat="43.4424163" lon="11.1534811"><ele>115.0</ele><time>2026-04-22T15:56:03.933Z</time></trkpt><trkpt lat="43.4423382" lon="11.153583"><ele>115.0</ele><time>2026-04-22T15:56:05.961Z</time></trkpt><trkpt lat="43.4422582" lon="11.1536991"><ele>115.0</ele><time>2026-04-22T15:56:07.925Z</time></trkpt><trkpt lat="43.4421718" lon="11.1538059"><ele>115.0</ele><time>2026-04-22T15:56:09.93Z</time></trkpt><trkpt lat="43.442069" lon="11.1538706"><ele>115.0</ele><time>2026-04-22T15:56:11.931Z</time></trkpt><trkpt lat="43.441956" lon="11.1539137"><ele>114.8</ele><time>2026-04-22T15:56:13.933Z</time></trkpt><trkpt lat="43.4418398" lon="11.1539439"><ele>114.6</ele><time>2026-04-22T15:56:15.943Z</time></trkpt><trkpt lat="43.4417263" lon="11.153984"><ele>114.4</ele><time>2026-04-22T15:56:17.923Z</time></trkpt><trkpt lat="43.4416193" lon="11.1539974"><ele>114.2</ele><time>2026-04-22T15:56:19.926Z</time></trkpt><trkpt lat="43.4415241" lon="11.1539596"><ele>114.0</ele><time>2026-04-22T15:56:21.928Z</time></trkpt><trkpt lat="43.4414331" lon="11.1538584"><ele>114.0</ele><time>2026-04-22T15:56:23.931Z</time></trkpt><trkpt lat="43.4413532" lon="11.1537422"><ele>114.0</ele><time>2026-04-22T15:56:25.93Z</time></trkpt><trkpt lat="43.4412696" lon="11.1536297"><ele>114.0</ele><time>2026-04-22T15:56:27.931Z</time></trkpt><trkpt lat="43.4411745" lon="11.1535315"><ele>114.0</ele><time>2026-04-22T15:56:29.933Z</time></trkpt><trkpt lat="43.441063" lon="11.1534583"><ele>114.25</ele><time>2026-04-22T15:56:31.93Z</time></trkpt><trkpt lat="43.4409446" lon="11.1534412"><ele>114.5</ele><time>2026-04-22T15:56:33.937Z</time></trkpt><trkpt lat="43.4408334" lon="11.1534489"><ele>114.75</ele><time>2026-04-22T15:56:35.92Z</time></trkpt><trkpt lat="43.4407252" lon="11.1534621"><ele>115.0</ele><time>2026-04-22T15:56:37.93Z</time></trkpt><trkpt lat="43.4406161" lon="11.1534934"><ele>115.0</ele><time>2026-04-22T15:56:39.938Z</time></trkpt><trkpt lat="43.440517" lon="11.1535353"><ele>115.0</ele><time>2026-04-22T15:56:41.939Z</time></trkpt><trkpt lat="43.4404274" lon="11.1536016"><ele>115.0</ele><time>2026-04-22T15:56:43.936Z</time></trkpt><trkpt lat="43.4403395" lon="11.1536627"><ele>115.0</ele><time>2026-04-22T15:56:45.925Z</time></trkpt><trkpt lat="43.4402561" lon="11.1537234"><ele>115.0</ele><time>2026-04-22T15:56:47.931Z</time></trkpt><trkpt lat="43.4401634" lon="11.1537755"><ele>115.2</ele><time>2026-04-22T15:56:49.933Z</time></trkpt><trkpt lat="43.4400763" lon="11.1538466"><ele>115.4</ele><time>2026-04-22T15:56:51.925Z</time></trkpt><trkpt lat="43.4399951" lon="11.1539199"><ele>115.6</ele><time>2026-04-22T15:56:53.935Z</time></trkpt><trkpt lat="43.4399023" lon="11.1539902"><ele>115.8</ele><time>2026-04-22T15:56:55.929Z</time></trkpt><trkpt lat="43.439817" lon="11.1540638"><ele>116.0</ele><time>2026-04-22T15:56:57.944Z</time></trkpt><trkpt lat="43.4397261" lon="11.1541375"><ele>115.6</ele><time>2026-04-22T15:56:59.937Z</time></trkpt><trkpt lat="43.439641" lon="11.1542083"><ele>115.19999999999999</ele><time>2026-04-22T15:57:01.943Z</time></trkpt><trkpt lat="43.4395534" lon="11.1542876"><ele>114.80000000000001</ele><time>2026-04-22T15:57:03.943Z</time></trkpt><trkpt lat="43.4394699" lon="11.1543632"><ele>114.4</ele><time>2026-04-22T15:57:05.928Z</time></trkpt><trkpt lat="43.4393819" lon="11.1544409"><ele>114.0</ele><time>2026-04-22T15:57:07.931Z</time></trkpt><trkpt lat="43.4393022" lon="11.1545287"><ele>114.4</ele><time>2026-04-22T15:57:09.921Z</time></trkpt><trkpt lat="43.4392309" lon="11.1546237"><ele>114.80000000000001</ele><time>2026-04-22T15:57:11.937Z</time></trkpt><trkpt lat="43.4391677" lon="11.1547341"><ele>115.19999999999999</ele><time>2026-04-22T15:57:13.94Z</time></trkpt><trkpt lat="43.4391092" lon="11.1548527"><ele>115.6</ele><time>2026-04-22T15:57:15.934Z</time></trkpt><trkpt lat="43.4390357" lon="11.1549655"><ele>116.0</ele><time>2026-04-22T15:57:17.943Z</time></trkpt><trkpt lat="43.4389595" lon="11.155068"><ele>116.0</ele><time>2026-04-22T15:57:19.93Z</time></trkpt><trkpt lat="43.4388922" lon="11.1551785"><ele>116.0</ele><time>2026-04-22T15:57:21.947Z</time></trkpt><trkpt lat="43.4388287" lon="11.1552821"><ele>116.0</ele><time>2026-04-22T15:57:23.94Z</time></trkpt><trkpt lat="43.4387593" lon="11.1553796"><ele>116.0</ele><time>2026-04-22T15:57:25.928Z</time></trkpt><trkpt lat="43.4387026" lon="11.1554941"><ele>116.0</ele><time>2026-04-22T15:57:27.945Z</time></trkpt><trkpt lat="43.4386783" lon="11.1556424"><ele>116.0</ele><time>2026-04-22T15:57:29.933Z</time></trkpt><trkpt lat="43.4386893" lon="11.155804"><ele>116.0</ele><time>2026-04-22T15:57:31.932Z</time></trkpt><trkpt lat="43.4387401" lon="11.1559568"><ele>116.0</ele><time>2026-04-22T15:57:33.939Z</time></trkpt><trkpt lat="43.4388023" lon="11.1561104"><ele>116.0</ele><time>2026-04-22T15:57:35.927Z</time></trkpt><trkpt lat="43.4388608" lon="11.1562571"><ele>116.0</ele><time>2026-04-22T15:57:37.93Z</time></trkpt><trkpt lat="43.438925" lon="11.1563941"><ele>116.0</ele><time>2026-04-22T15:57:39.928Z</time></trkpt><trkpt lat="43.4389746" lon="11.1565283"><ele>116.0</ele><time>2026-04-22T15:57:41.933Z</time></trkpt><trkpt lat="43.4390215" lon="11.1566695"><ele>116.0</ele><time>2026-04-22T15:57:43.936Z</time></trkpt><trkpt lat="43.4390441" lon="11.1568139"><ele>116.0</ele><time>2026-04-22T15:57:45.94Z</time></trkpt><trkpt lat="43.4390537" lon="11.1569462"><ele>116.19999999999999</ele><time>2026-04-22T15:57:47.938Z</time></trkpt><trkpt lat="43.4390563" lon="11.1570912"><ele>116.39999999999999</ele><time>2026-04-22T15:57:49.94Z</time></trkpt><trkpt lat="43.4390522" lon="11.1572332"><ele>116.6</ele><time>2026-04-22T15:57:51.933Z</time></trkpt><trkpt lat="43.4390396" lon="11.1573691"><ele>116.8</ele><time>2026-04-22T15:57:53.931Z</time></trkpt><trkpt lat="43.4390316" lon="11.1574977"><ele>117.0</ele><time>2026-04-22T15:57:55.943Z</time></trkpt><trkpt lat="43.43902" lon="11.1576266"><ele>118.0</ele><time>2026-04-22T15:57:57.933Z</time></trkpt><trkpt lat="43.4389986" lon="11.1577495"><ele>118.99999999999999</ele><time>2026-04-22T15:57:59.936Z</time></trkpt><trkpt lat="43.4389475" lon="11.1578597"><ele>119.99999999999999</ele><time>2026-04-22T15:58:01.926Z</time></trkpt><trkpt lat="43.4388816" lon="11.1579514"><ele>121.0</ele><time>2026-04-22T15:58:03.936Z</time></trkpt><trkpt lat="43.4388178" lon="11.1580483"><ele>122.0</ele><time>2026-04-22T15:58:05.927Z</time></trkpt><trkpt lat="43.4387661" lon="11.1581524"><ele>122.19999999999999</ele><time>2026-04-22T15:58:07.932Z</time></trkpt><trkpt lat="43.4387145" lon="11.1582534"><ele>122.39999999999999</ele><time>2026-04-22T15:58:09.927Z</time></trkpt><trkpt lat="43.4386557" lon="11.1583537"><ele>122.60000000000001</ele><time>2026-04-22T15:58:11.929Z</time></trkpt><trkpt lat="43.4385853" lon="11.1584584"><ele>122.80000000000001</ele><time>2026-04-22T15:58:13.933Z</time></trkpt><trkpt lat="43.4385076" lon="11.1585798"><ele>123.0</ele><time>2026-04-22T15:58:15.952Z</time></trkpt><trkpt lat="43.4384382" lon="11.1587057"><ele>123.0</ele><time>2026-04-22T15:58:17.93Z</time></trkpt><trkpt lat="43.4383699" lon="11.1588383"><ele>123.0</ele><time>2026-04-22T15:58:19.931Z</time></trkpt><trkpt lat="43.4382977" lon="11.1589628"><ele>123.0</ele><time>2026-04-22T15:58:21.932Z</time></trkpt><trkpt lat="43.4382331" lon="11.1590951"><ele>123.0</ele><time>2026-04-22T15:58:23.943Z</time></trkpt><trkpt lat="43.4381715" lon="11.1592315"><ele>123.0</ele><time>2026-04-22T15:58:25.932Z</time></trkpt><trkpt lat="43.4381122" lon="11.1593631"><ele>123.00000000000001</ele><time>2026-04-22T15:58:27.929Z</time></trkpt><trkpt lat="43.4380614" lon="11.1594952"><ele>123.00000000000001</ele><time>2026-04-22T15:58:29.923Z</time></trkpt><trkpt lat="43.438015" lon="11.1596105"><ele>123.0</ele><time>2026-04-22T15:58:31.924Z</time></trkpt><trkpt lat="43.4379656" lon="11.1597331"><ele>123.0</ele><time>2026-04-22T15:58:33.919Z</time></trkpt><trkpt lat="43.4379156" lon="11.1598536"><ele>122.4</ele><time>2026-04-22T15:58:35.933Z</time></trkpt><trkpt lat="43.4378669" lon="11.1599773"><ele>121.80000000000001</ele><time>2026-04-22T15:58:37.927Z</time></trkpt><trkpt lat="43.4378214" lon="11.1601012"><ele>121.2</ele><time>2026-04-22T15:58:39.925Z</time></trkpt><trkpt lat="43.437773" lon="11.16023"><ele>120.6</ele><time>2026-04-22T15:58:41.947Z</time></trkpt><trkpt lat="43.4377329" lon="11.160365"><ele>120.0</ele><time>2026-04-22T15:58:43.938Z</time></trkpt><trkpt lat="43.4376959" lon="11.1605037"><ele>120.0</ele><time>2026-04-22T15:58:45.922Z</time></trkpt><trkpt lat="43.4376621" lon="11.1606439"><ele>120.0</ele><time>2026-04-22T15:58:47.952Z</time></trkpt><trkpt lat="43.4376336" lon="11.1607845"><ele>120.0</ele><time>2026-04-22T15:58:49.932Z</time></trkpt><trkpt lat="43.4376068" lon="11.160917"><ele>120.0</ele><time>2026-04-22T15:58:51.936Z</time></trkpt><trkpt lat="43.4375751" lon="11.1610563"><ele>120.0</ele><time>2026-04-22T15:58:53.926Z</time></trkpt><trkpt lat="43.4375512" lon="11.1611948"><ele>120.0</ele><time>2026-04-22T15:58:55.927Z</time></trkpt><trkpt lat="43.4375288" lon="11.1613279"><ele>120.0</ele><time>2026-04-22T15:58:57.936Z</time></trkpt><trkpt lat="43.4375081" lon="11.1614693"><ele>120.0</ele><time>2026-04-22T15:58:59.939Z</time></trkpt><trkpt lat="43.4374889" lon="11.1616159"><ele>120.0</ele><time>2026-04-22T15:59:01.952Z</time></trkpt><trkpt lat="43.4374743" lon="11.1617679"><ele>120.0</ele><time>2026-04-22T15:59:03.937Z</time></trkpt><trkpt lat="43.4374535" lon="11.1619125"><ele>120.0</ele><time>2026-04-22T15:59:05.941Z</time></trkpt><trkpt lat="43.4374318" lon="11.1620492"><ele>120.0</ele><time>2026-04-22T15:59:07.932Z</time></trkpt><trkpt lat="43.4374139" lon="11.1621929"><ele>120.0</ele><time>2026-04-22T15:59:09.92Z</time></trkpt><trkpt lat="43.4373953" lon="11.1623383"><ele>120.0</ele><time>2026-04-22T15:59:11.929Z</time></trkpt><trkpt lat="43.4373724" lon="11.1624848"><ele>120.0</ele><time>2026-04-22T15:59:13.943Z</time></trkpt><trkpt lat="43.4373511" lon="11.1626276"><ele>120.4</ele><time>2026-04-22T15:59:15.942Z</time></trkpt><trkpt lat="43.4373383" lon="11.1627711"><ele>120.8</ele><time>2026-04-22T15:59:17.944Z</time></trkpt><trkpt lat="43.4373333" lon="11.1629172"><ele>121.19999999999999</ele><time>2026-04-22T15:59:19.93Z</time></trkpt><trkpt lat="43.4373315" lon="11.1630568"><ele>121.6</ele><time>2026-04-22T15:59:21.936Z</time></trkpt><trkpt lat="43.4373258" lon="11.1632023"><ele>122.0</ele><time>2026-04-22T15:59:23.924Z</time></trkpt><trkpt lat="43.4373216" lon="11.1633474"><ele>122.0</ele><time>2026-04-22T15:59:25.933Z</time></trkpt><trkpt lat="43.4373266" lon="11.1634949"><ele>121.99999999999999</ele><time>2026-04-22T15:59:27.962Z</time></trkpt><trkpt lat="43.4373286" lon="11.1636378"><ele>121.99999999999999</ele><time>2026-04-22T15:59:29.935Z</time></trkpt><trkpt lat="43.4373376" lon="11.1637847"><ele>122.0</ele><time>2026-04-22T15:59:31.928Z</time></trkpt><trkpt lat="43.4373501" lon="11.163921"><ele>122.0</ele><time>2026-04-22T15:59:33.927Z</time></trkpt><trkpt lat="43.4373663" lon="11.1640538"><ele>122.19999999999999</ele><time>2026-04-22T15:59:35.925Z</time></trkpt><trkpt lat="43.437393" lon="11.1641877"><ele>122.39999999999999</ele><time>2026-04-22T15:59:37.924Z</time></trkpt><trkpt lat="43.4374231" lon="11.1643313"><ele>122.60000000000001</ele><time>2026-04-22T15:59:39.936Z</time></trkpt><trkpt lat="43.4374552" lon="11.1644668"><ele>122.80000000000001</ele><time>2026-04-22T15:59:41.919Z</time></trkpt><trkpt lat="43.4374883" lon="11.1646064"><ele>123.0</ele><time>2026-04-22T15:59:43.939Z</time></trkpt><trkpt lat="43.4375244" lon="11.1647453"><ele>122.80000000000001</ele><time>2026-04-22T15:59:45.925Z</time></trkpt><trkpt lat="43.4375663" lon="11.1648877"><ele>122.60000000000001</ele><time>2026-04-22T15:59:47.94Z</time></trkpt><trkpt lat="43.4376178" lon="11.1650209"><ele>122.39999999999999</ele><time>2026-04-22T15:59:49.926Z</time></trkpt><trkpt lat="43.4376718" lon="11.1651597"><ele>122.19999999999999</ele><time>2026-04-22T15:59:51.946Z</time></trkpt><trkpt lat="43.4377326" lon="11.1652849"><ele>122.0</ele><time>2026-04-22T15:59:53.93Z</time></trkpt><trkpt lat="43.4377928" lon="11.1653844"><ele>121.99999999999999</ele><time>2026-04-22T15:59:55.94Z</time></trkpt><trkpt lat="43.4378498" lon="11.1654832"><ele>122.0</ele><time>2026-04-22T15:59:57.926Z</time></trkpt><trkpt lat="43.4378923" lon="11.1655791"><ele>122.0</ele><time>2026-04-22T15:59:59.932Z</time></trkpt><trkpt lat="43.4379349" lon="11.165674"><ele>122.0</ele><time>2026-04-22T16:00:01.94Z</time></trkpt><trkpt lat="43.4379798" lon="11.1657838"><ele>121.99999999999999</ele><time>2026-04-22T16:00:03.931Z</time></trkpt><trkpt lat="43.4380282" lon="11.1659027"><ele>122.0</ele><time>2026-04-22T16:00:05.918Z</time></trkpt><trkpt lat="43.4380893" lon="11.1660174"><ele>122.8</ele><time>2026-04-22T16:00:07.932Z</time></trkpt><trkpt lat="43.4381581" lon="11.1661387"><ele>123.6</ele><time>2026-04-22T16:00:09.938Z</time></trkpt><trkpt lat="43.4382391" lon="11.1662365"><ele>124.39999999999999</ele><time>2026-04-22T16:00:11.939Z</time></trkpt><trkpt lat="43.4383042" lon="11.1663042"><ele>125.19999999999999</ele><time>2026-04-22T16:00:13.919Z</time></trkpt><trkpt lat="43.4383565" lon="11.1663588"><ele>126.0</ele><time>2026-04-22T16:00:15.935Z</time></trkpt><trkpt lat="43.4384286" lon="11.1664407"><ele>126.0</ele><time>2026-04-22T16:00:18.923Z</time></trkpt><trkpt lat="43.4384801" lon="11.166498"><ele>126.0</ele><time>2026-04-22T16:00:20.932Z</time></trkpt><trkpt lat="43.4385404" lon="11.1665612"><ele>126.0</ele><time>2026-04-22T16:00:22.945Z</time></trkpt><trkpt lat="43.4386179" lon="11.1666256"><ele>126.0</ele><time>2026-04-22T16:00:24.933Z</time></trkpt><trkpt lat="43.4387078" lon="11.1666907"><ele>126.0</ele><time>2026-04-22T16:00:26.932Z</time></trkpt><trkpt lat="43.4388028" lon="11.1667699"><ele>126.0</ele><time>2026-04-22T16:00:28.936Z</time></trkpt><trkpt lat="43.4388973" lon="11.1668582"><ele>126.75</ele><time>2026-04-22T16:00:30.925Z</time></trkpt><trkpt lat="43.4389934" lon="11.1669539"><ele>127.5</ele><time>2026-04-22T16:00:32.922Z</time></trkpt><trkpt lat="43.4391029" lon="11.1670322"><ele>128.25</ele><time>2026-04-22T16:00:34.938Z</time></trkpt><trkpt lat="43.4392142" lon="11.1670795"><ele>129.0</ele><time>2026-04-22T16:00:36.924Z</time></trkpt><trkpt lat="43.4393017" lon="11.167126"><ele>129.0</ele><time>2026-04-22T16:00:38.936Z</time></trkpt><trkpt lat="43.4393695" lon="11.1671819"><ele>129.0</ele><time>2026-04-22T16:00:41.934Z</time></trkpt><trkpt lat="43.4394238" lon="11.1672627"><ele>129.0</ele><time>2026-04-22T16:00:44.952Z</time></trkpt><trkpt lat="43.4394766" lon="11.1673286"><ele>129.0</ele><time>2026-04-22T16:00:46.926Z</time></trkpt><trkpt lat="43.439557" lon="11.1674201"><ele>129.0</ele><time>2026-04-22T16:00:48.928Z</time></trkpt><trkpt lat="43.4396628" lon="11.1675524"><ele>128.83333333333334</ele><time>2026-04-22T16:00:50.929Z</time></trkpt><trkpt lat="43.4397259" lon="11.1676404"><ele>128.66666666666666</ele><time>2026-04-22T16:00:51.92Z</time></trkpt><trkpt lat="43.4397912" lon="11.1677366"><ele>128.5</ele><time>2026-04-22T16:00:52.926Z</time></trkpt><trkpt lat="43.4398383" lon="11.1678423"><ele>128.33333333333331</ele><time>2026-04-22T16:00:53.93Z</time></trkpt><trkpt lat="43.439865" lon="11.1679417"><ele>128.16666666666666</ele><time>2026-04-22T16:00:54.94Z</time></trkpt><trkpt lat="43.439892" lon="11.1680425"><ele>128.0</ele><time>2026-04-22T16:00:55.941Z</time></trkpt><trkpt lat="43.43993" lon="11.1681272"><ele>127.16666666666666</ele><time>2026-04-22T16:00:56.927Z</time></trkpt><trkpt lat="43.4399783" lon="11.1682027"><ele>126.33333333333333</ele><time>2026-04-22T16:00:57.932Z</time></trkpt><trkpt lat="43.4400223" lon="11.1682681"><ele>125.5</ele><time>2026-04-22T16:00:58.93Z</time></trkpt><trkpt lat="43.4400623" lon="11.1683374"><ele>124.66666666666666</ele><time>2026-04-22T16:00:59.931Z</time></trkpt><trkpt lat="43.4401366" lon="11.1684769"><ele>123.83333333333333</ele><time>2026-04-22T16:01:01.933Z</time></trkpt><trkpt lat="43.4401991" lon="11.1686207"><ele>123.0</ele><time>2026-04-22T16:01:03.942Z</time></trkpt><trkpt lat="43.4402594" lon="11.1687533"><ele>123.0</ele><time>2026-04-22T16:01:05.925Z</time></trkpt><trkpt lat="43.4403121" lon="11.1688886"><ele>123.00000000000001</ele><time>2026-04-22T16:01:07.925Z</time></trkpt><trkpt lat="43.4403595" lon="11.1690178"><ele>123.00000000000001</ele><time>2026-04-22T16:01:09.931Z</time></trkpt><trkpt lat="43.4404086" lon="11.1691542"><ele>123.0</ele><time>2026-04-22T16:01:11.943Z</time></trkpt><trkpt lat="43.4404603" lon="11.1692943"><ele>123.0</ele><time>2026-04-22T16:01:13.935Z</time></trkpt><trkpt lat="43.440513" lon="11.1694364"><ele>123.75</ele><time>2026-04-22T16:01:15.919Z</time></trkpt><trkpt lat="43.4405712" lon="11.1695795"><ele>124.5</ele><time>2026-04-22T16:01:17.92Z</time></trkpt><trkpt lat="43.4406299" lon="11.1697181"><ele>125.25</ele><time>2026-04-22T16:01:19.935Z</time></trkpt><trkpt lat="43.4406777" lon="11.1698611"><ele>126.0</ele><time>2026-04-22T16:01:21.921Z</time></trkpt><trkpt lat="43.4407216" lon="11.1700064"><ele>126.0</ele><time>2026-04-22T16:01:23.945Z</time></trkpt><trkpt lat="43.4407623" lon="11.170141"><ele>126.0</ele><time>2026-04-22T16:01:25.922Z</time></trkpt><trkpt lat="43.4408048" lon="11.1702664"><ele>126.0</ele><time>2026-04-22T16:01:27.937Z</time></trkpt><trkpt lat="43.4408411" lon="11.170382"><ele>126.0</ele><time>2026-04-22T16:01:29.944Z</time></trkpt><trkpt lat="43.4408513" lon="11.1705259"><ele>126.0</ele><time>2026-04-22T16:01:31.952Z</time></trkpt><trkpt lat="43.4408406" lon="11.1706876"><ele>125.6</ele><time>2026-04-22T16:01:33.935Z</time></trkpt><trkpt lat="43.4408243" lon="11.1708401"><ele>125.19999999999999</ele><time>2026-04-22T16:01:35.937Z</time></trkpt><trkpt lat="43.4408169" lon="11.170994"><ele>124.80000000000001</ele><time>2026-04-22T16:01:37.936Z</time></trkpt><trkpt lat="43.4408028" lon="11.1711499"><ele>124.4</ele><time>2026-04-22T16:01:39.932Z</time></trkpt><trkpt lat="43.4407911" lon="11.1713005"><ele>124.0</ele><time>2026-04-22T16:01:41.924Z</time></trkpt><trkpt lat="43.4407765" lon="11.1714629"><ele>124.0</ele><time>2026-04-22T16:01:43.938Z</time></trkpt><trkpt lat="43.4407401" lon="11.1716145"><ele>124.0</ele><time>2026-04-22T16:01:45.939Z</time></trkpt><trkpt lat="43.4406861" lon="11.1717548"><ele>124.0</ele><time>2026-04-22T16:01:47.931Z</time></trkpt><trkpt lat="43.4406224" lon="11.171877"><ele>124.0</ele><time>2026-04-22T16:01:49.937Z</time></trkpt><trkpt lat="43.4405423" lon="11.1719737"><ele>124.0</ele><time>2026-04-22T16:01:51.929Z</time></trkpt><trkpt lat="43.4404644" lon="11.1720848"><ele>124.0</ele><time>2026-04-22T16:01:53.925Z</time></trkpt><trkpt lat="43.4403848" lon="11.1721792"><ele>124.0</ele><time>2026-04-22T16:01:55.942Z</time></trkpt><trkpt lat="43.4403046" lon="11.172273"><ele>124.0</ele><time>2026-04-22T16:01:57.957Z</time></trkpt><trkpt lat="43.4402276" lon="11.1723647"><ele>124.0</ele><time>2026-04-22T16:01:59.96Z</time></trkpt><trkpt lat="43.4401505" lon="11.1724456"><ele>124.0</ele><time>2026-04-22T16:02:01.929Z</time></trkpt><trkpt lat="43.440074" lon="11.1725267"><ele>123.4</ele><time>2026-04-22T16:02:03.937Z</time></trkpt><trkpt lat="43.4399996" lon="11.1726053"><ele>122.80000000000001</ele><time>2026-04-22T16:02:05.925Z</time></trkpt><trkpt lat="43.4399234" lon="11.1726842"><ele>122.19999999999999</ele><time>2026-04-22T16:02:07.927Z</time></trkpt><trkpt lat="43.4398404" lon="11.1727534"><ele>121.6</ele><time>2026-04-22T16:02:09.937Z</time></trkpt><trkpt lat="43.4397608" lon="11.1728248"><ele>121.0</ele><time>2026-04-22T16:02:11.931Z</time></trkpt><trkpt lat="43.4396803" lon="11.172904"><ele>121.4</ele><time>2026-04-22T16:02:13.925Z</time></trkpt><trkpt lat="43.439593" lon="11.172972"><ele>121.8</ele><time>2026-04-22T16:02:15.936Z</time></trkpt><trkpt lat="43.439504" lon="11.1730344"><ele>122.20000000000002</ele><time>2026-04-22T16:02:17.923Z</time></trkpt><trkpt lat="43.4394341" lon="11.1731316"><ele>122.60000000000001</ele><time>2026-04-22T16:02:19.937Z</time></trkpt><trkpt lat="43.4393962" lon="11.1732703"><ele>123.0</ele><time>2026-04-22T16:02:21.922Z</time></trkpt><trkpt lat="43.4393803" lon="11.1734078"><ele>123.0</ele><time>2026-04-22T16:02:23.935Z</time></trkpt><trkpt lat="43.4393869" lon="11.1735472"><ele>123.00000000000001</ele><time>2026-04-22T16:02:25.931Z</time></trkpt><trkpt lat="43.439435" lon="11.1736787"><ele>123.00000000000001</ele><time>2026-04-22T16:02:27.94Z</time></trkpt><trkpt lat="43.4394833" lon="11.1738248"><ele>123.0</ele><time>2026-04-22T16:02:29.937Z</time></trkpt><trkpt lat="43.4395255" lon="11.1739729"><ele>123.0</ele><time>2026-04-22T16:02:31.929Z</time></trkpt><trkpt lat="43.4395544" lon="11.1741298"><ele>123.0</ele><time>2026-04-22T16:02:33.935Z</time></trkpt><trkpt lat="43.4395952" lon="11.1742744"><ele>123.00000000000001</ele><time>2026-04-22T16:02:35.94Z</time></trkpt><trkpt lat="43.4396293" lon="11.1744187"><ele>123.00000000000001</ele><time>2026-04-22T16:02:37.925Z</time></trkpt><trkpt lat="43.43964" lon="11.1745653"><ele>123.0</ele><time>2026-04-22T16:02:39.928Z</time></trkpt><trkpt lat="43.4396303" lon="11.1747118"><ele>123.0</ele><time>2026-04-22T16:02:41.924Z</time></trkpt><trkpt lat="43.4396103" lon="11.1748508"><ele>123.2</ele><time>2026-04-22T16:02:43.926Z</time></trkpt><trkpt lat="43.4395863" lon="11.1749837"><ele>123.4</ele><time>2026-04-22T16:02:45.927Z</time></trkpt><trkpt lat="43.4395581" lon="11.1751211"><ele>123.60000000000001</ele><time>2026-04-22T16:02:47.943Z</time></trkpt><trkpt lat="43.4395158" lon="11.1752617"><ele>123.80000000000001</ele><time>2026-04-22T16:02:49.927Z</time></trkpt><trkpt lat="43.4394797" lon="11.1754115"><ele>124.0</ele><time>2026-04-22T16:02:51.928Z</time></trkpt><trkpt lat="43.4394412" lon="11.1755645"><ele>123.80000000000001</ele><time>2026-04-22T16:02:53.951Z</time></trkpt><trkpt lat="43.4394037" lon="11.1757118"><ele>123.60000000000001</ele><time>2026-04-22T16:02:55.932Z</time></trkpt><trkpt lat="43.4393704" lon="11.175858"><ele>123.4</ele><time>2026-04-22T16:02:57.932Z</time></trkpt><trkpt lat="43.4393419" lon="11.1759931"><ele>123.2</ele><time>2026-04-22T16:02:59.936Z</time></trkpt><trkpt lat="43.4393134" lon="11.1761342"><ele>123.0</ele><time>2026-04-22T16:03:01.933Z</time></trkpt><trkpt lat="43.439284" lon="11.1762792"><ele>123.0</ele><time>2026-04-22T16:03:03.936Z</time></trkpt><trkpt lat="43.4392544" lon="11.1764258"><ele>123.00000000000001</ele><time>2026-04-22T16:03:05.928Z</time></trkpt><trkpt lat="43.4392338" lon="11.1765658"><ele>123.00000000000001</ele><time>2026-04-22T16:03:07.948Z</time></trkpt><trkpt lat="43.4392175" lon="11.1767032"><ele>123.0</ele><time>2026-04-22T16:03:09.93Z</time></trkpt><trkpt lat="43.4391992" lon="11.1768283"><ele>123.0</ele><time>2026-04-22T16:03:11.927Z</time></trkpt><trkpt lat="43.4391932" lon="11.1769518"><ele>123.16666666666667</ele><time>2026-04-22T16:03:13.932Z</time></trkpt><trkpt lat="43.4392007" lon="11.1770686"><ele>123.33333333333334</ele><time>2026-04-22T16:03:15.933Z</time></trkpt><trkpt lat="43.4392109" lon="11.1771843"><ele>123.5</ele><time>2026-04-22T16:03:17.955Z</time></trkpt><trkpt lat="43.4392218" lon="11.1772969"><ele>123.66666666666667</ele><time>2026-04-22T16:03:19.934Z</time></trkpt><trkpt lat="43.4392396" lon="11.1774144"><ele>123.83333333333334</ele><time>2026-04-22T16:03:21.957Z</time></trkpt><trkpt lat="43.4392644" lon="11.1775281"><ele>124.0</ele><time>2026-04-22T16:03:23.933Z</time></trkpt><trkpt lat="43.4392863" lon="11.1776346"><ele>124.00000000000001</ele><time>2026-04-22T16:03:25.946Z</time></trkpt><trkpt lat="43.4392993" lon="11.1777443"><ele>124.0</ele><time>2026-04-22T16:03:27.926Z</time></trkpt><trkpt lat="43.4393048" lon="11.1778495"><ele>124.0</ele><time>2026-04-22T16:03:29.935Z</time></trkpt><trkpt lat="43.4393036" lon="11.1779748"><ele>124.0</ele><time>2026-04-22T16:03:31.938Z</time></trkpt><trkpt lat="43.439283" lon="11.1780935"><ele>124.00000000000001</ele><time>2026-04-22T16:03:33.925Z</time></trkpt><trkpt lat="43.4392588" lon="11.1782194"><ele>124.0</ele><time>2026-04-22T16:03:35.929Z</time></trkpt><trkpt lat="43.4392203" lon="11.178331"><ele>124.2</ele><time>2026-04-22T16:03:37.925Z</time></trkpt><trkpt lat="43.4391636" lon="11.1784341"><ele>124.4</ele><time>2026-04-22T16:03:39.931Z</time></trkpt><trkpt lat="43.4391069" lon="11.1785421"><ele>124.6</ele><time>2026-04-22T16:03:41.937Z</time></trkpt><trkpt lat="43.439046" lon="11.1786473"><ele>124.8</ele><time>2026-04-22T16:03:43.928Z</time></trkpt><trkpt lat="43.4389788" lon="11.1787535"><ele>125.0</ele><time>2026-04-22T16:03:45.926Z</time></trkpt><trkpt lat="43.4389082" lon="11.1788537"><ele>125.0</ele><time>2026-04-22T16:03:47.935Z</time></trkpt><trkpt lat="43.4388376" lon="11.1789495"><ele>125.0</ele><time>2026-04-22T16:03:49.931Z</time></trkpt><trkpt lat="43.4387779" lon="11.1790402"><ele>125.0</ele><time>2026-04-22T16:03:51.93Z</time></trkpt><trkpt lat="43.4387047" lon="11.1791177"><ele>125.0</ele><time>2026-04-22T16:03:53.933Z</time></trkpt><trkpt lat="43.4386171" lon="11.1791676"><ele>125.0</ele><time>2026-04-22T16:03:55.938Z</time></trkpt><trkpt lat="43.4385438" lon="11.1792103"><ele>125.0</ele><time>2026-04-22T16:03:57.93Z</time></trkpt><trkpt lat="43.438472" lon="11.179238"><ele>125.0</ele><time>2026-04-22T16:03:59.943Z</time></trkpt><trkpt lat="43.4383854" lon="11.1792561"><ele>125.0</ele><time>2026-04-22T16:04:01.933Z</time></trkpt><trkpt lat="43.4382868" lon="11.1792702"><ele>125.0</ele><time>2026-04-22T16:04:03.932Z</time></trkpt><trkpt lat="43.4381912" lon="11.1792721"><ele>125.0</ele><time>2026-04-22T16:04:05.928Z</time></trkpt><trkpt lat="43.4380952" lon="11.1792686"><ele>125.0</ele><time>2026-04-22T16:04:07.925Z</time></trkpt><trkpt lat="43.4379974" lon="11.1792525"><ele>125.0</ele><time>2026-04-22T16:04:09.936Z</time></trkpt><trkpt lat="43.4378941" lon="11.1792117"><ele>125.0</ele><time>2026-04-22T16:04:11.948Z</time></trkpt><trkpt lat="43.4377932" lon="11.179171"><ele>125.0</ele><time>2026-04-22T16:04:13.921Z</time></trkpt><trkpt lat="43.4376982" lon="11.1791276"><ele>125.0</ele><time>2026-04-22T16:04:15.932Z</time></trkpt><trkpt lat="43.4376044" lon="11.1790816"><ele>125.2</ele><time>2026-04-22T16:04:17.936Z</time></trkpt><trkpt lat="43.4375128" lon="11.1790464"><ele>125.4</ele><time>2026-04-22T16:04:19.931Z</time></trkpt><trkpt lat="43.4374159" lon="11.1790182"><ele>125.6</ele><time>2026-04-22T16:04:21.939Z</time></trkpt><trkpt lat="43.4373267" lon="11.1789787"><ele>125.8</ele><time>2026-04-22T16:04:23.932Z</time></trkpt><trkpt lat="43.4372365" lon="11.1789353"><ele>126.0</ele><time>2026-04-22T16:04:25.936Z</time></trkpt><trkpt lat="43.4371431" lon="11.1788963"><ele>126.4</ele><time>2026-04-22T16:04:27.937Z</time></trkpt><trkpt lat="43.4370502" lon="11.1788532"><ele>126.8</ele><time>2026-04-22T16:04:29.93Z</time></trkpt><trkpt lat="43.4369543" lon="11.1788051"><ele>127.20000000000002</ele><time>2026-04-22T16:04:31.926Z</time></trkpt><trkpt lat="43.4368562" lon="11.1787646"><ele>127.60000000000001</ele><time>2026-04-22T16:04:33.937Z</time></trkpt><trkpt lat="43.4367594" lon="11.1787104"><ele>128.0</ele><time>2026-04-22T16:04:35.928Z</time></trkpt><trkpt lat="43.4366598" lon="11.1786671"><ele>128.0</ele><time>2026-04-22T16:04:37.939Z</time></trkpt><trkpt lat="43.4365612" lon="11.1786284"><ele>128.0</ele><time>2026-04-22T16:04:39.927Z</time></trkpt><trkpt lat="43.4364643" lon="11.1785944"><ele>128.0</ele><time>2026-04-22T16:04:41.941Z</time></trkpt><trkpt lat="43.4363608" lon="11.1785731"><ele>128.0</ele><time>2026-04-22T16:04:43.932Z</time></trkpt><trkpt lat="43.4362524" lon="11.1785525"><ele>128.0</ele><time>2026-04-22T16:04:45.926Z</time></trkpt><trkpt lat="43.436142" lon="11.1785444"><ele>129.20000000000002</ele><time>2026-04-22T16:04:47.932Z</time></trkpt><trkpt lat="43.4360306" lon="11.1785511"><ele>130.4</ele><time>2026-04-22T16:04:49.927Z</time></trkpt><trkpt lat="43.4359315" lon="11.1785662"><ele>131.60000000000002</ele><time>2026-04-22T16:04:51.933Z</time></trkpt><trkpt lat="43.4358363" lon="11.1785808"><ele>132.8</ele><time>2026-04-22T16:04:53.918Z</time></trkpt><trkpt lat="43.4357402" lon="11.1785944"><ele>134.0</ele><time>2026-04-22T16:04:55.929Z</time></trkpt><trkpt lat="43.4356454" lon="11.1786065"><ele>134.0</ele><time>2026-04-22T16:04:57.934Z</time></trkpt><trkpt lat="43.4355446" lon="11.1786301"><ele>134.0</ele><time>2026-04-22T16:04:59.927Z</time></trkpt><trkpt lat="43.4354417" lon="11.1786491"><ele>134.0</ele><time>2026-04-22T16:05:01.938Z</time></trkpt><trkpt lat="43.4353379" lon="11.1786633"><ele>134.0</ele><time>2026-04-22T16:05:03.931Z</time></trkpt><trkpt lat="43.4352339" lon="11.1786778"><ele>134.0</ele><time>2026-04-22T16:05:05.921Z</time></trkpt><trkpt lat="43.43514" lon="11.1787007"><ele>133.2</ele><time>2026-04-22T16:05:07.931Z</time></trkpt><trkpt lat="43.4350378" lon="11.1787189"><ele>132.4</ele><time>2026-04-22T16:05:09.937Z</time></trkpt><trkpt lat="43.434935" lon="11.1787355"><ele>131.6</ele><time>2026-04-22T16:05:11.926Z</time></trkpt><trkpt lat="43.4348255" lon="11.1787585"><ele>130.8</ele><time>2026-04-22T16:05:13.936Z</time></trkpt><trkpt lat="43.4347164" lon="11.1787822"><ele>130.0</ele><time>2026-04-22T16:05:15.926Z</time></trkpt><trkpt lat="43.4346099" lon="11.1787998"><ele>129.8</ele><time>2026-04-22T16:05:17.93Z</time></trkpt><trkpt lat="43.4345063" lon="11.1788184"><ele>129.6</ele><time>2026-04-22T16:05:19.925Z</time></trkpt><trkpt lat="43.4343961" lon="11.1788324"><ele>129.4</ele><time>2026-04-22T16:05:21.928Z</time></trkpt><trkpt lat="43.4342846" lon="11.178842"><ele>129.2</ele><time>2026-04-22T16:05:23.936Z</time></trkpt><trkpt lat="43.4341713" lon="11.1788573"><ele>129.0</ele><time>2026-04-22T16:05:25.928Z</time></trkpt><trkpt lat="43.4340596" lon="11.1788677"><ele>129.0</ele><time>2026-04-22T16:05:27.925Z</time></trkpt><trkpt lat="43.4339479" lon="11.1788737"><ele>129.0</ele><time>2026-04-22T16:05:29.93Z</time></trkpt><trkpt lat="43.4338388" lon="11.1788673"><ele>129.0</ele><time>2026-04-22T16:05:31.943Z</time></trkpt><trkpt lat="43.4337417" lon="11.1788462"><ele>129.0</ele><time>2026-04-22T16:05:33.93Z</time></trkpt><trkpt lat="43.4336478" lon="11.1787938"><ele>129.0</ele><time>2026-04-22T16:05:35.928Z</time></trkpt><trkpt lat="43.43356" lon="11.1787115"><ele>129.2</ele><time>2026-04-22T16:05:37.927Z</time></trkpt><trkpt lat="43.4334715" lon="11.1786297"><ele>129.4</ele><time>2026-04-22T16:05:39.928Z</time></trkpt><trkpt lat="43.4333816" lon="11.1785654"><ele>129.6</ele><time>2026-04-22T16:05:41.94Z</time></trkpt><trkpt lat="43.4332727" lon="11.1785445"><ele>129.8</ele><time>2026-04-22T16:05:43.933Z</time></trkpt><trkpt lat="43.4331615" lon="11.1785572"><ele>130.0</ele><time>2026-04-22T16:05:45.942Z</time></trkpt><trkpt lat="43.433055" lon="11.1786087"><ele>131.0</ele><time>2026-04-22T16:05:47.926Z</time></trkpt><trkpt lat="43.4329528" lon="11.1786748"><ele>132.0</ele><time>2026-04-22T16:05:49.926Z</time></trkpt><trkpt lat="43.4328598" lon="11.1787498"><ele>133.0</ele><time>2026-04-22T16:05:51.941Z</time></trkpt><trkpt lat="43.432781" lon="11.1788384"><ele>134.0</ele><time>2026-04-22T16:05:53.937Z</time></trkpt><trkpt lat="43.4327052" lon="11.1789263"><ele>135.0</ele><time>2026-04-22T16:05:55.929Z</time></trkpt><trkpt lat="43.4326306" lon="11.1789966"><ele>135.0</ele><time>2026-04-22T16:05:57.947Z</time></trkpt><trkpt lat="43.432564" lon="11.1790205"><ele>135.0</ele><time>2026-04-22T16:05:59.954Z</time></trkpt><trkpt lat="43.4325006" lon="11.1790169"><ele>135.0</ele><time>2026-04-22T16:06:01.935Z</time></trkpt><trkpt lat="43.4324254" lon="11.1790121"><ele>135.0</ele><time>2026-04-22T16:06:03.93Z</time></trkpt><trkpt lat="43.4323328" lon="11.1789877"><ele>135.0</ele><time>2026-04-22T16:06:05.925Z</time></trkpt><trkpt lat="43.432249" lon="11.178966"><ele>135.0</ele><time>2026-04-22T16:06:07.922Z</time></trkpt><trkpt lat="43.4321698" lon="11.1789407"><ele>134.66666666666666</ele><time>2026-04-22T16:06:09.937Z</time></trkpt><trkpt lat="43.432099" lon="11.17891"><ele>134.33333333333334</ele><time>2026-04-22T16:06:11.926Z</time></trkpt><trkpt lat="43.4320342" lon="11.1788724"><ele>134.0</ele><time>2026-04-22T16:06:13.927Z</time></trkpt><trkpt lat="43.4319836" lon="11.1788187"><ele>133.66666666666669</ele><time>2026-04-22T16:06:15.929Z</time></trkpt><trkpt lat="43.4319189" lon="11.1787465"><ele>133.33333333333334</ele><time>2026-04-22T16:06:17.922Z</time></trkpt><trkpt lat="43.4318322" lon="11.1786728"><ele>133.0</ele><time>2026-04-22T16:06:19.926Z</time></trkpt><trkpt lat="43.4317289" lon="11.1785857"><ele>133.0</ele><time>2026-04-22T16:06:21.925Z</time></trkpt><trkpt lat="43.4316675" lon="11.1785469"><ele>133.0</ele><time>2026-04-22T16:06:22.934Z</time></trkpt><trkpt lat="43.4316061" lon="11.1785147"><ele>133.0</ele><time>2026-04-22T16:06:23.968Z</time></trkpt><trkpt lat="43.4315417" lon="11.1784719"><ele>133.0</ele><time>2026-04-22T16:06:24.937Z</time></trkpt><trkpt lat="43.4314824" lon="11.1784333"><ele>133.0</ele><time>2026-04-22T16:06:25.943Z</time></trkpt><trkpt lat="43.4313738" lon="11.1783683"><ele>133.0</ele><time>2026-04-22T16:06:27.926Z</time></trkpt><trkpt lat="43.4312759" lon="11.1783202"><ele>132.8</ele><time>2026-04-22T16:06:29.925Z</time></trkpt><trkpt lat="43.431189" lon="11.1782631"><ele>132.60000000000002</ele><time>2026-04-22T16:06:31.93Z</time></trkpt><trkpt lat="43.431098" lon="11.1782155"><ele>132.39999999999998</ele><time>2026-04-22T16:06:33.928Z</time></trkpt><trkpt lat="43.4310105" lon="11.1781635"><ele>132.2</ele><time>2026-04-22T16:06:35.928Z</time></trkpt><trkpt lat="43.4309215" lon="11.1781128"><ele>132.0</ele><time>2026-04-22T16:06:37.927Z</time></trkpt><trkpt lat="43.430837" lon="11.1780549"><ele>131.79999999999998</ele><time>2026-04-22T16:06:39.924Z</time></trkpt><trkpt lat="43.4307509" lon="11.1779968"><ele>131.6</ele><time>2026-04-22T16:06:41.926Z</time></trkpt><trkpt lat="43.4306673" lon="11.1779361"><ele>131.39999999999998</ele><time>2026-04-22T16:06:43.939Z</time></trkpt><trkpt lat="43.4305829" lon="11.1778695"><ele>131.2</ele><time>2026-04-22T16:06:45.923Z</time></trkpt><trkpt lat="43.4304983" lon="11.17781"><ele>131.0</ele><time>2026-04-22T16:06:47.924Z</time></trkpt><trkpt lat="43.4304084" lon="11.1777604"><ele>131.0</ele><time>2026-04-22T16:06:49.946Z</time></trkpt><trkpt lat="43.4303227" lon="11.1777103"><ele>131.0</ele><time>2026-04-22T16:06:51.947Z</time></trkpt><trkpt lat="43.4302345" lon="11.1776622"><ele>131.0</ele><time>2026-04-22T16:06:53.925Z</time></trkpt><trkpt lat="43.4301459" lon="11.1776133"><ele>131.0</ele><time>2026-04-22T16:06:55.938Z</time></trkpt><trkpt lat="43.4300618" lon="11.1775643"><ele>131.0</ele><time>2026-04-22T16:06:57.94Z</time></trkpt><trkpt lat="43.4299786" lon="11.1775197"><ele>131.0</ele><time>2026-04-22T16:06:59.929Z</time></trkpt><trkpt lat="43.4299003" lon="11.1774977"><ele>131.0</ele><time>2026-04-22T16:07:01.929Z</time></trkpt><trkpt lat="43.4298175" lon="11.1774941"><ele>131.0</ele><time>2026-04-22T16:07:03.931Z</time></trkpt><trkpt lat="43.4297428" lon="11.1775021"><ele>131.0</ele><time>2026-04-22T16:07:05.929Z</time></trkpt><trkpt lat="43.4296696" lon="11.177523"><ele>131.0</ele><time>2026-04-22T16:07:07.931Z</time></trkpt><trkpt lat="43.4295921" lon="11.1775826"><ele>131.0</ele><time>2026-04-22T16:07:09.937Z</time></trkpt><trkpt lat="43.4295197" lon="11.1776488"><ele>131.16666666666666</ele><time>2026-04-22T16:07:11.923Z</time></trkpt><trkpt lat="43.4294519" lon="11.1777233"><ele>131.33333333333331</ele><time>2026-04-22T16:07:13.924Z</time></trkpt><trkpt lat="43.429394" lon="11.1778169"><ele>131.5</ele><time>2026-04-22T16:07:15.919Z</time></trkpt><trkpt lat="43.4293524" lon="11.1779274"><ele>131.66666666666666</ele><time>2026-04-22T16:07:17.926Z</time></trkpt><trkpt lat="43.4293165" lon="11.178042"><ele>131.83333333333334</ele><time>2026-04-22T16:07:19.929Z</time></trkpt><trkpt lat="43.4292785" lon="11.1781448"><ele>132.0</ele><time>2026-04-22T16:07:21.931Z</time></trkpt><trkpt lat="43.4292378" lon="11.1782364"><ele>132.0</ele><time>2026-04-22T16:07:23.94Z</time></trkpt><trkpt lat="43.4292086" lon="11.1783236"><ele>132.0</ele><time>2026-04-22T16:07:25.924Z</time></trkpt><trkpt lat="43.4291811" lon="11.17841"><ele>132.0</ele><time>2026-04-22T16:07:27.944Z</time></trkpt><trkpt lat="43.4291587" lon="11.1785027"><ele>132.0</ele><time>2026-04-22T16:07:29.933Z</time></trkpt><trkpt lat="43.42914" lon="11.1785872"><ele>132.0</ele><time>2026-04-22T16:07:31.939Z</time></trkpt><trkpt lat="43.4291104" lon="11.1787101"><ele>132.0</ele><time>2026-04-22T16:07:34.928Z</time></trkpt><trkpt lat="43.4290838" lon="11.1787992"><ele>132.0</ele><time>2026-04-22T16:07:36.922Z</time></trkpt><trkpt lat="43.4290544" lon="11.1788901"><ele>132.0</ele><time>2026-04-22T16:07:38.924Z</time></trkpt><trkpt lat="43.4290301" lon="11.1789776"><ele>132.0</ele><time>2026-04-22T16:07:40.928Z</time></trkpt><trkpt lat="43.4289967" lon="11.1790651"><ele>132.0</ele><time>2026-04-22T16:07:42.942Z</time></trkpt><trkpt lat="43.428964" lon="11.1791482"><ele>132.0</ele><time>2026-04-22T16:07:44.933Z</time></trkpt><trkpt lat="43.4289291" lon="11.1792326"><ele>132.0</ele><time>2026-04-22T16:07:46.929Z</time></trkpt><trkpt lat="43.4288914" lon="11.1793051"><ele>132.0</ele><time>2026-04-22T16:07:48.936Z</time></trkpt><trkpt lat="43.4288447" lon="11.179371"><ele>132.0</ele><time>2026-04-22T16:07:50.932Z</time></trkpt><trkpt lat="43.4287967" lon="11.1794457"><ele>132.66666666666666</ele><time>2026-04-22T16:07:52.931Z</time></trkpt><trkpt lat="43.4287471" lon="11.1795135"><ele>133.33333333333334</ele><time>2026-04-22T16:07:54.927Z</time></trkpt><trkpt lat="43.4286932" lon="11.1795922"><ele>134.0</ele><time>2026-04-22T16:07:56.933Z</time></trkpt><trkpt lat="43.428623" lon="11.1796372"><ele>134.66666666666669</ele><time>2026-04-22T16:07:58.938Z</time></trkpt><trkpt lat="43.4285385" lon="11.1796919"><ele>135.33333333333334</ele><time>2026-04-22T16:08:00.932Z</time></trkpt><trkpt lat="43.4284382" lon="11.1797392"><ele>136.0</ele><time>2026-04-22T16:08:02.924Z</time></trkpt><trkpt lat="43.4283181" lon="11.179783"><ele>136.0</ele><time>2026-04-22T16:08:04.948Z</time></trkpt><trkpt lat="43.4282574" lon="11.1798119"><ele>136.0</ele><time>2026-04-22T16:08:05.924Z</time></trkpt><trkpt lat="43.4281995" lon="11.1798545"><ele>136.0</ele><time>2026-04-22T16:08:06.944Z</time></trkpt><trkpt lat="43.4281491" lon="11.1799091"><ele>136.0</ele><time>2026-04-22T16:08:07.935Z</time></trkpt><trkpt lat="43.428076" lon="11.1800393"><ele>136.0</ele><time>2026-04-22T16:08:09.939Z</time></trkpt><trkpt lat="43.4280209" lon="11.1801524"><ele>136.0</ele><time>2026-04-22T16:08:11.926Z</time></trkpt><trkpt lat="43.4279666" lon="11.1802423"><ele>135.99999999999997</ele><time>2026-04-22T16:08:13.92Z</time></trkpt><trkpt lat="43.4279246" lon="11.1803211"><ele>136.0</ele><time>2026-04-22T16:08:15.935Z</time></trkpt><trkpt lat="43.4278865" lon="11.1804284"><ele>136.0</ele><time>2026-04-22T16:08:18.918Z</time></trkpt><trkpt lat="43.4278609" lon="11.1805168"><ele>136.0</ele><time>2026-04-22T16:08:21.94Z</time></trkpt><trkpt lat="43.4278605" lon="11.1806198"><ele>136.0</ele><time>2026-04-22T16:08:24.929Z</time></trkpt><trkpt lat="43.4278407" lon="11.1807036"><ele>135.99999999999997</ele><time>2026-04-22T16:08:27.945Z</time></trkpt><trkpt lat="43.4278107" lon="11.1807824"><ele>136.0</ele><time>2026-04-22T16:08:30.942Z</time></trkpt><trkpt lat="43.4277738" lon="11.180863"><ele>136.99999999999997</ele><time>2026-04-22T16:08:33.941Z</time></trkpt><trkpt lat="43.4277298" lon="11.180954"><ele>138.0</ele><time>2026-04-22T16:08:36.929Z</time></trkpt><trkpt lat="43.4276856" lon="11.1810307"><ele>139.0</ele><time>2026-04-22T16:08:39.927Z</time></trkpt><trkpt lat="43.4276484" lon="11.1811078"><ele>140.0</ele><time>2026-04-22T16:08:42.925Z</time></trkpt><trkpt lat="43.4276015" lon="11.1811979"><ele>141.0</ele><time>2026-04-22T16:08:46.928Z</time></trkpt><trkpt lat="43.4275552" lon="11.1812886"><ele>141.99999999999997</ele><time>2026-04-22T16:08:50.925Z</time></trkpt><trkpt lat="43.4275322" lon="11.1813737"><ele>143.0</ele><time>2026-04-22T16:08:54.926Z</time></trkpt><trkpt lat="43.4275397" lon="11.1814711"><ele>143.7142857142857</ele><time>2026-04-22T16:08:58.933Z</time></trkpt><trkpt lat="43.4275733" lon="11.1815582"><ele>144.42857142857142</ele><time>2026-04-22T16:09:03.939Z</time></trkpt><trkpt lat="43.4275131" lon="11.1816215"><ele>145.14285714285714</ele><time>2026-04-22T16:09:08.937Z</time></trkpt><trkpt lat="43.4274472" lon="11.1816371"><ele>145.85714285714283</ele><time>2026-04-22T16:09:11.933Z</time></trkpt><trkpt lat="43.427388" lon="11.1816713"><ele>146.57142857142856</ele><time>2026-04-22T16:09:14.938Z</time></trkpt><trkpt lat="43.4273263" lon="11.1817236"><ele>147.28571428571428</ele><time>2026-04-22T16:09:17.927Z</time></trkpt><trkpt lat="43.4272614" lon="11.1817673"><ele>148.0</ele><time>2026-04-22T16:09:20.936Z</time></trkpt><trkpt lat="43.4271794" lon="11.1818159"><ele>147.0</ele><time>2026-04-22T16:09:23.929Z</time></trkpt><trkpt lat="43.4270952" lon="11.1818385"><ele>146.0</ele><time>2026-04-22T16:09:26.927Z</time></trkpt><trkpt lat="43.4270217" lon="11.1818607"><ele>145.0</ele><time>2026-04-22T16:09:28.939Z</time></trkpt><trkpt lat="43.4269358" lon="11.1818979"><ele>144.0</ele><time>2026-04-22T16:09:30.936Z</time></trkpt><trkpt lat="43.4268325" lon="11.1819302"><ele>143.0</ele><time>2026-04-22T16:09:32.946Z</time></trkpt><trkpt lat="43.4267124" lon="11.181966"><ele>143.0</ele><time>2026-04-22T16:09:34.932Z</time></trkpt><trkpt lat="43.426644" lon="11.1819937"><ele>143.0</ele><time>2026-04-22T16:09:35.934Z</time></trkpt><trkpt lat="43.4265695" lon="11.1820192"><ele>143.0</ele><time>2026-04-22T16:09:36.932Z</time></trkpt><trkpt lat="43.4264894" lon="11.182039"><ele>143.0</ele><time>2026-04-22T16:09:37.918Z</time></trkpt><trkpt lat="43.4264092" lon="11.1820478"><ele>143.0</ele><time>2026-04-22T16:09:38.931Z</time></trkpt><trkpt lat="43.4263303" lon="11.1820486"><ele>143.0</ele><time>2026-04-22T16:09:39.93Z</time></trkpt><trkpt lat="43.4262539" lon="11.1820439"><ele>143.28571428571428</ele><time>2026-04-22T16:09:40.932Z</time></trkpt><trkpt lat="43.4261759" lon="11.1820388"><ele>143.57142857142856</ele><time>2026-04-22T16:09:41.934Z</time></trkpt><trkpt lat="43.4261014" lon="11.1820317"><ele>143.85714285714286</ele><time>2026-04-22T16:09:42.943Z</time></trkpt><trkpt lat="43.426031" lon="11.1820268"><ele>144.14285714285714</ele><time>2026-04-22T16:09:43.936Z</time></trkpt><trkpt lat="43.4259642" lon="11.1820271"><ele>144.42857142857144</ele><time>2026-04-22T16:09:44.938Z</time></trkpt><trkpt lat="43.4259006" lon="11.1820454"><ele>144.71428571428572</ele><time>2026-04-22T16:09:45.937Z</time></trkpt><trkpt lat="43.4258443" lon="11.1820851"><ele>145.0</ele><time>2026-04-22T16:09:46.928Z</time></trkpt><trkpt lat="43.4257692" lon="11.1822146"><ele>144.4</ele><time>2026-04-22T16:09:48.94Z</time></trkpt><trkpt lat="43.4257218" lon="11.1823627"><ele>143.8</ele><time>2026-04-22T16:09:50.932Z</time></trkpt><trkpt lat="43.4256743" lon="11.1824961"><ele>143.2</ele><time>2026-04-22T16:09:52.927Z</time></trkpt><trkpt lat="43.4256287" lon="11.1826161"><ele>142.6</ele><time>2026-04-22T16:09:54.931Z</time></trkpt><trkpt lat="43.425581" lon="11.1827318"><ele>142.0</ele><time>2026-04-22T16:09:56.94Z</time></trkpt><trkpt lat="43.4255368" lon="11.1828441"><ele>142.0</ele><time>2026-04-22T16:09:58.941Z</time></trkpt><trkpt lat="43.425492" lon="11.1829246"><ele>142.0</ele><time>2026-04-22T16:10:00.933Z</time></trkpt><trkpt lat="43.4254402" lon="11.1830195"><ele>142.0</ele><time>2026-04-22T16:10:03.924Z</time></trkpt><trkpt lat="43.425399" lon="11.1831082"><ele>142.0</ele><time>2026-04-22T16:10:06.94Z</time></trkpt><trkpt lat="43.4253586" lon="11.1831827"><ele>142.0</ele><time>2026-04-22T16:10:09.924Z</time></trkpt><trkpt lat="43.4253065" lon="11.1832478"><ele>142.0</ele><time>2026-04-22T16:10:12.934Z</time></trkpt><trkpt lat="43.4252454" lon="11.1832945"><ele>142.0</ele><time>2026-04-22T16:10:15.928Z</time></trkpt><trkpt lat="43.4251821" lon="11.1833132"><ele>143.71428571428572</ele><time>2026-04-22T16:10:18.929Z</time></trkpt><trkpt lat="43.4251263" lon="11.1832715"><ele>145.42857142857142</ele><time>2026-04-22T16:10:21.935Z</time></trkpt><trkpt lat="43.4250724" lon="11.183218"><ele>147.14285714285714</ele><time>2026-04-22T16:10:25.939Z</time></trkpt><trkpt lat="43.4250186" lon="11.1831485"><ele>148.85714285714286</ele><time>2026-04-22T16:10:30.923Z</time></trkpt><trkpt lat="43.4249664" lon="11.1830883"><ele>150.57142857142856</ele><time>2026-04-22T16:10:35.927Z</time></trkpt><trkpt lat="43.4249063" lon="11.183017"><ele>152.28571428571428</ele><time>2026-04-22T16:10:42.922Z</time></trkpt><trkpt lat="43.424843" lon="11.1829459"><ele>154.0</ele><time>2026-04-22T16:10:46.934Z</time></trkpt><trkpt lat="43.424806" lon="11.1828716"><ele>154.85714285714286</ele><time>2026-04-22T16:10:49.928Z</time></trkpt><trkpt lat="43.4247691" lon="11.1827783"><ele>155.71428571428572</ele><time>2026-04-22T16:10:53.939Z</time></trkpt><trkpt lat="43.4247242" lon="11.1826898"><ele>156.57142857142856</ele><time>2026-04-22T16:10:56.931Z</time></trkpt><trkpt lat="43.4246855" lon="11.1826096"><ele>157.42857142857144</ele><time>2026-04-22T16:10:59.925Z</time></trkpt><trkpt lat="43.4246476" lon="11.1825207"><ele>158.28571428571428</ele><time>2026-04-22T16:11:02.929Z</time></trkpt><trkpt lat="43.4245997" lon="11.182435"><ele>159.14285714285714</ele><time>2026-04-22T16:11:05.939Z</time></trkpt><trkpt lat="43.4245365" lon="11.1823918"><ele>160.0</ele><time>2026-04-22T16:11:08.932Z</time></trkpt><trkpt lat="43.4244658" lon="11.1823825"><ele>160.71428571428572</ele><time>2026-04-22T16:11:11.947Z</time></trkpt><trkpt lat="43.4243978" lon="11.1823766"><ele>161.42857142857144</ele><time>2026-04-22T16:11:14.921Z</time></trkpt><trkpt lat="43.424332" lon="11.1823725"><ele>162.14285714285717</ele><time>2026-04-22T16:11:17.928Z</time></trkpt><trkpt lat="43.4242538" lon="11.1823539"><ele>162.85714285714286</ele><time>2026-04-22T16:11:21.944Z</time></trkpt><trkpt lat="43.4241859" lon="11.1823382"><ele>163.57142857142858</ele><time>2026-04-22T16:11:24.924Z</time></trkpt><trkpt lat="43.4241309" lon="11.1822919"><ele>164.2857142857143</ele><time>2026-04-22T16:11:28.921Z</time></trkpt><trkpt lat="43.4241496" lon="11.1821959"><ele>165.0</ele><time>2026-04-22T16:11:32.945Z</time></trkpt><trkpt lat="43.4241779" lon="11.1820852"><ele>165.0</ele><time>2026-04-22T16:11:35.93Z</time></trkpt><trkpt lat="43.4242036" lon="11.1819712"><ele>165.0</ele><time>2026-04-22T16:11:38.925Z</time></trkpt><trkpt lat="43.4242441" lon="11.1818688"><ele>165.0</ele><time>2026-04-22T16:11:41.928Z</time></trkpt><trkpt lat="43.4242901" lon="11.1817891"><ele>165.0</ele><time>2026-04-22T16:11:43.939Z</time></trkpt><trkpt lat="43.424341" lon="11.1817163"><ele>165.0</ele><time>2026-04-22T16:11:45.934Z</time></trkpt><trkpt lat="43.424392" lon="11.1816417"><ele>165.0</ele><time>2026-04-22T16:11:47.933Z</time></trkpt><trkpt lat="43.4244388" lon="11.181559"><ele>165.14285714285717</ele><time>2026-04-22T16:11:49.927Z</time></trkpt><trkpt lat="43.4244837" lon="11.1814701"><ele>165.28571428571428</ele><time>2026-04-22T16:11:51.925Z</time></trkpt><trkpt lat="43.4245326" lon="11.1814004"><ele>165.42857142857144</ele><time>2026-04-22T16:11:53.926Z</time></trkpt><trkpt lat="43.4245693" lon="11.1813189"><ele>165.57142857142858</ele><time>2026-04-22T16:11:55.943Z</time></trkpt><trkpt lat="43.4246011" lon="11.1812361"><ele>165.71428571428572</ele><time>2026-04-22T16:11:57.922Z</time></trkpt><trkpt lat="43.4246566" lon="11.1811674"><ele>165.85714285714286</ele><time>2026-04-22T16:11:59.926Z</time></trkpt><trkpt lat="43.4247196" lon="11.1810885"><ele>166.0</ele><time>2026-04-22T16:12:01.929Z</time></trkpt><trkpt lat="43.4247795" lon="11.1809993"><ele>165.5</ele><time>2026-04-22T16:12:03.922Z</time></trkpt><trkpt lat="43.4248314" lon="11.180903"><ele>165.0</ele><time>2026-04-22T16:12:05.928Z</time></trkpt><trkpt lat="43.4248822" lon="11.1808096"><ele>164.5</ele><time>2026-04-22T16:12:07.94Z</time></trkpt><trkpt lat="43.4249296" lon="11.1807091"><ele>164.0</ele><time>2026-04-22T16:12:09.917Z</time></trkpt><trkpt lat="43.4249787" lon="11.1806247"><ele>163.5</ele><time>2026-04-22T16:12:11.936Z</time></trkpt><trkpt lat="43.4250276" lon="11.1805376"><ele>163.0</ele><time>2026-04-22T16:12:13.928Z</time></trkpt><trkpt lat="43.4250781" lon="11.1804481"><ele>163.0</ele><time>2026-04-22T16:12:15.918Z</time></trkpt><trkpt lat="43.4251342" lon="11.180371"><ele>163.0</ele><time>2026-04-22T16:12:17.929Z</time></trkpt><trkpt lat="43.4251897" lon="11.1802892"><ele>163.0</ele><time>2026-04-22T16:12:19.935Z</time></trkpt><trkpt lat="43.4252325" lon="11.1802008"><ele>163.0</ele><time>2026-04-22T16:12:21.933Z</time></trkpt><trkpt lat="43.4252821" lon="11.1801122"><ele>163.0</ele><time>2026-04-22T16:12:23.93Z</time></trkpt><trkpt lat="43.4253324" lon="11.1800264"><ele>163.0</ele><time>2026-04-22T16:12:25.925Z</time></trkpt><trkpt lat="43.4253863" lon="11.1799522"><ele>163.0</ele><time>2026-04-22T16:12:27.933Z</time></trkpt><trkpt lat="43.4254319" lon="11.1798683"><ele>163.0</ele><time>2026-04-22T16:12:29.934Z</time></trkpt><trkpt lat="43.4254806" lon="11.1797803"><ele>163.0</ele><time>2026-04-22T16:12:31.93Z</time></trkpt><trkpt lat="43.4255299" lon="11.179697"><ele>163.0</ele><time>2026-04-22T16:12:33.935Z</time></trkpt><trkpt lat="43.425583" lon="11.1796157"><ele>163.0</ele><time>2026-04-22T16:12:35.93Z</time></trkpt><trkpt lat="43.4256413" lon="11.1795333"><ele>163.0</ele><time>2026-04-22T16:12:37.944Z</time></trkpt><trkpt lat="43.4256977" lon="11.1794494"><ele>162.66666666666669</ele><time>2026-04-22T16:12:39.937Z</time></trkpt><trkpt lat="43.4257467" lon="11.1793769"><ele>162.33333333333334</ele><time>2026-04-22T16:12:41.933Z</time></trkpt><trkpt lat="43.4258207" lon="11.1793088"><ele>162.0</ele><time>2026-04-22T16:12:44.921Z</time></trkpt><trkpt lat="43.4258866" lon="11.1792872"><ele>161.66666666666666</ele><time>2026-04-22T16:12:46.926Z</time></trkpt><trkpt lat="43.4259538" lon="11.1792628"><ele>161.33333333333331</ele><time>2026-04-22T16:12:48.939Z</time></trkpt><trkpt lat="43.4260261" lon="11.1792183"><ele>161.0</ele><time>2026-04-22T16:12:50.933Z</time></trkpt><trkpt lat="43.4260727" lon="11.1791422"><ele>161.0</ele><time>2026-04-22T16:12:52.924Z</time></trkpt><trkpt lat="43.4260961" lon="11.1790489"><ele>161.0</ele><time>2026-04-22T16:12:54.925Z</time></trkpt><trkpt lat="43.426087" lon="11.1789488"><ele>161.0</ele><time>2026-04-22T16:12:56.933Z</time></trkpt><trkpt lat="43.4260625" lon="11.1788654"><ele>161.0</ele><time>2026-04-22T16:12:58.937Z</time></trkpt><trkpt lat="43.4260136" lon="11.1788044"><ele>161.0</ele><time>2026-04-22T16:13:00.935Z</time></trkpt><trkpt lat="43.4259482" lon="11.1787718"><ele>161.0</ele><time>2026-04-22T16:13:02.927Z</time></trkpt><trkpt lat="43.4258784" lon="11.1787775"><ele>161.0</ele><time>2026-04-22T16:13:04.917Z</time></trkpt><trkpt lat="43.4258014" lon="11.1788039"><ele>162.16666666666666</ele><time>2026-04-22T16:13:06.93Z</time></trkpt><trkpt lat="43.4257211" lon="11.1788318"><ele>163.33333333333331</ele><time>2026-04-22T16:13:08.923Z</time></trkpt><trkpt lat="43.4256389" lon="11.1788535"><ele>164.5</ele><time>2026-04-22T16:13:10.93Z</time></trkpt><trkpt lat="43.4255673" lon="11.1788421"><ele>165.66666666666666</ele><time>2026-04-22T16:13:12.924Z</time></trkpt><trkpt lat="43.4254961" lon="11.1788162"><ele>166.83333333333334</ele><time>2026-04-22T16:13:14.946Z</time></trkpt><trkpt lat="43.4254287" lon="11.1787871"><ele>168.0</ele><time>2026-04-22T16:13:16.927Z</time></trkpt><trkpt lat="43.4253585" lon="11.1787595"><ele>168.57142857142858</ele><time>2026-04-22T16:13:18.929Z</time></trkpt><trkpt lat="43.4252881" lon="11.1787528"><ele>169.14285714285714</ele><time>2026-04-22T16:13:20.929Z</time></trkpt><trkpt lat="43.4252169" lon="11.1787475"><ele>169.71428571428572</ele><time>2026-04-22T16:13:22.933Z</time></trkpt><trkpt lat="43.4251484" lon="11.1787456"><ele>170.28571428571428</ele><time>2026-04-22T16:13:24.935Z</time></trkpt><trkpt lat="43.4250827" lon="11.1787499"><ele>170.85714285714286</ele><time>2026-04-22T16:13:26.926Z</time></trkpt><trkpt lat="43.4250172" lon="11.1787602"><ele>171.42857142857144</ele><time>2026-04-22T16:13:28.924Z</time></trkpt><trkpt lat="43.424948" lon="11.1787689"><ele>172.0</ele><time>2026-04-22T16:13:30.926Z</time></trkpt><trkpt lat="43.4248714" lon="11.1787817"><ele>172.0</ele><time>2026-04-22T16:13:32.926Z</time></trkpt><trkpt lat="43.4247964" lon="11.1787888"><ele>172.0</ele><time>2026-04-22T16:13:34.925Z</time></trkpt><trkpt lat="43.4247159" lon="11.1788048"><ele>172.0</ele><time>2026-04-22T16:13:36.922Z</time></trkpt><trkpt lat="43.4246407" lon="11.1788215"><ele>172.0</ele><time>2026-04-22T16:13:38.92Z</time></trkpt><trkpt lat="43.4245621" lon="11.1788391"><ele>172.0</ele><time>2026-04-22T16:13:40.93Z</time></trkpt><trkpt lat="43.4244823" lon="11.178848"><ele>172.0</ele><time>2026-04-22T16:13:42.921Z</time></trkpt><trkpt lat="43.4244042" lon="11.1788709"><ele>173.33333333333334</ele><time>2026-04-22T16:13:44.932Z</time></trkpt><trkpt lat="43.4243393" lon="11.1788909"><ele>174.66666666666669</ele><time>2026-04-22T16:13:46.929Z</time></trkpt><trkpt lat="43.4242743" lon="11.1789087"><ele>176.0</ele><time>2026-04-22T16:13:48.924Z</time></trkpt><trkpt lat="43.42421" lon="11.1789215"><ele>177.33333333333334</ele><time>2026-04-22T16:13:50.932Z</time></trkpt><trkpt lat="43.4241196" lon="11.1789395"><ele>178.66666666666666</ele><time>2026-04-22T16:13:53.924Z</time></trkpt><trkpt lat="43.4240363" lon="11.178946"><ele>180.0</ele><time>2026-04-22T16:13:56.966Z</time></trkpt><trkpt lat="43.4239514" lon="11.1789535"><ele>180.0</ele><time>2026-04-22T16:13:59.946Z</time></trkpt><trkpt lat="43.423872" lon="11.1789705"><ele>180.0</ele><time>2026-04-22T16:14:02.929Z</time></trkpt><trkpt lat="43.4237912" lon="11.1789922"><ele>180.0</ele><time>2026-04-22T16:14:05.927Z</time></trkpt><trkpt lat="43.4237054" lon="11.179012"><ele>180.0</ele><time>2026-04-22T16:14:08.93Z</time></trkpt><trkpt lat="43.4236181" lon="11.1790445"><ele>180.0</ele><time>2026-04-22T16:14:11.934Z</time></trkpt><trkpt lat="43.423527" lon="11.1790606"><ele>180.0</ele><time>2026-04-22T16:14:14.957Z</time></trkpt><trkpt lat="43.4234652" lon="11.1790774"><ele>178.83333333333334</ele><time>2026-04-22T16:14:16.932Z</time></trkpt><trkpt lat="43.4233707" lon="11.1790927"><ele>177.66666666666666</ele><time>2026-04-22T16:14:19.942Z</time></trkpt><trkpt lat="43.4232771" lon="11.1791175"><ele>176.5</ele><time>2026-04-22T16:14:22.926Z</time></trkpt><trkpt lat="43.4231874" lon="11.1791502"><ele>175.33333333333331</ele><time>2026-04-22T16:14:25.935Z</time></trkpt><trkpt lat="43.4231244" lon="11.1791624"><ele>174.16666666666666</ele><time>2026-04-22T16:14:27.924Z</time></trkpt><trkpt lat="43.4230598" lon="11.179175"><ele>173.0</ele><time>2026-04-22T16:14:29.924Z</time></trkpt><trkpt lat="43.4229924" lon="11.1791887"><ele>173.7142857142857</ele><time>2026-04-22T16:14:31.936Z</time></trkpt><trkpt lat="43.4229282" lon="11.1792087"><ele>174.42857142857144</ele><time>2026-04-22T16:14:33.923Z</time></trkpt><trkpt lat="43.4228634" lon="11.1792189"><ele>175.14285714285714</ele><time>2026-04-22T16:14:35.928Z</time></trkpt><trkpt lat="43.4227969" lon="11.1792315"><ele>175.85714285714283</ele><time>2026-04-22T16:14:37.939Z</time></trkpt><trkpt lat="43.4227306" lon="11.1792479"><ele>176.57142857142856</ele><time>2026-04-22T16:14:39.923Z</time></trkpt><trkpt lat="43.4226619" lon="11.1792691"><ele>177.28571428571428</ele><time>2026-04-22T16:14:41.942Z</time></trkpt><trkpt lat="43.4225969" lon="11.1792832"><ele>178.0</ele><time>2026-04-22T16:14:43.927Z</time></trkpt><trkpt lat="43.4225368" lon="11.1793095"><ele>177.99999999999997</ele><time>2026-04-22T16:14:45.925Z</time></trkpt><trkpt lat="43.4224722" lon="11.1793335"><ele>178.0</ele><time>2026-04-22T16:14:47.949Z</time></trkpt><trkpt lat="43.4224102" lon="11.1793648"><ele>178.0</ele><time>2026-04-22T16:14:49.926Z</time></trkpt><trkpt lat="43.4223143" lon="11.1794001"><ele>178.0</ele><time>2026-04-22T16:14:52.926Z</time></trkpt><trkpt lat="43.4222448" lon="11.1794318"><ele>178.0</ele><time>2026-04-22T16:14:54.927Z</time></trkpt><trkpt lat="43.4221776" lon="11.1794619"><ele>177.99999999999997</ele><time>2026-04-22T16:14:56.939Z</time></trkpt><trkpt lat="43.4221133" lon="11.1794913"><ele>178.0</ele><time>2026-04-22T16:14:58.955Z</time></trkpt><trkpt lat="43.4220496" lon="11.1795179"><ele>177.7142857142857</ele><time>2026-04-22T16:15:00.954Z</time></trkpt><trkpt lat="43.4219881" lon="11.1795484"><ele>177.42857142857142</ele><time>2026-04-22T16:15:02.928Z</time></trkpt><trkpt lat="43.4219239" lon="11.1795856"><ele>177.14285714285714</ele><time>2026-04-22T16:15:04.928Z</time></trkpt><trkpt lat="43.4218637" lon="11.1796214"><ele>176.85714285714283</ele><time>2026-04-22T16:15:06.96Z</time></trkpt><trkpt lat="43.421802" lon="11.1796612"><ele>176.57142857142856</ele><time>2026-04-22T16:15:08.926Z</time></trkpt><trkpt lat="43.4217323" lon="11.1797"><ele>176.28571428571428</ele><time>2026-04-22T16:15:10.925Z</time></trkpt><trkpt lat="43.421664" lon="11.1797329"><ele>176.0</ele><time>2026-04-22T16:15:12.947Z</time></trkpt><trkpt lat="43.4215953" lon="11.1797596"><ele>176.0</ele><time>2026-04-22T16:15:14.947Z</time></trkpt><trkpt lat="43.4215038" lon="11.1797411"><ele>176.0</ele><time>2026-04-22T16:15:17.936Z</time></trkpt><trkpt lat="43.4214153" lon="11.1797547"><ele>176.0</ele><time>2026-04-22T16:15:20.932Z</time></trkpt><trkpt lat="43.4213296" lon="11.1797638"><ele>176.0</ele><time>2026-04-22T16:15:23.932Z</time></trkpt><trkpt lat="43.4212698" lon="11.1798548"><ele>176.0</ele><time>2026-04-22T16:15:26.921Z</time></trkpt><trkpt lat="43.4212639" lon="11.1799837"><ele>175.5</ele><time>2026-04-22T16:15:29.936Z</time></trkpt><trkpt lat="43.421303" lon="11.1800797"><ele>175.0</ele><time>2026-04-22T16:15:31.95Z</time></trkpt><trkpt lat="43.421358" lon="11.1801685"><ele>174.5</ele><time>2026-04-22T16:15:33.932Z</time></trkpt><trkpt lat="43.4214137" lon="11.1802633"><ele>174.0</ele><time>2026-04-22T16:15:35.941Z</time></trkpt><trkpt lat="43.4214637" lon="11.1803749"><ele>173.5</ele><time>2026-04-22T16:15:37.928Z</time></trkpt><trkpt lat="43.421503" lon="11.1805024"><ele>173.0</ele><time>2026-04-22T16:15:39.936Z</time></trkpt><trkpt lat="43.4215468" lon="11.1806151"><ele>173.0</ele><time>2026-04-22T16:15:41.954Z</time></trkpt><trkpt lat="43.4215736" lon="11.1807344"><ele>173.0</ele><time>2026-04-22T16:15:43.932Z</time></trkpt><trkpt lat="43.4216328" lon="11.1806889"><ele>173.0</ele><time>2026-04-22T16:15:49.943Z</time></trkpt><trkpt lat="43.4217008" lon="11.1806323"><ele>173.0</ele><time>2026-04-22T16:15:52.942Z</time></trkpt><trkpt lat="43.4217749" lon="11.1805828"><ele>173.0</ele><time>2026-04-22T16:15:55.938Z</time></trkpt><trkpt lat="43.4218471" lon="11.1805235"><ele>173.0</ele><time>2026-04-22T16:15:58.93Z</time></trkpt><trkpt lat="43.4219146" lon="11.1804754"><ele>173.0</ele><time>2026-04-22T16:16:01.931Z</time></trkpt><trkpt lat="43.4219748" lon="11.1804295"><ele>173.0</ele><time>2026-04-22T16:16:04.926Z</time></trkpt><trkpt lat="43.4220354" lon="11.1803726"><ele>173.0</ele><time>2026-04-22T16:16:07.934Z</time></trkpt><trkpt lat="43.4220874" lon="11.1803153"><ele>173.0</ele><time>2026-04-22T16:16:10.94Z</time></trkpt><trkpt lat="43.4221342" lon="11.1804046"><ele>173.0</ele><time>2026-04-22T16:16:14.927Z</time></trkpt><trkpt lat="43.4221505" lon="11.1805203"><ele>173.0</ele><time>2026-04-22T16:16:17.932Z</time></trkpt><trkpt lat="43.4221714" lon="11.1806312"><ele>172.5</ele><time>2026-04-22T16:16:20.92Z</time></trkpt><trkpt lat="43.4221923" lon="11.1807306"><ele>172.0</ele><time>2026-04-22T16:16:22.921Z</time></trkpt><trkpt lat="43.4222105" lon="11.1808245"><ele>171.5</ele><time>2026-04-22T16:16:24.92Z</time></trkpt><trkpt lat="43.4222144" lon="11.1809278"><ele>171.0</ele><time>2026-04-22T16:16:27.932Z</time></trkpt><trkpt lat="43.4222296" lon="11.1810448"><ele>170.5</ele><time>2026-04-22T16:16:31.938Z</time></trkpt><trkpt lat="43.4222474" lon="11.1811484"><ele>170.0</ele><time>2026-04-22T16:16:34.925Z</time></trkpt><trkpt lat="43.4222669" lon="11.1812471"><ele>170.0</ele><time>2026-04-22T16:16:37.936Z</time></trkpt><trkpt lat="43.4222798" lon="11.1811396"><ele>170.0</ele><time>2026-04-22T16:16:44.931Z</time></trkpt><trkpt lat="43.4222812" lon="11.1810436"><ele>170.0</ele><time>2026-04-22T16:16:47.937Z</time></trkpt><trkpt lat="43.4222721" lon="11.1809453"><ele>170.0</ele><time>2026-04-22T16:16:50.977Z</time></trkpt><trkpt lat="43.4222451" lon="11.1808182"><ele>170.0</ele><time>2026-04-22T16:16:54.949Z</time></trkpt><trkpt lat="43.4222291" lon="11.1807092"><ele>170.0</ele><time>2026-04-22T16:16:57.981Z</time></trkpt><trkpt lat="43.4222278" lon="11.1806048"><ele>170.2857142857143</ele><time>2026-04-22T16:17:00.93Z</time></trkpt><trkpt lat="43.42222" lon="11.1805141"><ele>170.57142857142856</ele><time>2026-04-22T16:17:03.925Z</time></trkpt><trkpt lat="43.4222553" lon="11.1804322"><ele>170.85714285714286</ele><time>2026-04-22T16:17:06.932Z</time></trkpt><trkpt lat="43.422306" lon="11.1803654"><ele>171.14285714285717</ele><time>2026-04-22T16:17:10.939Z</time></trkpt><trkpt lat="43.422369" lon="11.1803547"><ele>171.42857142857144</ele><time>2026-04-22T16:17:13.923Z</time></trkpt><trkpt lat="43.4224446" lon="11.1803381"><ele>171.71428571428572</ele><time>2026-04-22T16:17:16.93Z</time></trkpt><trkpt lat="43.4225092" lon="11.1803286"><ele>172.0</ele><time>2026-04-22T16:17:18.937Z</time></trkpt><trkpt lat="43.4225764" lon="11.1803127"><ele>172.0</ele><time>2026-04-22T16:17:20.937Z</time></trkpt><trkpt lat="43.4226578" lon="11.1803124"><ele>172.0</ele><time>2026-04-22T16:17:22.934Z</time></trkpt><trkpt lat="43.4227447" lon="11.1802971"><ele>172.0</ele><time>2026-04-22T16:17:24.956Z</time></trkpt><trkpt lat="43.4228236" lon="11.1802848"><ele>172.0</ele><time>2026-04-22T16:17:26.966Z</time></trkpt><trkpt lat="43.4229081" lon="11.1802587"><ele>172.0</ele><time>2026-04-22T16:17:28.934Z</time></trkpt><trkpt lat="43.4229984" lon="11.1802323"><ele>172.0</ele><time>2026-04-22T16:17:30.941Z</time></trkpt><trkpt lat="43.42308" lon="11.1801968"><ele>171.66666666666669</ele><time>2026-04-22T16:17:32.931Z</time></trkpt><trkpt lat="43.4231629" lon="11.1801834"><ele>171.33333333333334</ele><time>2026-04-22T16:17:34.937Z</time></trkpt><trkpt lat="43.4232429" lon="11.1801716"><ele>171.0</ele><time>2026-04-22T16:17:36.926Z</time></trkpt><trkpt lat="43.4233335" lon="11.1801671"><ele>170.66666666666666</ele><time>2026-04-22T16:17:38.934Z</time></trkpt><trkpt lat="43.4234192" lon="11.1801349"><ele>170.33333333333331</ele><time>2026-04-22T16:17:40.928Z</time></trkpt><trkpt lat="43.4235093" lon="11.1800985"><ele>170.0</ele><time>2026-04-22T16:17:42.926Z</time></trkpt><trkpt lat="43.4236162" lon="11.1800801"><ele>170.0</ele><time>2026-04-22T16:17:44.928Z</time></trkpt><trkpt lat="43.4237169" lon="11.1800824"><ele>170.0</ele><time>2026-04-22T16:17:46.919Z</time></trkpt><trkpt lat="43.4237909" lon="11.1800798"><ele>170.0</ele><time>2026-04-22T16:17:48.92Z</time></trkpt><trkpt lat="43.4238845" lon="11.1800846"><ele>170.0</ele><time>2026-04-22T16:17:51.941Z</time></trkpt><trkpt lat="43.4239475" lon="11.1801232"><ele>170.0</ele><time>2026-04-22T16:17:53.925Z</time></trkpt><trkpt lat="43.4240162" lon="11.1800611"><ele>170.0</ele><time>2026-04-22T16:17:56.915Z</time></trkpt><trkpt lat="43.4239832" lon="11.179979"><ele>170.0</ele><time>2026-04-22T16:17:59.944Z</time></trkpt><trkpt lat="43.4238967" lon="11.1800079"><ele>170.0</ele><time>2026-04-22T16:18:02.936Z</time></trkpt><trkpt lat="43.4238338" lon="11.1800342"><ele>170.0</ele><time>2026-04-22T16:18:04.935Z</time></trkpt><trkpt lat="43.4237445" lon="11.1800472"><ele>170.0</ele><time>2026-04-22T16:18:07.932Z</time></trkpt><trkpt lat="43.423661" lon="11.1800878"><ele>170.0</ele><time>2026-04-22T16:18:10.932Z</time></trkpt><trkpt lat="43.4235824" lon="11.1801132"><ele>170.0</ele><time>2026-04-22T16:18:13.921Z</time></trkpt><trkpt lat="43.423496" lon="11.1801281"><ele>170.0</ele><time>2026-04-22T16:18:16.926Z</time></trkpt><trkpt lat="43.423415" lon="11.1801387"><ele>170.0</ele><time>2026-04-22T16:18:19.922Z</time></trkpt><trkpt lat="43.4233341" lon="11.1801415"><ele>170.0</ele><time>2026-04-22T16:18:22.925Z</time></trkpt><trkpt lat="43.423249" lon="11.1801502"><ele>170.0</ele><time>2026-04-22T16:18:25.936Z</time></trkpt><trkpt lat="43.423162" lon="11.1801538"><ele>170.0</ele><time>2026-04-22T16:18:28.934Z</time></trkpt><trkpt lat="43.4230984" lon="11.1801545"><ele>170.0</ele><time>2026-04-22T16:18:30.927Z</time></trkpt><trkpt lat="43.42303" lon="11.1801698"><ele>170.33333333333331</ele><time>2026-04-22T16:18:32.942Z</time></trkpt><trkpt lat="43.4229395" lon="11.1801865"><ele>170.66666666666666</ele><time>2026-04-22T16:18:35.93Z</time></trkpt><trkpt lat="43.4228552" lon="11.1802269"><ele>171.0</ele><time>2026-04-22T16:18:38.939Z</time></trkpt><trkpt lat="43.4227933" lon="11.1802445"><ele>171.33333333333334</ele><time>2026-04-22T16:18:40.928Z</time></trkpt><trkpt lat="43.4227031" lon="11.1802687"><ele>171.66666666666669</ele><time>2026-04-22T16:18:43.924Z</time></trkpt><trkpt lat="43.4226404" lon="11.1802906"><ele>172.0</ele><time>2026-04-22T16:18:45.933Z</time></trkpt><trkpt lat="43.4225748" lon="11.1802984"><ele>172.0</ele><time>2026-04-22T16:18:47.928Z</time></trkpt><trkpt lat="43.4224885" lon="11.180306"><ele>172.0</ele><time>2026-04-22T16:18:50.94Z</time></trkpt><trkpt lat="43.4223999" lon="11.1803277"><ele>172.0</ele><time>2026-04-22T16:18:53.939Z</time></trkpt><trkpt lat="43.4223191" lon="11.1803564"><ele>172.0</ele><time>2026-04-22T16:18:56.92Z</time></trkpt><trkpt lat="43.4222301" lon="11.1803481"><ele>172.0</ele><time>2026-04-22T16:18:59.925Z</time></trkpt><trkpt lat="43.4221641" lon="11.1803643"><ele>172.0</ele><time>2026-04-22T16:19:02.924Z</time></trkpt><trkpt lat="43.4221548" lon="11.1804824"><ele>172.0</ele><time>2026-04-22T16:19:06.929Z</time></trkpt><trkpt lat="43.4221641" lon="11.1806076"><ele>172.0</ele><time>2026-04-22T16:19:09.92Z</time></trkpt><trkpt lat="43.4221754" lon="11.1807049"><ele>172.0</ele><time>2026-04-22T16:19:11.922Z</time></trkpt><trkpt lat="43.4222024" lon="11.1807996"><ele>172.0</ele><time>2026-04-22T16:19:13.926Z</time></trkpt><trkpt lat="43.4222242" lon="11.1808989"><ele>172.0</ele><time>2026-04-22T16:19:15.93Z</time></trkpt><trkpt lat="43.4222419" lon="11.1809906"><ele>172.0</ele><time>2026-04-22T16:19:17.928Z</time></trkpt><trkpt lat="43.4222509" lon="11.1811105"><ele>170.0</ele><time>2026-04-22T16:19:20.931Z</time></trkpt><trkpt lat="43.4222123" lon="11.1811804"><ele>170.0</ele><time>2026-04-22T16:19:24.935Z</time></trkpt><trkpt lat="43.4221535" lon="11.181224"><ele>170.0</ele><time>2026-04-22T16:19:29.952Z</time></trkpt><trkpt lat="43.4220854" lon="11.181203"><ele>174.0</ele><time>2026-04-22T16:20:09.931Z</time></trkpt></trkseg></trk></gpx>